[[{"header":{"parameterUnit":"m.s-1","parameterCategory":1,"la1":31.0,"la2":29.5877,"lo1":-88.7671,"lo2":-86.6584,"dy":0.0162,"dx":0.0185,"nx":115,"ny":88,"refTime":"2024-04-20T06:00:00:Z","depth":0,"parameterNumber":2,"parameterNumberName":"U-component_of_WINDS"},"data":[0.0,0.0,0.0,0.0,0.0,0.0,0.0,0.0,0.0,0.0,0.0,0.0,0.0,0.0,0.0,0.0,0.0,0.0,0.0,0.0,0.0,0.0,0.0,0.0,0.0,0.0,0.0,0.0,0.0,0.0,0.0,0.0,0.0,0.0,0.0,0.0,0.0,0.0,0.0,0.0,0.0,0.0,0.0,0.0,0.0,0.0,0.0,0.0,0.0,0.0,0.0,0.0,0.0,0.0,0.0,0.0,0.0,0.0,0.0,0.0,0.0,0.0,0.0,0.0,0.0,0.0,0.0,0.0,0.0,0.0,0.0,0.0,0.0,0.0,0.0,0.0,0.0,0.0,0.0,0.0,0.0,0.0,0.0,0.0,0.0,0.0,0.0,0.0,0.0,0.0,0.0,0.0,0.0,0.0,0.0,0.0,0.0,0.0,0.0,0.0,0.0,0.0,0.0,0.0,0.0,0.0,0.0,0.0,0.0,0.0,0.0,0.0,0.0,0.0,0.0,0.0,0.0,0.0,0.0,0.0,0.0,0.0,0.0,0.0,0.0,0.0,0.0,0.0,0.0,0.0,0.0,0.0,0.0,0.0,0.0,0.0,0.0,0.0,0.0,0.0,0.0,0.0,0.0,0.0,0.0,0.0,0.0,0.0,0.0,0.0,0.0,0.0,0.0,0.0,0.0,0.0,0.0,0.0,0.0,0.0,0.0,0.0,0.0,0.0,0.0,0.0,0.0,0.0,0.0,0.0,0.0,0.0,0.0,0.0,0.0,0.0,0.0,0.0,0.0,0.0,0.0,0.0,0.0,0.0,0.0,0.0,0.0,0.0,0.0,0.0,0.0,0.0,0.0,0.0,0.0,0.0,0.0,0.0,0.0,0.0,0.0,0.0,0.0,0.0,0.0,0.0,0.0,0.0,0.0,0.0,0.0,0.0,0.0,0.0,0.0,0.0,0.0,0.0,0.0,0.0,0.0,0.0,0.0,0.0,0.0,0.0,0.0,0.0,0.0,0.0,0.0,0.0,0.0,0.0,0.0,0.0,0.0,0.0,0.0,0.0,0.0,0.0,0.0,0.0,0.0,0.0,0.0,0.0,0.0,0.0,0.0,0.0,0.0,0.0,0.0,0.0,0.0,0.0,0.0,0.0,0.0,0.0,0.0,0.0,0.0,0.0,0.0,0.0,0.0,0.0,0.0,0.0,0.0,0.0,0.0,0.0,0.0,0.0,0.0,0.0,0.0,0.0,0.0,0.0,0.0,0.0,0.0,0.0,0.0,0.0,0.0,0.0,0.0,0.0,0.0,0.0,0.0,0.0,0.0,0.0,0.0,0.0,0.0,0.0,0.0,0.0,0.0,0.0,0.0,0.0,0.0,0.0,0.0,0.0,0.0,0.0,0.0,0.0,0.0,0.0,0.0,0.0,0.0,0.0,0.0,0.0,0.0,0.0,0.0,0.0,0.0,0.0,0.0,0.0,0.0,0.0,0.0,0.0,0.0,0.0,0.0,0.0,0.0,0.0,0.0,0.0,0.0,0.0,0.0,0.0,0.0,0.0,0.0,0.0,0.0,0.0,0.0,0.0,0.0,0.0,0.0,0.0,0.0,0.0,0.0,0.0,0.0,0.0,0.0,0.0,0.0,0.0,0.0,0.0,0.0,0.0,0.0,0.0,0.0,0.0,0.0,0.0,0.0,0.0,0.0,0.0,0.0,0.0,0.0,0.0,0.0,0.0,0.0,0.0,0.0,0.0,0.0,0.0,0.0,0.0,0.0,0.0,0.0,0.0,0.0,0.0,0.0,0.0,0.0,0.0,0.0,0.0,0.0,0.0,0.0,0.0,0.0,0.0,0.0,0.0,0.0,0.0,0.0,0.0,0.0,0.0,0.0,0.0,0.0,0.0,0.0,0.0,0.0,0.0,0.0,0.0,0.0,0.0,0.0,0.0,0.0,0.0,0.0,0.0,0.0,0.0,0.0,0.0,0.0,0.0,0.0,0.0,0.0,0.0,0.0,0.0,0.0,0.0,0.0,0.0,0.0,0.0,0.0,0.0,0.0,0.0,0.0,0.0,0.0,0.0,0.0,0.0,0.0,0.0,0.0,0.0,0.0,0.0,0.0,0.0,0.0,0.0,0.0,0.0,0.0,0.0,0.0,0.0,0.0,0.0,0.0,0.0,0.0,0.0,0.0,0.0,0.0,0.0,0.0,0.0,0.0,0.0,0.0,0.0,0.0,0.0,0.0,0.0,0.0,0.0,0.0,0.0,0.0,0.0,0.0,0.0,0.0,0.0,0.0,0.0,0.0,0.0,0.0,0.0,0.0,0.0,0.0,0.0,0.0,0.0,0.0,0.0,0.0,0.0,0.0,0.0,0.0,0.0,0.0,0.0,0.0,0.0,0.0,0.0,0.0,0.0,0.0,0.0,0.0,0.0,0.0,0.0,0.0,0.0,0.0,0.0,0.0,0.0,0.0,0.0,0.0,0.0,0.0,0.0,0.0,0.0,0.0,0.0,0.0,0.0,0.0,0.0,0.0,0.0,0.0,0.0,0.0,0.0,0.0,0.0,0.0,0.0,0.0,0.0,0.0,0.0,0.0,0.0,0.0,0.0,0.0,0.0,0.0,0.0,0.0,0.0,0.0,0.0,0.0,0.0,0.0,0.0,0.0,0.0,0.0,0.0,0.0,0.0,0.0,0.0,0.0,0.0,0.0,0.0,0.0,0.0,0.0,0.0,0.0,0.0,0.0,0.0,0.0,0.0,0.0,0.0,0.0,0.0,0.0,0.0,0.0,0.0,0.0,0.0,0.0,0.0,0.0,0.0,0.0,0.0,0.0,0.0,0.0,0.0,0.0,0.0,0.0,0.0,0.0,0.0,0.0,0.0,0.0,0.0,0.0,0.0,0.0,0.0,0.0,0.0,0.0,0.0,0.0,0.0,0.0,0.0,0.0,0.0,0.0,0.0,0.0,0.0,0.0,0.0,0.0,0.0,0.0,0.0,0.0,0.0,0.0,0.0,0.0,0.0,0.0,0.0,0.0,0.0,0.0,0.0,0.0,0.0,0.0,0.0,0.0,0.0,0.0,0.0,0.0,0.0,0.0,0.0,0.0,0.0,0.0,0.0,0.0,0.0,0.0,0.0,0.0,0.0,0.0,0.0,0.0,0.0,0.0,0.0,0.0,0.0,0.0,0.0,0.0,0.0,0.0,0.0,0.0,0.0,0.0,0.0,0.0,0.0,0.0,0.0,0.0,0.0,0.0,0.0,0.0,0.0,0.0,0.0,0.0,0.0,0.0,0.0,0.0,0.0,0.0,0.0,0.0,0.0,0.0,0.0,0.0,0.0,0.0,0.0,0.0,0.0,0.0,0.0,0.0,0.0,0.0,0.0,0.0,0.0,0.0,0.0,0.0,0.0,0.0,0.0,0.0,0.0,0.0,0.0,0.0,0.0,0.0,0.0,0.0,0.0,0.0,0.0,0.0,0.0,0.0,0.0,0.0,0.0,0.0,0.0,0.0,0.0,0.0,0.0,0.0,0.0,0.0,0.0,0.0,0.0,0.0,0.0,0.0,0.0,0.0,0.0,0.0,0.0,0.0,0.0,0.0,0.0,0.0,0.0,0.0,0.0,0.0,0.0,0.0,0.0,0.0,0.0,0.0,0.0,0.0,0.0,0.0,0.0,0.0,0.0,0.0,0.0,0.0,0.0,0.0,0.0,0.0,0.0,0.0,0.0,0.0,0.0,0.0,0.0,0.0,0.0,0.0,0.0,0.0,0.0,0.0,0.0,0.0,0.0,0.0,0.0,0.0,0.0,0.0,0.0,0.0,0.0,0.0,0.0,0.0,0.0,0.0,0.0,0.0,0.0,0.0,0.0,0.0,0.0,0.0,0.0,0.0,0.0,0.0,0.0,0.0,0.0,0.0,0.0,0.0,0.0,0.0,0.0,0.0,0.0,0.0,0.0,0.0,0.0,0.0,0.0,0.0,0.0,0.0,0.0,0.0,0.0,0.0,0.0,0.0,0.0,0.0,0.0,0.0,0.0,0.0,0.0,0.0,0.0,0.0,0.0,0.0,0.0,0.0,0.0,0.0,0.0,0.0,0.0,0.0,0.0,0.0,0.0,0.0,0.0,0.0,0.0,0.0,0.0,0.0,0.0,0.0,0.0,0.0,0.0,0.0,0.0,0.0,0.0,0.0,0.0,0.0,0.0,0.0,0.0,0.0,0.0,0.0,0.0,0.0,0.0,0.0,0.0,0.0,0.0,0.0,0.0,-1.0084,0.0,0.0,0.0,0.0,0.0,0.0,0.0,0.0,0.0,0.0,0.0,0.0,0.0,0.0,0.0,0.0,0.0,0.0,0.0,0.0,0.0,0.0,0.0,0.0,0.0,0.0,0.0,0.0,0.0,0.0,0.0,0.0,0.0,0.0,0.0,0.0,0.0,0.0,0.0,0.0,0.0,0.0,0.0,0.0,0.0,0.0,0.0,0.0,0.0,0.0,0.0,0.0,0.0,0.0,0.0,0.0,0.0,0.0,0.0,0.0,0.0,0.0,0.0,0.0,0.0,0.0,0.0,0.0,0.0,0.0,0.0,0.0,0.0,0.0,0.0,0.0,0.0,0.0,0.0,0.0,0.0,0.0,0.0,0.0,0.0,0.0,0.0,0.0,0.0,0.0,0.0,0.0,0.0,0.0,0.0,0.0,0.0,0.0,0.0,0.0,0.0,0.0,0.0,0.0,0.0,0.0,0.0,0.0,0.0,0.0,-1.1749,-1.0502,-1.0424,-1.0349,-1.0211,0.0,0.0,0.0,0.0,0.0,0.0,0.0,0.0,0.0,0.0,0.0,0.0,0.0,0.0,0.0,0.0,0.0,0.0,0.0,0.0,0.0,0.0,0.0,0.0,0.0,0.0,0.0,0.0,0.0,0.0,0.0,0.0,0.0,0.0,0.0,0.0,0.0,0.0,0.0,0.0,0.0,0.0,0.0,0.0,0.0,0.0,0.0,0.0,0.0,0.0,0.0,0.0,0.0,0.0,0.0,0.0,0.0,0.0,0.0,0.0,0.0,0.0,0.0,0.0,0.0,0.0,0.0,0.0,0.0,0.0,0.0,0.0,0.0,0.0,0.0,0.0,0.0,0.0,0.0,0.0,0.0,0.0,0.0,0.0,0.0,0.0,0.0,0.0,0.0,0.0,0.0,0.0,0.0,0.0,0.0,0.0,0.0,0.0,0.0,0.0,0.0,0.0,0.0,0.0,0.0,0.0,0.0,0.0,0.0,0.0,0.0,0.0,-1.0498,-1.0424,-1.0299,0.0,0.0,0.0,0.0,0.0,0.0,0.0,0.0,0.0,0.0,0.0,0.0,0.0,0.0,0.0,0.0,0.0,0.0,0.0,0.0,0.0,0.0,0.0,0.0,0.0,0.0,0.0,0.0,0.0,0.0,0.0,0.0,0.0,0.0,0.0,0.0,0.0,0.0,0.0,0.0,0.0,0.0,0.0,0.0,0.0,0.0,0.0,0.0,0.0,0.0,0.0,0.0,0.0,0.0,0.0,0.0,0.0,0.0,0.0,0.0,0.0,0.0,0.0,0.0,0.0,0.0,0.0,0.0,0.0,0.0,0.0,0.0,0.0,0.0,0.0,0.0,0.0,0.0,0.0,0.0,0.0,0.0,0.0,0.0,0.0,0.0,0.0,0.0,0.0,0.0,0.0,0.0,0.0,0.0,0.0,0.0,0.0,0.0,0.0,0.0,0.0,0.0,0.0,0.0,0.0,0.0,0.0,0.0,0.0,0.0,-1.1484,-1.0804,-1.0705,0.0,-1.0312,0.0,0.0,0.0,0.0,0.0,0.0,0.0,0.0,0.0,0.0,0.0,0.0,0.0,0.0,0.0,0.0,0.0,0.0,0.0,0.0,0.0,0.0,0.0,0.0,0.0,0.0,0.0,0.0,0.0,0.0,0.0,0.0,0.0,0.0,0.0,0.0,0.0,0.0,0.0,0.0,0.0,0.0,0.0,0.0,0.0,0.0,0.0,0.0,0.0,0.0,0.0,0.0,0.0,0.0,0.0,0.0,0.0,0.0,0.0,0.0,0.0,0.0,0.0,0.0,0.0,0.0,0.0,0.0,0.0,0.0,0.0,0.0,0.0,0.0,0.0,0.0,0.0,0.0,0.0,0.0,0.0,0.0,0.0,0.0,0.0,0.0,0.0,0.0,0.0,0.0,0.0,0.0,0.0,0.0,0.0,0.0,0.0,0.0,0.0,0.0,0.0,0.0,0.0,0.0,0.0,0.0,0.0,0.0,0.0,0.0,-1.1442,-1.0828,-1.0694,-1.0548,0.0,0.0,0.0,0.0,0.0,0.0,0.0,0.0,0.0,0.0,0.0,0.0,0.0,0.0,0.0,0.0,0.0,0.0,0.0,0.0,0.0,0.0,0.0,0.0,0.0,0.0,0.0,0.0,0.0,0.0,0.0,0.0,0.0,0.0,0.0,0.0,0.0,0.0,0.0,0.0,0.0,0.0,0.0,0.0,0.0,0.0,0.0,0.0,0.0,0.0,0.0,0.0,0.0,0.0,0.0,0.0,0.0,0.0,0.0,0.0,0.0,0.0,0.0,0.0,0.0,0.0,0.0,0.0,0.0,0.0,0.0,0.0,0.0,0.0,0.0,0.0,0.0,0.0,0.0,0.0,0.0,0.0,0.0,0.0,0.0,0.0,0.0,0.0,0.0,0.0,0.0,0.0,0.0,0.0,0.0,0.0,0.0,0.0,0.0,0.0,0.0,0.0,0.0,0.0,0.0,0.0,0.0,0.0,0.0,0.0,-1.1617,-1.1264,-1.0804,-1.0705,-1.0583,-1.0449,0.0,0.0,0.0,0.0,0.0,0.0,0.0,0.0,0.0,0.0,0.0,0.0,0.0,0.0,0.0,0.0,0.0,0.0,0.0,0.0,0.0,0.0,0.0,0.0,0.0,0.0,0.0,0.0,0.0,0.0,0.0,0.0,0.0,0.0,0.0,0.0,0.0,0.0,0.0,0.0,0.0,0.0,0.0,0.0,0.0,0.0,0.0,0.0,0.0,0.0,0.0,0.0,0.0,0.0,0.0,0.0,0.0,0.0,0.0,0.0,0.0,0.0,0.0,0.0,0.0,0.0,0.0,0.0,0.0,0.0,0.0,0.0,0.0,0.0,0.0,0.0,0.0,0.0,0.0,0.0,0.0,0.0,0.0,0.0,0.0,0.0,0.0,0.0,0.0,0.0,0.0,0.0,0.0,0.0,0.0,0.0,0.0,0.0,0.0,0.0,0.0,0.0,0.0,0.0,0.0,0.0,0.0,0.0,-1.178,-1.1242,-1.09,-1.0801,-1.0815,-1.0729,0.0,0.0,0.0,0.0,0.0,0.0,0.0,0.0,0.0,0.0,0.0,0.0,0.0,0.0,0.0,0.0,0.0,0.0,0.0,0.0,0.0,0.0,0.0,0.0,0.0,0.0,0.0,0.0,0.0,0.0,0.0,0.0,0.0,0.0,0.0,0.0,0.0,0.0,0.0,0.0,0.0,0.0,0.0,0.0,0.0,0.0,0.0,0.0,0.0,0.0,0.0,0.0,0.0,0.0,0.0,0.0,0.0,0.0,0.0,0.0,0.0,0.0,0.0,0.0,0.0,0.0,0.0,0.0,0.0,0.0,0.0,0.0,0.0,0.0,0.0,0.0,0.0,0.0,0.0,0.0,0.0,0.0,0.0,0.0,0.0,0.0,0.0,0.0,0.0,0.0,0.0,0.0,0.0,0.0,0.0,0.0,0.0,0.0,0.0,0.0,0.0,0.0,0.0,0.0,0.0,0.0,0.0,0.0,0.0,-1.1214,-1.0997,-1.0815,-1.0729,-1.0729,-1.0694,0.0,0.0,0.0,0.0,0.0,0.0,0.0,0.0,0.0,0.0,0.0,0.0,0.0,0.0,0.0,0.0,0.0,0.0,0.0,0.0,0.0,0.0,0.0,0.0,0.0,0.0,0.0,0.0,0.0,0.0,0.0,0.0,0.0,0.0,0.0,0.0,0.0,0.0,0.0,0.0,0.0,0.0,0.0,0.0,0.0,0.0,0.0,0.0,0.0,0.0,0.0,0.0,0.0,0.0,0.0,0.0,0.0,0.0,0.0,0.0,0.0,0.0,0.0,0.0,0.0,0.0,0.0,0.0,0.0,0.0,0.0,0.0,0.0,0.0,0.0,0.0,0.0,0.0,0.0,0.0,0.0,0.0,0.0,0.0,0.0,0.0,0.0,0.0,0.0,0.0,0.0,0.0,0.0,0.0,0.0,0.0,0.0,0.0,0.0,0.0,0.0,0.0,0.0,0.0,0.0,0.0,0.0,0.0,0.0,-1.0825,0.0,-1.0753,-1.0718,-1.0718,-1.067,0.0,0.0,0.0,0.0,0.0,0.0,0.0,0.0,0.0,0.0,0.0,0.0,0.0,0.0,0.0,0.0,0.0,0.0,0.0,0.0,0.0,0.0,0.0,0.0,0.0,0.0,0.0,0.0,0.0,0.0,0.0,0.0,0.0,0.0,0.0,0.0,0.0,0.0,0.0,0.0,0.0,0.0,0.0,0.0,0.0,0.0,0.0,0.0,0.0,0.0,0.0,0.0,0.0,0.0,0.0,0.0,0.0,0.0,0.0,0.0,0.0,0.0,0.0,0.0,0.0,0.0,0.0,0.0,0.0,0.0,0.0,0.0,0.0,0.0,0.0,0.0,0.0,0.0,0.0,0.0,0.0,0.0,0.0,0.0,0.0,0.0,0.0,0.0,0.0,0.0,0.0,0.0,0.0,0.0,0.0,0.0,0.0,0.0,0.0,0.0,0.0,0.0,0.0,0.0,0.0,0.0,0.0,0.0,-1.0718,-1.0718,-1.0721,-1.08,-1.0745,-1.0759,-1.0683,0.0,0.0,0.0,0.0,0.0,0.0,0.0,0.0,0.0,0.0,0.0,0.0,0.0,0.0,0.0,0.0,0.0,0.0,0.0,0.0,0.0,0.0,0.0,0.0,0.0,0.0,0.0,0.0,0.0,0.0,0.0,0.0,0.0,0.0,0.0,0.0,0.0,0.0,0.0,0.0,0.0,0.0,0.0,0.0,0.0,0.0,0.0,0.0,0.0,0.0,0.0,0.0,0.0,0.0,0.0,0.0,0.0,0.0,0.0,0.0,0.0,0.0,0.0,0.0,0.0,0.0,0.0,0.0,0.0,0.0,0.0,0.0,0.0,0.0,0.0,0.0,0.0,0.0,0.0,0.0,0.0,0.0,0.0,0.0,0.0,0.0,0.0,0.0,0.0,0.0,0.0,0.0,0.0,0.0,0.0,0.0,0.0,0.0,0.0,0.0,0.0,0.0,0.0,0.0,0.0,0.0,0.0,0.0,0.0,-1.1329,-1.1723,-1.1926,-1.1926,-1.1546,-1.1106,0.0,0.0,0.0,0.0,0.0,0.0,0.0,0.0,0.0,0.0,0.0,0.0,0.0,0.0,0.0,0.0,0.0,0.0,0.0,0.0,0.0,0.0,0.0,0.0,0.0,0.0,0.0,0.0,0.0,0.0,0.0,0.0,0.0,0.0,0.0,0.0,0.0,0.0,0.0,0.0,0.0,0.0,0.0,0.0,0.0,0.0,0.0,0.0,0.0,0.0,0.0,0.0,0.0,0.0,0.0,0.0,0.0,0.0,0.0,0.0,0.0,0.0,0.0,0.0,0.0,0.0,0.0,0.0,0.0,0.0,0.0,0.0,0.0,0.0,0.0,0.0,0.0,0.0,0.0,0.0,0.0,0.0,0.0,0.0,0.0,0.0,0.0,0.0,0.0,0.0,0.0,0.0,0.0,0.0,0.0,0.0,0.0,0.0,0.0,0.0,0.0,0.0,0.0,0.0,0.0,0.0,0.0,0.0,0.0,-1.2662,-1.255,-1.2508,-1.2508,-1.2115,-1.1603,-1.0925,0.0,0.0,0.0,0.0,0.0,0.0,0.0,0.0,0.0,0.0,0.0,0.0,0.0,0.0,0.0,0.0,0.0,0.0,0.0,0.0,0.0,0.0,0.0,0.0,0.0,0.0,0.0,0.0,0.0,0.0,0.0,0.0,0.0,0.0,0.0,0.0,0.0,0.0,0.0,0.0,0.0,0.0,0.0,0.0,0.0,0.0,0.0,0.0,0.0,0.0,0.0,0.0,0.0,0.0,0.0,0.0,0.0,0.0,0.0,0.0,0.0,0.0,0.0,0.0,0.0,0.0,0.0,0.0,0.0,0.0,0.0,0.0,0.0,0.0,0.0,0.0,0.0,0.0,0.0,0.0,0.0,0.0,0.0,0.0,0.0,0.0,0.0,0.0,0.0,0.0,0.0,0.0,0.0,0.0,0.0,0.0,0.0,0.0,0.0,0.0,0.0,0.0,0.0,0.0,0.0,0.0,0.0,0.0,-1.452,-1.3313,-1.2711,-1.2684,-1.2643,-1.2236,0.0,0.0,0.0,0.0,0.0,0.0,0.0,0.0,0.0,0.0,0.0,0.0,0.0,0.0,0.0,0.0,0.0,0.0,0.0,0.0,0.0,0.0,0.0,0.0,0.0,0.0,0.0,0.0,0.0,0.0,0.0,0.0,0.0,0.0,0.0,0.0,0.0,0.0,0.0,0.0,0.0,0.0,0.0,0.0,0.0,0.0,0.0,0.0,0.0,0.0,0.0,0.0,0.0,0.0,0.0,0.0,0.0,0.0,0.0,0.0,0.0,0.0,0.0,0.0,0.0,0.0,0.0,0.0,0.0,0.0,0.0,0.0,0.0,0.0,0.0,0.0,0.0,0.0,0.0,0.0,0.0,0.0,0.0,0.0,0.0,0.0,0.0,0.0,0.0,0.0,0.0,0.0,0.0,0.0,0.0,0.0,0.0,0.0,0.0,0.0,0.0,0.0,0.0,0.0,0.0,0.0,0.0,0.0,0.0,-1.5017,-1.5121,-1.4985,-1.4569,-1.4101,-1.3293,0.0,0.0,0.0,0.0,0.0,0.0,0.0,0.0,0.0,0.0,0.0,0.0,0.0,0.0,0.0,0.0,0.0,0.0,0.0,0.0,0.0,0.0,0.0,0.0,0.0,0.0,0.0,0.0,0.0,0.0,0.0,0.0,0.0,0.0,0.0,0.0,0.0,0.0,0.0,0.0,0.0,0.0,0.0,0.0,0.0,0.0,0.0,0.0,0.0,0.0,0.0,0.0,0.0,0.0,0.0,0.0,0.0,0.0,0.0,0.0,0.0,0.0,0.0,0.0,0.0,0.0,0.0,0.0,0.0,0.0,0.0,0.0,0.0,0.0,0.0,0.0,0.0,0.0,0.0,0.0,0.0,0.0,0.0,0.0,0.0,0.0,0.0,0.0,0.0,0.0,0.0,0.0,0.0,0.0,0.0,0.0,0.0,0.0,0.0,0.0,0.0,0.0,0.0,0.0,0.0,0.0,0.0,0.0,-1.4433,-1.573,-1.6268,-1.6441,-1.6228,-1.5216,-1.4097,0.0,0.0,0.0,0.0,0.0,0.0,0.0,0.0,0.0,0.0,0.0,0.0,0.0,0.0,0.0,0.0,0.0,0.0,0.0,0.0,0.0,0.0,0.0,0.0,0.0,0.0,0.0,0.0,0.0,0.0,0.0,0.0,0.0,0.0,0.0,0.0,0.0,0.0,0.0,0.0,0.0,0.0,0.0,0.0,0.0,0.0,0.0,0.0,0.0,0.0,0.0,0.0,0.0,0.0,0.0,0.0,0.0,0.0,0.0,0.0,0.0,0.0,0.0,0.0,0.0,0.0,0.0,0.0,0.0,0.0,0.0,0.0,0.0,0.0,0.0,0.0,0.0,0.0,0.0,0.0,0.0,0.0,0.0,0.0,0.0,0.0,0.0,0.0,0.0,0.0,0.0,0.0,0.0,0.0,0.0,0.0,0.0,0.0,0.0,0.0,0.0,0.0,0.0,0.0,0.0,0.0,0.0,0.0,-1.5039,-1.636,-1.6927,-1.7322,-1.7534,-1.6129,-1.4754,0.0,0.0,0.0,0.0,0.0,0.0,0.0,0.0,0.0,0.0,0.0,0.0,0.0,0.0,0.0,0.0,0.0,0.0,0.0,0.0,0.0,0.0,0.0,0.0,0.0,0.0,0.0,0.0,0.0,0.0,0.0,0.0,0.0,0.0,0.0,0.0,0.0,0.0,0.0,0.0,0.0,0.0,0.0,0.0,0.0,0.0,0.0,0.0,0.0,0.0,0.0,0.0,0.0,0.0,0.0,0.0,0.0,0.0,0.0,0.0,0.0,0.0,0.0,0.0,0.0,0.0,0.0,0.0,0.0,0.0,0.0,0.0,0.0,0.0,0.0,0.0,0.0,0.0,0.0,0.0,0.0,0.0,0.0,0.0,0.0,0.0,0.0,0.0,0.0,0.0,0.0,0.0,0.0,0.0,0.0,0.0,0.0,0.0,0.0,0.0,0.0,0.0,0.0,0.0,0.0,0.0,0.0,0.0,-1.5449,-1.6374,-1.7325,-1.7928,-1.8124,-1.6844,-1.5586,0.0,0.0,0.0,0.0,0.0,0.0,0.0,0.0,0.0,0.0,0.0,0.0,0.0,0.0,0.0,0.0,0.0,0.0,0.0,0.0,0.0,0.0,0.0,0.0,0.0,0.0,0.0,0.0,0.0,0.0,0.0,0.0,0.0,0.0,0.0,0.0,0.0,0.0,0.0,0.0,0.0,0.0,0.0,0.0,0.0,0.0,0.0,0.0,0.694,0.0,0.0,0.0,0.0,0.0,0.0,0.0,0.0,0.0,0.0,0.0,0.0,0.0,0.0,0.0,0.0,0.0,0.0,0.0,0.0,0.0,0.0,0.0,0.0,0.0,0.0,0.0,0.0,0.0,0.0,0.0,0.0,0.0,0.0,0.0,0.0,0.0,0.0,0.0,0.0,0.0,0.0,0.0,0.0,0.0,0.0,0.0,0.0,0.0,0.0,0.0,0.0,0.0,0.0,0.0,0.0,0.0,0.0,0.0,-1.6066,-1.683,-1.7667,-1.8214,-1.833,-1.7176,-1.6104,0.0,0.0,0.0,0.0,0.0,0.0,0.0,0.0,0.0,0.0,0.0,0.0,0.0,0.0,0.0,0.0,0.0,0.0,0.0,0.0,0.0,0.0,0.0,0.0,0.0,0.0,0.0,0.0,0.0,0.0,0.0,0.0,0.0,0.0,0.0,0.0,0.0,0.0,0.0,0.0,0.0,0.0,0.0,0.0,0.0,0.0,0.0,0.0,0.0,0.0,0.0,0.0,0.0,0.0,0.0,0.0,0.0,0.0,0.0,0.0,0.0,0.0,0.0,0.0,0.0,0.0,0.0,0.0,0.0,0.0,0.0,0.0,0.0,0.0,0.0,0.0,0.0,0.0,0.0,0.0,0.0,0.0,0.0,0.0,0.0,0.0,0.0,0.0,0.0,0.0,0.0,0.0,0.0,0.0,0.0,0.0,0.0,0.0,0.0,0.0,0.0,0.0,0.0,0.0,0.0,0.0,0.0,-1.5346,-1.6546,-1.7315,-1.7885,-1.8321,-1.8464,-1.7323,-1.6347,-1.5622,0.0,0.0,0.0,0.0,0.0,0.0,0.0,0.0,0.0,0.0,0.0,0.0,0.0,0.0,0.0,0.0,0.0,0.0,0.0,0.0,0.0,0.0,0.0,0.0,0.0,0.0,0.0,0.0,0.0,0.0,0.0,0.0,0.0,0.0,0.0,0.0,0.0,0.0,0.4346,0.4792,0.0,0.0,0.0,0.0,0.0,0.0,0.0,0.0,0.7505,0.0,0.0,0.0,0.0,0.0,0.0,0.0,0.0,0.0,0.0,0.0,0.0,0.0,0.0,0.0,0.0,0.0,0.0,0.0,0.0,0.0,0.0,0.0,0.0,0.0,0.0,0.0,0.0,0.0,0.0,0.0,0.0,0.0,0.0,0.0,0.0,0.0,0.0,0.0,0.0,0.0,0.0,0.0,0.0,0.0,0.0,0.0,0.0,0.0,0.0,0.0,0.0,0.0,0.0,0.0,0.0,-1.4516,-1.562,-1.6619,-1.7441,-1.7924,-1.8321,-1.845,-1.7337,-1.6347,-1.5561,0.0,0.0,0.0,0.0,0.0,0.0,0.0,0.0,0.0,0.0,0.0,0.0,0.0,0.0,0.0,0.0,0.0,0.0,0.0,0.0,0.0,0.0,0.0,0.0,0.0,0.0,0.0,0.0,0.0,0.0,0.0,0.0,0.0,0.0,0.0,0.0,0.0,0.0,0.0,0.5561,0.5686,0.0,0.0,0.0,0.0,0.0,0.0,0.0,0.0,0.7766,0.0,0.0,0.0,0.0,0.0,0.0,0.0,0.0,0.0,0.0,0.0,0.0,0.0,0.0,0.0,0.0,0.0,0.0,0.0,0.0,0.0,0.0,0.0,0.0,0.0,0.0,0.0,0.0,0.0,0.0,0.0,0.0,0.0,0.0,0.0,0.0,0.0,0.0,0.0,0.0,0.0,0.0,0.0,0.0,0.0,0.0,0.0,0.0,0.0,0.0,0.0,0.0,0.0,0.0,0.0,-1.5193,-1.627,-1.72,-1.7873,-1.8076,-1.8282,-1.8464,-1.7323,-1.6347,0.0,0.0,0.0,0.0,0.0,0.0,0.0,0.0,0.0,0.0,0.0,0.0,0.0,0.0,0.0,0.0,0.0,0.0,0.0,0.0,0.0,0.0,0.0,0.0,0.0,0.0,0.0,0.0,0.0,0.0,0.0,0.0,0.0,0.0,0.0,0.0,0.0,0.0,0.0,0.0,0.6097,0.6299,0.6919,0.0,0.0,0.0,0.0,0.0,0.0,0.7733,0.7851,0.0,0.0,0.0,0.0,0.0,0.0,0.0,0.0,0.0,0.0,0.0,0.0,0.0,0.0,0.0,0.0,0.0,0.0,0.0,0.0,0.0,0.0,0.0,0.0,0.0,0.0,0.0,0.0,0.0,0.0,0.0,0.0,0.0,0.0,0.0,0.0,0.0,0.0,0.0,0.0,0.0,0.0,0.0,0.0,0.0,0.0,0.0,0.0,0.0,0.0,0.0,0.0,0.0,0.0,0.0,-1.6107,-1.711,-1.7995,-1.8693,-1.8642,-1.8613,-1.8647,-1.752,-1.6417,0.0,0.0,0.0,0.0,0.0,0.0,0.0,0.0,0.0,0.0,0.0,0.0,0.0,0.0,0.0,0.0,0.0,0.0,0.0,0.0,0.0,0.0,0.0,0.0,0.0,0.0,0.0,0.0,0.0,0.0,0.0,0.0,0.0,0.0,0.0,0.0,0.0,0.0,0.0,0.0,0.0,0.6982,0.7355,0.7205,0.0,0.0,0.0,0.0,0.7581,0.7799,0.0,0.0,0.0,0.0,0.0,0.0,0.0,0.0,0.0,0.0,0.0,0.0,0.0,0.0,0.0,0.0,0.0,0.0,0.0,0.0,0.0,0.0,0.0,0.0,0.0,0.0,0.0,0.0,0.0,0.0,0.0,0.0,0.0,0.0,0.0,0.0,0.0,0.0,0.0,0.0,0.0,0.0,0.0,0.0,0.0,0.0,0.0,0.0,0.0,0.0,0.0,0.0,0.0,0.0,0.0,0.0,-1.7512,-1.8078,-1.8941,-2.0063,-2.0019,-1.9754,-1.9291,-1.8138,-1.6606,0.0,0.0,0.0,0.0,0.0,0.0,0.0,0.0,0.0,0.0,0.0,0.0,0.0,0.0,0.0,0.0,0.0,0.0,0.0,0.0,0.0,0.0,0.0,0.0,0.0,0.0,0.0,0.0,0.0,0.0,0.0,0.0,0.0,0.0,0.0,0.0,0.0,0.0,0.0,0.0,0.0,0.7764,0.811,0.7546,0.7294,0.0,0.0,0.7256,0.7565,0.7872,0.0,0.0,0.0,0.0,0.0,0.0,0.0,0.0,0.0,0.0,0.0,0.0,0.0,0.0,0.0,0.0,0.0,0.0,0.0,0.0,0.0,0.0,0.0,0.0,0.0,0.0,0.0,0.0,0.0,0.0,0.0,0.0,0.0,0.0,0.0,0.0,0.0,0.0,0.0,0.0,0.0,0.0,0.0,0.0,0.0,0.0,0.0,0.0,0.0,0.0,0.0,0.0,0.0,0.0,0.0,-1.658,-1.82,-1.8753,-1.9432,-2.0358,-2.0286,-1.9936,-1.9404,-1.8588,-1.718,0.0,0.0,0.0,0.0,0.0,0.0,0.0,0.0,0.0,0.0,0.0,0.0,0.0,0.0,0.0,0.0,0.0,0.0,0.0,0.0,0.0,0.0,0.0,0.0,0.0,0.0,0.0,0.0,0.0,0.0,0.0,0.0,0.0,0.0,0.0,0.0,0.0,0.0,0.0,0.0,0.0,0.0,0.7734,0.7482,0.0,0.0,0.0,0.7446,0.7423,0.0,0.0,0.0,0.0,0.0,0.0,0.0,0.0,0.0,0.0,0.0,0.0,0.0,0.0,0.0,0.0,0.0,0.0,0.0,0.0,0.0,0.0,0.0,0.0,0.0,0.0,0.0,0.0,0.0,0.0,0.0,0.0,0.0,0.0,0.0,0.0,0.0,0.0,0.0,0.0,0.0,0.0,0.0,0.0,0.0,0.0,0.0,0.0,0.0,0.0,0.0,0.0,0.0,0.0,0.0,0.0,0.0,-1.8829,-1.9387,-2.0091,-2.0865,-2.0778,-2.0512,-1.995,-1.919,0.0,0.0,0.0,0.0,0.0,0.0,0.0,0.0,0.0,0.0,0.0,0.0,0.0,0.0,0.0,0.0,0.0,0.0,0.0,0.0,0.0,0.0,0.0,0.0,0.0,0.0,0.0,-0.0341,0.0,0.0,0.0,0.0,0.0,0.0,0.0,0.0,0.0,0.0,0.0,0.0,0.0,0.0,0.6645,0.718,0.7216,0.7194,0.0,0.0,0.7296,0.7195,0.7383,0.7548,0.0,0.0,0.0,0.0,0.0,0.0,0.0,0.0,0.0,0.0,0.0,0.0,0.0,0.0,0.0,0.0,0.0,0.0,0.0,0.0,0.0,0.0,0.0,0.0,0.0,0.0,0.0,0.0,0.0,0.0,0.0,0.0,0.0,0.0,0.0,0.0,0.0,0.0,0.0,0.0,0.0,0.0,0.0,0.0,0.0,0.0,0.0,0.0,0.0,0.0,0.0,0.0,0.0,0.0,0.0,-1.9561,-2.0146,-2.1039,-2.2186,-2.2257,-2.2005,-2.1454,-2.0216,-1.862,0.0,0.0,0.0,0.0,0.0,0.0,0.0,0.0,0.0,0.0,0.0,0.0,0.0,0.0,0.0,0.0,0.0,0.0,0.0,0.0,0.0,0.0,0.0,0.0,0.0,0.0,0.0,0.0,0.0,0.0,0.0,0.0,0.0,0.0,0.0,0.0,0.0,0.0,0.0,0.0,0.0,0.6522,0.6794,0.6756,0.681,0.0,0.0,0.6473,0.6684,0.6789,0.6863,0.7151,0.0,0.0,0.0,0.0,0.0,0.0,0.0,0.0,0.0,0.0,0.0,0.0,0.0,0.0,0.0,0.0,0.0,0.0,0.0,0.0,0.0,0.0,0.0,0.0,0.0,0.0,0.0,0.0,0.0,0.0,0.0,0.0,0.0,0.0,0.0,0.0,0.0,0.0,0.0,0.0,0.0,0.0,0.0,0.0,0.0,0.0,0.0,0.0,0.0,0.0,0.0,0.0,0.0,-1.8238,-2.0174,-2.0401,-2.1124,-2.2314,-2.2417,-2.2119,-2.1597,-2.1054,-1.9836,0.0,0.0,0.0,0.0,0.0,0.0,0.0,0.0,0.0,0.0,0.0,0.0,0.0,0.0,0.0,0.0,0.0,0.0,0.0,0.0,0.0,0.0,0.0,0.0,0.0,0.0,0.0,0.0,-0.0881,-0.0525,-0.0,0.0,0.0,0.0,0.0,0.0,0.0,0.0,0.0,0.0,0.0,0.5438,0.5777,0.5906,0.0,0.0,0.5882,0.5911,0.5958,0.6027,0.6122,0.6299,0.6329,0.0,0.0,0.0,0.0,0.0,0.0,0.0,0.0,0.0,0.0,0.0,0.0,0.0,0.0,0.0,0.0,0.0,0.0,0.0,0.0,0.0,0.0,0.0,0.0,0.0,0.0,0.0,0.0,0.0,0.0,0.0,0.0,0.0,0.0,0.0,0.0,0.0,0.0,0.0,0.0,0.0,0.0,0.0,0.0,0.0,0.0,0.0,0.0,0.0,0.0,0.0,0.0,-1.8462,-2.0739,-2.0684,-2.1283,-2.2526,-2.2555,-2.24,-2.2015,-2.1755,-2.0855,0.0,0.0,0.0,0.0,0.0,0.0,0.0,0.0,0.0,0.0,0.0,0.0,0.0,0.0,0.0,0.0,0.0,0.0,0.0,0.0,0.0,0.0,0.0,0.0,0.0,0.0,0.0,0.0,-0.1551,-0.1268,-0.0731,0.0,0.0,0.0,0.0,0.0,0.0,0.0,0.0,0.0,0.0,0.4332,0.4569,0.4856,0.5022,0.4908,0.5024,0.5101,0.5204,0.5242,0.54,0.5574,0.0,0.0,0.0,0.0,0.0,0.0,0.0,0.0,0.0,0.0,0.0,0.0,0.0,0.0,0.0,0.0,0.0,0.0,0.0,0.0,0.0,0.0,0.0,0.0,0.0,0.0,0.0,0.0,0.0,0.0,-1.2116,0.0,0.0,0.0,0.0,0.0,0.0,0.0,0.0,0.0,0.0,0.0,0.0,0.0,0.0,0.0,0.0,0.0,0.0,0.0,0.0,0.0,0.0,-1.8785,-2.1245,-2.1099,-2.1627,-2.2846,-2.2889,-2.2889,-2.2844,-2.2191,-2.1456,-2.0641,0.0,0.0,0.0,0.0,0.0,0.0,0.0,0.0,0.0,0.0,0.0,0.0,0.0,0.0,0.0,0.0,0.0,0.0,0.0,0.0,0.0,0.0,0.0,0.0,0.0,0.0,-0.2586,-0.2303,-0.198,0.0,0.0,0.0,0.0,0.0,0.0,0.0,0.0,0.0,0.0,0.2923,0.3313,0.3372,0.3632,0.3883,0.4022,0.3969,0.4069,0.4462,0.447,0.4587,0.0,0.0,0.0,0.0,0.0,0.0,0.0,0.0,0.0,0.0,0.0,0.0,0.0,0.0,0.0,0.0,0.0,0.0,0.0,0.0,0.0,0.0,0.0,0.0,0.0,0.0,0.0,-1.3768,-1.3717,0.0,0.0,0.0,0.0,0.0,0.0,0.0,0.0,0.0,0.0,0.0,-2.077,-2.0863,0.0,0.0,0.0,0.0,0.0,0.0,0.0,0.0,0.0,0.0,0.0,0.0,-1.9682,-2.1609,-2.2094,-2.267,-2.3348,-2.3275,-2.326,-2.3275,-2.2804,-2.196,-2.0712,0.0,0.0,0.0,0.0,0.0,0.0,0.0,0.0,0.0,0.0,0.0,0.0,0.0,0.0,0.0,0.0,0.0,0.0,0.0,0.0,0.0,0.0,0.0,0.0,0.0,-0.3899,0.0,0.0,0.0,0.0,0.0,0.0,0.0,0.0,0.0,0.0,0.0,0.1025,0.1354,0.1675,0.2007,0.2456,0.2542,0.2713,0.0,0.0,0.0,0.0,0.0,0.0,0.0,0.0,0.0,0.0,0.0,0.0,0.0,0.0,0.8967,0.8611,0.8829,0.9154,0.9466,0.0,0.0,0.0,0.0,0.0,0.0,0.0,0.0,0.0,0.0,0.0,0.0,0.0,0.0,-1.6658,0.0,-1.6286,0.0,0.0,0.0,0.0,0.0,0.0,0.0,0.0,-2.2075,-2.3109,-2.3864,-2.3754,-2.3553,0.0,-2.3073,-2.1911,0.0,0.0,0.0,0.0,0.0,0.0,0.0,0.0,-2.0465,-2.2276,-2.2979,-2.3498,-2.3834,-2.3709,-2.361,-2.3538,-2.3216,-2.2454,-2.1268,-1.9746,-1.8192,0.0,0.0,0.0,0.0,0.0,0.0,0.0,0.0,0.0,0.0,0.0,0.0,0.0,0.0,0.0,0.0,0.0,0.0,0.0,0.0,0.0,0.0,0.0,-0.4537,0.0,0.0,0.0,0.0,0.0,0.0,0.0,0.0,0.0,-0.1212,-0.0742,-0.0393,-0.0046,0.0325,0.0703,0.1155,0.0,0.0,0.0,0.0,0.0,0.0,0.0,0.2711,0.3206,0.3666,0.4101,0.4554,0.5105,0.5793,0.6611,0.0,0.0,0.8758,0.9074,0.9507,0.9818,1.0106,1.0391,1.0703,1.0981,1.1344,0.0,0.0,0.0,0.0,0.0,0.0,0.0,0.0,-2.1672,-2.1886,0.0,-2.1012,0.0,0.0,0.0,0.0,0.0,-2.1042,0.0,0.0,-2.4428,-2.5213,-2.5953,-2.5839,-2.5614,-2.5275,-2.5086,-2.4778,-2.4275,-2.1711,0.0,0.0,0.0,0.0,0.0,0.0,-2.1103,-2.3103,-2.3708,-2.413,-2.444,-2.4256,-2.3979,-2.3638,-2.3436,-2.298,-2.2306,-2.1571,-2.0289,-1.8317,-1.6814,0.0,0.0,0.0,0.0,0.0,0.0,0.0,0.0,0.0,0.0,0.0,0.0,0.0,0.0,0.0,0.0,0.0,0.0,0.0,0.0,-0.5813,0.0,0.0,0.0,0.0,0.0,0.0,0.0,0.0,0.0,0.0,-0.2959,-0.2333,-0.1876,-0.1748,0.0,0.0,0.0,0.0,0.0179,0.0359,0.0806,0.1256,0.1569,0.1657,0.1948,0.2775,0.0,0.0,0.4534,0.5042,0.5663,0.675,0.7745,0.8501,0.8985,0.9705,1.0383,1.0739,1.1098,1.1543,1.19,1.21,1.2488,-2.5284,0.0,0.0,0.0,0.0,-2.3845,-2.393,-2.3908,-2.4117,-2.4157,-2.4087,-2.3847,0.0,0.0,0.0,0.0,0.0,0.0,-2.5187,-2.6615,-2.683,-2.7309,-2.8026,-2.7912,-2.7687,-2.7344,-2.7067,-2.6557,-2.5754,-2.4791,-2.327,-2.1254,0.0,0.0,0.0,0.0,-2.301,-2.4511,-2.5179,-2.5403,-2.5329,-2.502,-2.4664,-2.4173,-2.4078,-2.3876,-2.3553,-2.2739,-2.1794,-2.075,-1.8752,0.0,0.0,0.0,0.0,0.0,0.0,0.0,0.0,0.0,0.0,0.0,0.0,0.0,0.0,0.0,0.0,0.0,0.0,0.0,-0.7745,-0.7139,-0.641,0.0,0.0,0.0,0.0,0.0,0.0,0.0,0.0,0.0,-0.4137,-0.3361,-0.2765,0.0,0.0,-0.1698,-0.1383,-0.1072,-0.0851,-0.0761,-0.0268,0.0,0.0,0.0642,0.0984,0.1423,0.2185,0.3044,0.3904,0.4738,0.5506,0.6101,0.7085,0.7935,0.852,0.9169,0.9844,1.0301,1.0758,1.1176,1.1572,1.191,1.2358,-2.928,-2.8971,-2.6434,-2.5346,-2.5309,-2.5329,-2.5301,-2.5274,-2.5611,-2.5707,-2.5705,-2.6009,-2.6106,-2.6027,-2.5914,0.0,0.0,0.0,-2.732,-2.8185,-2.8445,-2.8795,-2.9196,-2.9056,-2.885,-2.8597,-2.8298,-2.7807,-2.7126,-2.6917,-2.5877,-2.4005,0.0,0.0,-2.3209,-2.3592,-2.4391,-2.5493,-2.6101,-2.6245,-2.5977,-2.5535,-2.5098,-2.4719,-2.4695,-2.4574,-2.442,-2.3937,-2.3293,-2.2491,-2.0813,-1.9066,0.0,0.0,0.0,0.0,0.0,0.0,0.0,0.0,0.0,0.0,0.0,-0.9109,0.0,0.0,0.0,0.0,-0.9614,-0.9486,-0.8727,-0.829,0.0,0.0,0.0,0.0,0.0,0.0,0.0,-0.5601,-0.5644,-0.5663,-0.5499,-0.4862,-0.4172,-0.352,-0.3018,-0.2672,-0.2386,0.0,-0.1923,-0.1829,-0.1455,-0.108,-0.0797,-0.0527,-0.0098,0.0646,0.1565,0.2433,0.3084,0.4,0.4805,0.5434,0.623,0.707,0.7753,0.8375,0.9119,0.9939,1.0518,1.1006,1.1435,1.1815,1.2296,-3.3083,-3.2694,-2.7932,-2.5939,-2.5913,-2.5777,-2.5705,-2.5781,-2.6502,-2.6815,-2.6857,-2.7575,-2.7914,-2.7904,-2.7772,0.0,-2.758,-2.8289,-2.8555,-2.8563,-2.9307,-2.9636,-2.9622,-2.9494,-2.9373,-2.923,-2.8911,-2.867,-2.8543,-2.8353,-2.7861,-2.7112,-2.516,-2.4471,-2.5023,-2.5023,-2.5419,-2.6134,-2.6614,-2.6708,-2.6453,-2.5815,-2.5427,-2.5291,-2.5291,-2.5214,-2.502,-2.5137,-2.4773,-2.3717,-2.2786,-2.1299,-1.906,0.0,0.0,0.0,0.0,0.0,0.0,0.0,0.0,0.0,0.0,0.0,0.0,0.0,0.0,0.0,-1.102,0.0,-0.9787,-0.9389,0.0,0.0,0.0,-0.6893,-0.6804,-0.6796,-0.6807,-0.694,0.0,0.0,-0.6919,-0.6605,-0.5904,-0.4597,-0.3913,-0.3528,-0.3503,-0.326,-0.3013,-0.2846,-0.2611,-0.2315,-0.181,-0.1624,-0.1082,0.0106,0.0987,0.1672,0.2228,0.301,0.3843,0.4608,0.5281,0.5987,0.681,0.7422,0.8237,0.9511,1.0246,1.088,1.1308,1.1805,1.2288,-3.1387,-3.1293,-3.0061,-2.9547,-2.9413,-2.8129,-2.756,-2.7573,-2.7699,-2.7764,-2.7802,-2.7976,-2.8036,-2.7978,-2.7933,-2.7884,-2.7813,-2.7942,-2.8003,-2.8037,-2.8759,-2.9079,-2.9053,-2.9529,-2.9678,-2.9494,-2.9338,-2.9428,-2.9834,-2.9661,-2.9446,-2.925,-2.8586,-2.7628,-2.6332,-2.6297,-2.6591,-2.7273,-2.7313,-2.7181,-2.6875,-2.6607,-2.6368,-2.6177,-2.6139,-2.6049,-2.5977,-2.5795,-2.5529,-2.5164,-2.4062,-2.2639,-2.0914,-1.8564,0.0,0.0,0.0,0.0,0.0,0.0,0.0,0.0,0.0,-1.0285,-1.0355,0.0,-1.1872,0.0,-1.1796,-1.1778,-1.137,-1.1031,0.0,0.0,-0.9089,-0.8791,-0.8466,-0.8361,-0.8367,-0.8483,-0.8211,-0.8003,-0.7889,-0.7421,-0.6947,-0.6519,-0.5367,-0.447,-0.426,-0.3916,-0.3664,-0.3521,-0.3327,-0.3049,-0.2663,-0.2148,-0.1476,-0.0664,0.0167,0.084,0.1341,0.2237,0.3074,0.3624,0.4288,0.5062,0.5823,0.6475,0.7176,0.8019,0.9221,1.032,1.0728,1.125,1.1819,-3.3122,-3.3051,-3.2293,-3.1975,-3.1824,-3.0096,-2.9347,-2.9362,-2.9309,-2.9299,-2.9288,-2.9316,-2.9266,-2.9186,-2.9202,-2.9179,-2.9135,-2.9071,-2.9043,-2.9072,-2.9443,-2.979,-3.0145,-3.0494,-3.0799,-3.1032,-3.0843,-3.0923,-3.1157,-3.0984,-3.089,-3.0859,-3.0668,-2.9824,-2.8348,-2.7701,-2.7581,-2.7904,-2.7701,-2.7478,-2.7261,-2.7085,-2.6939,-2.6807,-2.6402,-2.6302,-2.6455,-2.5732,-2.5379,-2.5405,-2.4392,-2.3127,-2.1733,-1.9851,-1.8097,0.0,0.0,0.0,0.0,0.0,0.0,0.0,0.0,0.0,0.0,0.0,-1.2873,-1.277,-1.2903,-1.2822,-1.2365,-1.2068,-1.158,-1.0764,-1.0474,-1.0205,-0.99,-0.9913,-0.9819,-0.9698,-0.9468,-0.9276,-0.8933,-0.8488,-0.8099,-0.7844,-0.6865,-0.5915,-0.5255,-0.4784,-0.4469,-0.4317,-0.4056,-0.3714,-0.3253,-0.2705,-0.2069,-0.14,-0.0728,-0.0056,0.0503,0.1399,0.2181,0.2567,0.3292,0.407,0.4835,0.5605,0.6317,0.6907,0.796,0.9065,0.9909,1.0533,1.1057,-3.6017,-3.5871,-3.4374,-3.3734,-3.3602,-3.2104,-3.1217,-3.0798,-3.0794,-3.0786,-3.0793,-3.0799,-3.0764,-3.0728,-3.071,-3.0724,-3.0717,-3.0649,-3.0618,-3.0618,-3.0655,-3.1091,-3.1816,-3.1815,-3.2167,-3.2787,-3.263,-3.2545,-3.2501,-3.2336,-3.218,-3.2098,-3.1986,-3.1444,-3.0531,-2.9355,-2.8622,-2.8416,-2.8209,-2.8024,-2.7817,-2.7587,-2.7411,-2.7241,-2.6423,-2.622,-2.6619,-2.5446,-2.4836,-2.4991,-2.4265,-2.3275,-2.2043,-2.0939,-1.9636,0.0,-1.6916,0.0,0.0,0.0,0.0,0.0,0.0,0.0,0.0,-1.3035,-1.3569,-1.3916,-1.4041,-1.3793,-1.3062,-1.2802,-1.2468,-1.1876,-1.1595,-1.1398,-1.1228,-1.1306,-1.1185,-1.0802,-1.0756,-1.0541,-1.01,-0.9614,-0.9204,-0.881,-0.8218,-0.7452,-0.6475,-0.586,-0.5416,-0.5234,-0.4849,-0.4265,-0.3677,-0.3239,-0.2792,-0.2069,-0.151,-0.0951,-0.0336,0.0503,0.1229,0.1621,0.2348,0.3183,0.3901,0.4787,0.5559,0.6046,0.6794,0.7753,0.8922,0.971,1.0328,-3.6007,-3.5968,-3.5638,-3.5501,-3.5481,-3.5167,-3.3389,-3.0806,-3.0796,-3.0788,-3.0798,-3.0794,-3.0782,-3.0779,-3.0779,-3.0784,-3.0781,-3.0775,-3.0724,-3.0691,-3.1404,-3.1775,-3.1919,-3.258,-3.2917,-3.296,-3.2942,-3.3149,-3.3604,-3.3496,-3.339,-3.328,-3.3144,-3.2629,-3.1798,0.0,0.0,0.0,-2.9988,-2.9837,-2.9087,-2.8936,-2.8517,-2.7719,-2.6895,0.0,-2.6498,-2.5495,-2.4876,-2.4747,-2.4307,0.0,0.0,0.0,0.0,0.0,0.0,0.0,0.0,0.0,0.0,0.0,-1.6519,-1.5617,-1.4156,-1.4406,-1.4664,-1.4699,-1.4595,-1.4433,-1.4114,-1.3871,-1.3606,-1.3382,-1.3107,-1.2872,-1.2531,-1.2493,-1.2358,-1.2153,-1.1783,-1.141,-1.1158,-1.06,-1.0035,-0.9658,-0.9197,-0.8679,-0.8043,-0.7015,-0.6204,-0.5723,-0.5226,-0.468,-0.4138,-0.3799,-0.3463,-0.2907,-0.2181,-0.1621,-0.1231,-0.0448,0.0392,0.084,0.1512,0.2348,0.3128,0.3959,0.4732,0.5336,0.5987,0.6848,0.8078,0.8981,0.9718,-3.6012,0.0,-3.6014,-3.6015,0.0,-3.6016,-3.5,-3.3359,-3.2902,-3.2485,-3.209,-3.2087,-3.2079,-3.2081,-3.2081,-3.2073,-3.2075,-3.2079,-3.2069,-3.2063,-3.2454,-3.2863,-3.3262,-3.3674,-3.4059,-3.438,-3.4367,-3.4461,-3.4688,-3.4625,-3.4569,-3.4494,-3.4353,-3.3846,-3.3014,-3.2806,-3.202,-3.0661,-3.0909,-3.0794,-3.0243,-2.9717,-2.9201,-2.8642,0.0,0.0,0.0,0.0,0.0,0.0,0.0,0.0,0.0,0.0,0.0,-2.1114,-2.0338,-1.9903,-1.9938,-1.9642,-1.9358,-1.9109,-1.8765,-1.7598,-1.5363,-1.5154,-1.5181,-1.5207,-1.5096,-1.4891,-1.4686,-1.4501,-1.4373,-1.4197,-1.4093,-1.3847,-1.3542,-1.3457,-1.3276,-1.2987,-1.2598,-1.2255,-1.1918,-1.1427,-1.0913,-1.049,-1.0087,-0.9621,-0.8995,-0.7871,-0.6799,-0.61,-0.5664,-0.5175,-0.4739,-0.4353,-0.3962,-0.3519,-0.2905,-0.2293,-0.179,-0.1287,-0.0672,0.0056,0.084,0.1621,0.2348,0.3239,0.4073,0.4677,0.5277,0.6041,0.7009,0.8078,0.9093,-3.623,-3.6211,-3.6074,-3.6014,-3.601,-3.601,-3.6011,-3.5956,0.0,0.0,0.0,-3.3859,-3.3853,-3.3861,-3.3861,-3.3854,-3.3863,-3.3867,-3.3853,-3.3873,-3.3807,-3.4146,-3.4802,-3.4828,-3.5162,-3.5773,-3.5737,-3.5648,-3.5538,-3.547,-3.5438,-3.5422,-3.53,-3.4894,-3.4197,-3.3937,-3.3278,-3.2199,-3.1948,-3.1678,-3.1396,-3.0585,-3.0053,-2.98,-2.8076,-2.6997,-2.6574,-2.5244,-2.4471,-2.4396,-2.4007,-2.368,-2.3382,-2.3604,-2.3517,-2.3012,-2.2608,-2.2202,-2.1924,-2.1588,-2.1231,-2.0953,-2.0314,-1.8967,-1.6565,-1.5969,-1.574,-1.57,-1.5525,-1.5334,-1.5085,-1.504,-1.496,-1.4754,-1.4708,-1.4616,-1.4362,-1.4197,-1.3962,-1.3658,-1.3314,-1.2977,-1.2559,-1.2116,-1.1719,-1.1326,-1.0913,-1.0395,-0.9666,-0.8448,-0.7278,-0.6583,-0.6154,-0.5778,-0.534,-0.4959,-0.4515,-0.4076,-0.3574,-0.2961,-0.2293,-0.1959,-0.1511,-0.0728,0.0112,0.0839,0.1567,0.2516,0.3466,0.4012,0.4673,0.5386,0.6041,0.7182,0.8309,-3.7124,-3.7046,-3.6304,-3.6011,-3.601,-3.601,-3.6011,-3.5993,-3.5859,-3.5759,-3.5619,-3.5639,-3.5636,-3.5652,-3.5652,-3.5623,-3.5646,-3.5642,-3.5619,0.0,-3.5626,-3.5651,-3.5727,-3.5727,-3.5743,-3.5791,-3.5795,-3.5745,-3.5678,-3.5649,-3.5607,-3.5483,-3.5457,-3.5341,-3.5191,-3.5096,-3.4929,-3.4687,-3.4156,-3.3478,-3.2662,-3.2385,-3.1821,-3.0856,-2.9184,-2.818,-2.7987,-2.6304,-2.5253,-2.5143,-2.4873,-2.4594,-2.4323,-2.4191,-2.3918,-2.3464,-2.3151,-2.2985,-2.3062,-2.2748,-2.2337,-2.183,-2.0783,-1.948,-1.7965,-1.7596,-1.708,-1.6262,-1.6049,-1.5824,-1.5691,-1.5614,-1.5457,-1.5379,-1.5267,-1.5108,-1.4823,-1.4697,-1.4569,-1.4384,-1.401,-1.3573,-1.3266,-1.2871,-1.2442,-1.2017,-1.1619,-1.1158,-1.0218,-0.881,-0.7765,-0.723,-0.6804,-0.6376,-0.5882,-0.5559,-0.5175,-0.4632,-0.4187,-0.3688,-0.3188,-0.2573,-0.2014,-0.1511,-0.084,-0.0056,0.0783,0.1677,0.2571,0.3458,0.4181,0.4846,0.5609,0.648,0.7283,-3.8,-3.796,-3.7569,-3.7138,-3.6687,-3.6198,-3.6021,-3.6018,-3.6009,-3.6013,-3.6015,-3.6015,-3.6015,-3.6015,-3.6013,-3.601,-3.6005,-3.6018,-3.6013,-3.601,-3.6017,-3.599,-3.5962,-3.5953,-3.5919,-3.5872,-3.5859,-3.5806,-3.576,-3.5752,-3.5736,-3.5659,-3.5629,-3.5596,-3.555,-3.5521,-3.5451,-3.5345,-3.4887,-3.4386,-3.3883,-3.325,-3.2649,-3.2133,-3.0734,-2.9704,-2.9132,-2.7754,-2.6712,-2.6079,-2.5819,-2.5616,-2.5364,-2.5473,-2.5397,-2.5058,-2.4688,-2.4393,-2.4288,-2.3703,-2.3176,-2.2746,-2.1973,-2.1046,-1.9932,-1.9003,-1.819,-1.7529,-1.706,-1.674,-1.6683,-1.6303,-1.5988,-1.5869,-1.5736,-1.5558,-1.539,-1.5187,-1.5062,-1.488,-1.4512,-1.4176,-1.3894,-1.3552,-1.317,-1.2638,-1.2206,-1.1669,-1.1099,-1.0108,-0.9065,-0.8296,-0.761,-0.7079,-0.6588,-0.6154,-0.5782,-0.5238,-0.4794,-0.4294,-0.3855,-0.3297,-0.2905,-0.2291,-0.1677,-0.1007,-0.0168,0.0838,0.1845,0.2738,0.363,0.4349,0.5066,0.6046,0.7241,-3.8871,-3.8866,-3.8651,-3.8199,-3.7526,-3.6843,-3.6446,-3.6282,-3.629,-3.6166,-3.5982,-3.5986,-3.601,-3.6013,-3.6015,-3.6015,-3.6015,-3.6011,-3.6009,-3.6007,-3.6016,-3.6007,-3.6007,-3.602,-3.597,-3.5923,-3.5929,-3.5889,-3.5827,-3.5827,-3.5826,-3.5815,-3.5782,-3.5736,-3.5737,-3.5716,-3.5684,-3.5543,-3.5239,-3.4977,-3.4756,-3.3953,-3.3462,-3.3272,-3.2273,-3.1329,-3.0462,-2.9303,-2.8228,-2.7376,-2.6922,-2.6615,-2.6446,-2.6664,-2.6691,-2.6418,-2.603,-2.5589,-2.513,-2.441,-2.3824,-2.348,-2.3113,-2.2493,-2.1676,-2.0525,-1.9436,-1.8819,-1.8118,-1.7708,-1.767,-1.7264,-1.6773,-1.6541,-1.6448,-1.6235,-1.5905,-1.5736,-1.5558,-1.53,-1.5017,-1.4731,-1.4408,-1.414,-1.3752,-1.3218,-1.2638,-1.2215,-1.1868,-1.1292,-1.0415,-0.9496,-0.856,-0.7824,-0.7343,-0.6804,-0.6268,-0.5841,-0.5399,-0.4901,-0.4408,-0.4132,-0.3741,-0.3014,-0.2404,-0.1733,-0.1062,0.0056,0.1174,0.2069,0.2963,0.3796,0.4684,0.5882,0.7241,-3.9696,-3.9559,-3.8896,-3.8458,-3.8371,-3.8273,-3.7776,-3.7141,-3.7083,-3.664,-3.6041,-3.5981,-3.6038,-3.6005,-3.6005,-3.601,-3.5995,-3.6016,-3.6015,-3.6014,-3.6011,-3.6007,-3.6003,-3.6021,-3.5979,-3.5991,-3.6001,-3.5951,-3.5899,-3.5909,-3.5889,-3.5885,-3.5879,-3.5866,-3.5864,-3.5826,-3.5773,-3.5773,-3.5626,-3.5372,-3.5078,-3.4902,-3.4699,-3.4459,-3.3518,-3.2846,-3.2311,-3.0702,-2.9608,-2.9223,-2.8209,-2.7566,-2.7374,-2.7258,-2.7006,-2.6606,-2.64,-2.6013,-2.5269,-2.4726,-2.4317,-2.4036,-2.358,-2.3172,-2.2773,-2.2324,-2.1268,-1.975,-1.8976,-1.8741,-1.8649,-1.8467,-1.806,-1.7549,-1.7454,-1.7188,-1.6536,-1.6231,-1.6013,-1.5748,-1.5537,-1.5289,-1.4915,-1.464,-1.428,-1.3647,-1.3228,-1.2793,-1.2421,-1.1918,-1.141,-1.0753,-0.971,-0.856,-0.7978,-0.7402,-0.6864,-0.6431,-0.5996,-0.5559,-0.5069,-0.4684,-0.4239,-0.3683,-0.3019,-0.235,-0.1454,-0.0503,0.0447,0.151,0.2404,0.3244,0.4512,0.5664,0.6804,-4.0505,-4.0466,-4.0134,-3.9669,-3.9182,-3.8669,-3.8201,-3.7844,-3.7844,-3.763,-3.7339,-3.735,-3.6857,-3.5966,-3.5942,-3.5929,-3.5955,-3.5984,-3.601,-3.6013,-3.6015,-3.6016,-3.6015,-3.6014,-3.6012,-3.6011,-3.6009,-3.5984,-3.5957,-3.5962,-3.5942,-3.5953,-3.5914,-3.5897,-3.5891,-3.5884,-3.5826,-3.5791,-3.5757,-3.5615,-3.5412,-3.5212,-3.5086,-3.4906,-3.4393,-3.3733,-3.3063,-3.2096,-3.1027,-2.9826,-2.9179,-2.8479,-2.7689,-2.7478,-2.7247,-2.6925,-2.6521,-2.6066,-2.5535,-2.5091,-2.4751,-2.4533,-2.4063,-2.3724,-2.3436,-2.3083,-2.2329,-2.1454,-2.0521,-1.9932,-1.9721,-1.9304,-1.8897,-1.8565,-1.8462,-1.8209,-1.7765,-1.739,-1.7024,-1.6643,-1.6151,-1.5691,-1.5322,-1.496,-1.4558,-1.4093,-1.3763,-1.3344,-1.2861,-1.248,-1.2085,-1.1569,-1.0694,-0.9658,-0.8764,-0.8078,-0.7551,-0.702,-0.6588,-0.6159,-0.5727,-0.5399,-0.4959,-0.4349,-0.3744,-0.3021,-0.2127,-0.1287,-0.0392,0.0951,0.2404,0.3466,0.4574,0.5395,0.6367,-4.0945,-4.0945,-4.0945,-4.0591,-3.9954,-3.9332,-3.8888,-3.8636,-3.8606,-3.8459,-3.8266,-3.8246,-3.7618,-3.6604,-3.6306,-3.6119,-3.5914,-3.5951,-3.5965,-3.5955,-3.5962,-3.5987,-3.5971,-3.5993,-3.6013,-3.6014,-3.6015,-3.6015,-3.6013,-3.6007,-3.6016,-3.601,-3.5951,-3.5934,-3.5899,-3.5898,-3.5877,-3.5834,-3.5829,-3.5737,-3.5618,-3.5412,-3.5292,-3.5239,-3.4981,-3.4471,-3.3742,-3.3198,-3.2114,-3.046,-2.9914,-2.9125,-2.8032,-2.7719,-2.7448,-2.7085,-2.6556,-2.6154,-2.5885,-2.5513,-2.5224,-2.4974,-2.4599,-2.4287,-2.4009,-2.361,-2.3246,-2.2802,-2.2008,-2.136,-2.0811,-2.0319,-1.9943,-1.9659,-1.9541,-1.935,-1.8885,-1.8461,-1.8061,-1.7662,-1.699,-1.6191,-1.5727,-1.5198,-1.4697,-1.4477,-1.4161,-1.3784,-1.3248,-1.292,-1.2588,-1.2166,-1.1569,-1.0744,-0.9547,-0.8823,-0.8237,-0.7711,-0.7289,-0.6864,-0.6381,-0.6,-0.5513,-0.4791,-0.4353,-0.363,-0.2571,-0.1792,-0.0785,0.084,0.224,0.3355,0.4187,0.5058,0.5878,-4.0798,-4.0798,-4.0818,-4.0768,-4.0734,-4.0637,-4.0169,-3.9405,-3.938,-3.8923,-3.8273,-3.8196,-3.8092,-3.7904,-3.7346,-3.663,-3.6002,-3.5981,-3.5977,-3.5973,-3.5912,-3.5903,-3.5923,-3.5971,-3.5994,-3.5994,-3.6001,-3.6009,-3.6014,-3.6015,-3.6015,-3.601,-3.6005,-3.5971,-3.5908,-3.5899,-3.5891,-3.5878,-3.5834,-3.5773,-3.5708,-3.5618,-3.5514,-3.5393,-3.5258,-3.5016,-3.4623,-3.3738,-3.2672,-3.1565,-3.0447,-2.9393,-2.8407,-2.7979,-2.7552,-2.7117,-2.6657,-2.6349,-2.626,-2.599,-2.5696,-2.5416,-2.5169,-2.4855,-2.4482,-2.4204,-2.3852,-2.3406,-2.3172,-2.2728,-2.2044,-2.1652,-2.1305,-2.0799,-2.0731,-2.0334,-1.9593,-1.9418,-1.9099,-1.8702,-1.7983,-1.706,-1.5989,-1.5379,-1.5051,-1.4719,-1.4359,-1.3984,-1.3631,-1.3258,-1.2968,-1.2676,-1.2215,-1.156,-1.0269,-0.9503,-0.8988,-0.8468,-0.7984,-0.7503,-0.7025,-0.6485,-0.5832,-0.5179,-0.4629,-0.3907,-0.2959,-0.1843,-0.0671,0.0616,0.1792,0.2852,0.3738,0.4563,0.5492,-4.0668,-4.0668,-4.0713,-4.0688,-4.0615,-4.0662,-4.0447,-4.0092,-4.0057,-3.9869,-3.9619,-3.9561,-3.9287,-3.8763,-3.8556,-3.8036,-3.7356,-3.6848,-3.6608,-3.6526,-3.6073,-3.5839,-3.5844,-3.585,-3.5875,-3.5875,-3.5929,-3.5927,-3.5946,-3.594,-3.597,-3.5995,-3.6015,-3.5968,-3.5955,-3.5923,-3.5894,-3.5891,-3.5826,-3.5779,-3.5773,-3.5708,-3.5626,-3.5528,-3.536,-3.5174,-3.5001,-3.4469,-3.3736,-3.2654,-3.1518,-3.0392,-2.9347,-2.8284,-2.7539,-2.7181,-2.6875,-2.6657,-2.6486,-2.626,-2.601,-2.5733,-2.553,-2.5246,-2.495,-2.4639,-2.4395,-2.4036,-2.3839,-2.3523,-2.3157,-2.2678,-2.2179,-2.1903,-2.1741,-2.1551,-2.1116,-2.0676,-2.0202,-1.9754,-1.8838,-1.7723,-1.6851,-1.6317,-1.5833,-1.5085,-1.4743,-1.4373,-1.3962,-1.3583,-1.3344,-1.3045,-1.2657,-1.2126,-1.141,-1.0379,-0.9658,-0.9145,-0.8672,-0.819,-0.7658,-0.7182,-0.6588,-0.5778,-0.512,-0.4181,-0.3234,-0.19,-0.0671,0.0336,0.1456,0.2404,0.3347,0.4229,0.5218,-4.0469,-4.0489,-4.0519,-4.0504,-4.0434,-4.0485,-4.0454,-4.0408,-4.0372,-4.0356,-4.0339,-4.0339,-4.0013,-3.9588,-3.9528,-3.9285,-3.8755,-3.7831,-3.7355,-3.7279,-3.6511,-3.6168,-3.611,-3.5893,-3.5764,-3.5737,-3.5791,-3.582,-3.5846,-3.5846,-3.5873,-3.5929,-3.5951,-3.5976,-3.5991,-3.5949,-3.5903,-3.5899,-3.5859,-3.5826,-3.5795,-3.5735,-3.5699,-3.5604,-3.5451,-3.5315,-3.5162,-3.4964,-3.4392,-3.336,-3.246,-3.1354,-2.9937,-2.8492,-2.7612,-2.7355,-2.712,-2.6892,-2.6657,-2.6504,-2.6295,-2.6043,-2.5844,-2.5605,-2.5301,-2.5068,-2.4831,-2.4533,-2.4385,-2.4219,-2.3967,-2.348,-2.3053,-2.2783,-2.2601,-2.2449,-2.2249,-2.1699,-2.1084,-2.0348,-1.9481,-1.8486,-1.7622,-1.7051,-1.6428,-1.5613,-1.5234,-1.4754,-1.4337,-1.401,-1.3763,-1.3478,-1.3094,-1.2706,-1.2157,-1.1384,-1.0431,-0.9873,-0.9354,-0.8823,-0.8349,-0.7818,-0.7235,-0.6426,-0.5496,-0.4505,-0.3342,-0.1955,-0.0895,0.0112,0.1064,0.2011,0.2954,0.4009,0.5054,-4.0215,-4.0215,-4.0215,-4.0252,-4.0288,-4.0325,-4.0342,-4.0362,-4.0325,-4.0271,-4.0215,-4.0215,-4.0177,-4.0139,-4.0062,-4.01,-3.979,-3.8738,-3.8176,-3.8022,-3.727,-3.6867,-3.674,-3.6124,-3.5728,-3.563,-3.5679,-3.5698,-3.5706,-3.5757,-3.5807,-3.5811,-3.5877,-3.5925,-3.6015,-3.5972,-3.5957,-3.5916,-3.5904,-3.5858,-3.5807,-3.5811,-3.5773,-3.5698,-3.5574,-3.5438,-3.5293,-3.5091,-3.4548,-3.3675,-3.316,-3.1967,-3.0028,-2.8676,-2.7904,-2.763,-2.7355,-2.7053,-2.6758,-2.6691,-2.6555,-2.6258,-2.6063,-2.5881,-2.5584,-2.541,-2.5185,-2.4934,-2.4815,-2.4695,-2.4523,-2.4317,-2.3967,-2.3436,-2.326,-2.3083,-2.2799,-2.254,-2.1913,-2.0778,-2.0072,-1.943,-1.8537,-1.7713,-1.7032,-1.6441,-1.5753,-1.5154,-1.4776,-1.4477,-1.4312,-1.401,-1.3621,-1.319,-1.2793,-1.2344,-1.1401,-1.06,-1.0028,-0.9503,-0.8981,-0.8455,-0.7818,-0.7015,-0.5823,-0.4776,-0.3622,-0.2291,-0.151,-0.0559,0.0502,0.162,0.2734,0.3788,0.4948,-4.0138,-4.0118,-4.0177,-4.0177,-4.0158,-4.0215,-4.0215,-4.0177,-4.0177,-4.0157,-4.0118,-4.0138,-4.0118,-4.0118,-4.0138,-4.0138,-4.0119,-3.9679,-3.9287,-3.8731,-3.7993,-3.7346,-3.6826,-3.6511,-3.6093,-3.5604,-3.5558,-3.5562,-3.5577,-3.563,-3.5669,-3.5721,-3.5795,-3.5875,-3.5932,-3.5933,-3.5937,-3.5968,-3.591,-3.5873,-3.5875,-3.5864,-3.5833,-3.576,-3.5679,-3.5543,-3.5388,-3.5157,-3.485,-3.4357,-3.3583,-3.2159,-3.0227,-2.8889,-2.8156,-2.7904,-2.7612,-2.7355,-2.7103,-2.694,-2.6759,-2.6417,-2.626,-2.6046,-2.5701,-2.5605,-2.5454,-2.5224,-2.5068,-2.4974,-2.491,-2.4751,-2.4441,-2.3894,-2.3696,-2.3566,-2.329,-2.2889,-2.2317,-2.1666,-2.1125,-2.0521,-1.969,-1.8814,-1.8034,-1.7113,-1.6486,-1.5949,-1.528,-1.4903,-1.4662,-1.443,-1.4046,-1.3716,-1.3324,-1.2929,-1.2335,-1.1501,-1.0846,-1.0182,-0.9666,-0.9093,-0.8402,-0.7444,-0.6253,-0.5054,-0.3843,-0.2847,-0.2068,-0.1174,-0.0112,0.1172,0.2456,0.3677,0.478,-4.0036,-4.0036,-4.0077,-4.0077,-4.0057,-4.0098,-4.0137,-4.0117,-4.0096,-4.0077,-4.0036,-4.0036,-3.9975,-3.9973,-3.9973,-3.9973,-4.0015,-4.0057,-3.9833,-3.9355,-3.8695,-3.8054,-3.744,-3.6846,-3.6204,-3.5556,-3.5435,-3.5424,-3.5418,-3.5495,-3.5574,-3.5629,-3.5697,-3.576,-3.5786,-3.5525,-3.5415,-3.5467,-3.5409,-3.5441,-3.553,-3.5744,-3.589,-3.5846,-3.5776,-3.564,-3.5483,-3.5315,-3.5089,-3.4699,-3.3754,-3.2293,-3.0662,-2.9584,-2.872,-2.8182,-2.7876,-2.7647,-2.7355,-2.7166,-2.6925,-2.6624,-2.6469,-2.626,-2.5974,-2.5828,-2.5642,-2.5448,-2.5262,-2.5169,-2.5107,-2.5005,-2.4766,-2.4492,-2.4204,-2.3952,-2.3681,-2.3246,-2.274,-2.2207,-2.186,-2.1302,-2.0628,-1.9799,-1.9083,-1.8053,-1.7233,-1.6662,-1.5901,-1.5359,-1.5074,-1.4811,-1.4466,-1.414,-1.38,-1.3457,-1.3122,-1.2442,-1.176,-1.0998,-1.0336,-0.9718,-0.9086,-0.7877,-0.6642,-0.5605,-0.4395,-0.3516,-0.2627,-0.162,-0.0614,0.0781,0.2122,0.34,0.456,-3.9889,-3.9889,-3.9889,-3.9954,-3.9996,-3.9996,-4.0036,-4.0076,-4.0057,-3.9994,-3.9911,-3.9889,-3.9823,-3.9712,-3.9735,-3.9758,-3.9823,-3.9867,-3.9914,-3.9732,-3.9299,-3.8861,-3.8517,-3.716,-3.6124,-3.5545,-3.5343,-3.53,-3.53,-3.5336,-3.5424,-3.5496,-3.545,-3.5514,-3.5363,-3.4795,-3.4462,-3.4514,-3.4517,-3.4568,-3.4766,-3.5406,-3.5843,-3.5873,-3.5833,-3.5732,-3.5599,-3.5411,-3.519,-3.4775,-3.369,-3.2535,-3.1483,-3.0472,-2.9373,-2.8398,-2.8126,-2.7853,-2.7587,-2.7355,-2.7117,-2.6858,-2.6691,-2.6503,-2.6222,-2.6026,-2.5844,-2.5637,-2.5492,-2.5323,-2.5185,-2.5107,-2.5045,-2.4966,-2.462,-2.4307,-2.3882,-2.3523,-2.3127,-2.2663,-2.2356,-2.1983,-2.1315,-2.0513,-1.9804,-1.907,-1.8009,-1.7272,-1.659,-1.6039,-1.545,-1.5142,-1.4937,-1.4593,-1.4258,-1.3999,-1.3658,-1.3132,-1.2452,-1.1751,-1.0947,-1.0233,-0.9577,-0.8309,-0.7128,-0.6091,-0.5058,-0.4177,-0.3183,-0.2235,-0.1004,0.0447,0.1785,0.3118,0.4501,-3.9889,-3.9889,-3.9889,-3.9911,-3.9911,-3.987,-3.987,-3.9889,-3.9845,-3.98,-3.9777,-3.9777,-3.9754,-3.9689,-3.9708,-3.9712,-3.9735,-3.9754,-3.9758,-3.9762,-3.9637,-3.9214,-3.8575,-3.7166,-3.627,-3.5964,-3.5486,-3.5162,-3.5143,-3.5171,-3.5235,-3.5315,-3.482,-3.4576,-3.4475,-3.3865,-3.3529,-3.3576,-3.3624,-3.3968,-3.453,-3.4858,-3.5312,-3.5852,-3.5877,-3.5814,-3.565,-3.5345,-3.5072,-3.4694,-3.3668,-3.2595,-3.1599,-3.057,-2.9595,-2.8675,-2.8264,-2.8025,-2.7777,-2.7569,-2.7338,-2.7053,-2.6925,-2.6742,-2.6365,-2.626,-2.6046,-2.5844,-2.568,-2.553,-2.5378,-2.5262,-2.5162,-2.5021,-2.4789,-2.4477,-2.4109,-2.3782,-2.3523,-2.3172,-2.2889,-2.248,-2.2021,-2.139,-2.0641,-1.9874,-1.9041,-1.8182,-1.739,-1.6694,-1.6142,-1.5709,-1.5435,-1.5108,-1.4823,-1.4558,-1.4186,-1.3716,-1.3132,-1.2491,-1.1543,-1.0592,-0.9844,-0.893,-0.7765,-0.6676,-0.5701,-0.478,-0.3785,-0.2847,-0.1675,-0.0335,0.1504,0.306,0.4494,-3.9889,-3.9848,-3.9867,-3.9826,-3.9823,-3.9758,-3.9758,-3.9758,-3.9712,-3.9708,-3.9703,-3.9703,-3.9703,-3.9661,-3.9679,-3.9679,-3.9703,-3.9703,-3.9708,-3.9689,-3.9693,-3.9309,-3.8584,-3.7583,-3.6938,-3.6217,-3.578,-3.5381,-3.5114,-3.5073,-3.5107,-3.504,-3.4416,-3.4064,-3.4064,-3.2998,-3.2532,-3.2596,-3.2667,-3.2992,-3.3478,-3.4312,-3.4866,-3.5409,-3.5675,-3.5831,-3.5678,-3.5366,-3.5069,-3.4678,-3.403,-3.3143,-3.209,-3.1102,-3.009,-2.9078,-2.8542,-2.8136,-2.7922,-2.7719,-2.7539,-2.7293,-2.7166,-2.6891,-2.6624,-2.6469,-2.6312,-2.6063,-2.5864,-2.568,-2.5476,-2.5246,-2.5052,-2.4886,-2.4733,-2.4544,-2.4385,-2.4219,-2.3967,-2.3625,-2.329,-2.2934,-2.248,-2.1921,-2.1295,-2.0518,-1.9768,-1.8945,-1.8157,-1.7495,-1.6843,-1.6357,-1.5921,-1.5593,-1.5334,-1.5051,-1.4697,-1.4222,-1.3563,-1.3025,-1.2089,-1.099,-1.0198,-0.9375,-0.8343,-0.7368,-0.6455,-0.5487,-0.4446,-0.345,-0.2339,-0.0892,0.0946,0.2892,0.4323,-3.9958,-3.9894,-3.9894,-3.9891,-3.9863,-3.9746,-3.9689,-3.9665,-3.9665,-3.9656,-3.965,-3.9669,-3.9602,-3.9577,-3.9577,-3.9602,-3.9669,-3.9645,-3.965,-3.9656,-3.9623,-3.9307,-3.8742,-3.8458,-3.7686,-3.6684,-3.6345,-3.576,-3.5306,-3.5097,-3.5001,-3.4865,-3.427,-3.3859,-3.3493,-3.2371,-3.1711,-3.162,-3.1661,-3.1914,-3.2389,-3.3418,-3.4222,-3.4884,-3.5585,-3.583,-3.5685,-3.5456,-3.5174,-3.4851,-3.4567,-3.379,-3.2804,-3.1831,-3.0834,-2.9817,-2.8945,-2.8397,-2.8042,-2.7836,-2.7689,-2.7509,-2.7324,-2.7117,-2.6858,-2.6725,-2.6537,-2.6277,-2.6063,-2.5864,-2.5589,-2.516,-2.4942,-2.4871,-2.4599,-2.4558,-2.467,-2.462,-2.4374,-2.4067,-2.3653,-2.3172,-2.268,-2.2142,-2.167,-2.1124,-2.0408,-1.9707,-1.9006,-1.8336,-1.7634,-1.6979,-1.6536,-1.6098,-1.5816,-1.5591,-1.5142,-1.4686,-1.3988,-1.3314,-1.2433,-1.1443,-1.0643,-0.9762,-0.9065,-0.8224,-0.7385,-0.6352,-0.5316,-0.4113,-0.306,-0.1447,0.0334,0.2389,0.4048,-4.0736,-4.0755,-4.0755,-4.0731,-4.0594,-4.0005,-3.9631,-3.9551,-3.9533,-3.9502,-3.9451,-3.9469,-3.9451,-3.9444,-3.9444,-3.9469,-3.9469,-3.9495,-3.9451,-3.9469,-3.9476,-3.942,-3.9077,-3.879,-3.8316,-3.7637,-3.6583,-3.596,-3.5679,-3.5189,-3.4869,-3.4813,-3.4167,-3.3479,-3.2896,-3.211,-3.118,-3.0777,-3.0747,-3.1188,-3.1754,-3.231,-3.329,-3.4499,-3.5409,-3.5806,-3.5774,-3.5581,-3.5372,-3.5086,-3.4694,-3.3989,-3.3056,-3.2463,-3.1469,-3.0204,-2.9548,-2.8972,-2.8324,-2.7996,-2.7824,-2.76,-2.7496,-2.7324,-2.707,-2.6975,-2.6775,-2.6555,-2.6365,-2.6137,-2.5738,-2.5416,-2.513,-2.5029,-2.491,-2.4791,-2.4782,-2.4523,-2.4317,-2.4151,-2.3882,-2.3566,-2.3172,-2.2678,-2.217,-2.1684,-2.104,-2.0413,-1.9781,-1.9166,-1.8537,-1.7819,-1.7237,-1.6791,-1.6448,-1.6086,-1.5534,-1.5175,-1.4536,-1.3988,-1.3054,-1.2218,-1.1516,-1.072,-0.9909,-0.9124,-0.8455,-0.7492,-0.6509,-0.5144,-0.3721,-0.1944,-0.0167,0.1883,0.4146,-4.0892,-4.0904,-4.1261,-4.118,-4.076,-4.027,-3.9813,-3.9425,-3.9335,-3.9301,-3.9275,-3.9256,-3.9275,-3.9275,-3.9301,-3.9301,-3.9346,-3.9391,-3.9373,-3.9346,-3.9301,-3.9301,-3.9237,-3.8957,-3.864,-3.8244,-3.7493,-3.6708,-3.5964,-3.5496,-3.5145,-3.4793,-3.4036,-3.3525,-3.2931,-3.199,-3.1249,-3.0871,-3.0484,-3.0667,-3.111,-3.1678,-3.2732,-3.4248,-3.5092,-3.5437,-3.5733,-3.5676,-3.5488,-3.5232,-3.487,-3.4352,-3.3528,-3.2939,-3.1909,-3.0745,-2.9969,-2.9314,-2.8533,-2.8136,-2.8014,-2.7736,-2.7587,-2.7434,-2.7261,-2.7152,-2.6975,-2.6826,-2.6657,-2.6435,-2.5941,-2.5589,-2.5378,-2.5107,-2.5005,-2.4862,-2.4701,-2.4564,-2.4467,-2.4333,-2.4067,-2.3739,-2.3334,-2.2963,-2.2463,-2.1874,-2.1506,-2.089,-2.0527,-1.9904,-1.9456,-1.8784,-1.8074,-1.7505,-1.7093,-1.656,-1.5901,-1.5522,-1.513,-1.4674,-1.4154,-1.3321,-1.2492,-1.1639,-1.0788,-1.0395,-0.9666,-0.8652,-0.7587,-0.6171,-0.458,-0.2654,-0.0498,0.1824,0.4235,-4.0881,-4.0902,-4.1725,-4.1521,-4.0756,-4.0514,-3.9919,-3.9184,-3.9073,-3.9045,-3.9045,-3.9027,-3.9017,-3.9027,-3.9101,-3.9129,-3.9175,-3.9221,-3.9193,-3.9166,-3.912,-3.9092,-3.9027,-3.8943,-3.8729,-3.8223,-3.794,-3.7231,-3.6461,-3.5833,-3.5431,-3.4898,-3.4166,-3.3714,-3.3317,-3.2255,-3.1374,-3.1192,-3.0543,-3.0292,-3.0518,-3.1186,-3.2352,-3.3618,-3.4605,-3.498,-3.5424,-3.5565,-3.556,-3.5311,-3.5035,-3.4693,-3.4222,-3.3518,-3.252,-3.1477,-3.0688,-2.9787,-2.8882,-2.838,-2.8109,-2.7917,-2.7694,-2.7526,-2.7404,-2.7279,-2.712,-2.7007,-2.6825,-2.6607,-2.6175,-2.5848,-2.5567,-2.5301,-2.5045,-2.4822,-2.4661,-2.4726,-2.4686,-2.4441,-2.4193,-2.3882,-2.3523,-2.3127,-2.2632,-2.217,-2.1793,-2.1431,-2.1054,-2.07,-2.0266,-1.9661,-1.8956,-1.7883,-1.7334,-1.6982,-1.6337,-1.6053,-1.5684,-1.5417,-1.508,-1.4538,-1.3705,-1.2493,-1.167,-1.1384,-1.0913,-0.9961,-0.8776,-0.7287,-0.5496,-0.3635,-0.1044,0.1764,0.4318,-4.1378,-4.1518,-4.2318,-4.2121,-4.1215,-4.0537,-3.9708,-3.8955,-3.8833,-3.8785,-3.8676,-3.8732,-3.8713,-3.8725,-3.8833,-3.8892,-3.8921,-3.8921,-3.8921,-3.8921,-3.8892,-3.8833,-3.8803,-3.8743,-3.8633,-3.8435,-3.8155,-3.7726,-3.7224,-3.6379,-3.5778,-3.5484,-3.4873,-3.4256,-3.3524,-3.2619,-3.1842,-3.1339,-3.0639,-3.029,-3.0337,-3.059,-3.1263,-3.2608,-3.3682,-3.4467,-3.4842,-3.5347,-3.5581,-3.5292,-3.4981,-3.4713,-3.4416,-3.4017,-3.3296,-3.2364,-3.1485,-3.0589,-2.9546,-2.8766,-2.8308,-2.7996,-2.7777,-2.763,-2.7526,-2.7421,-2.7264,-2.7087,-2.6859,-2.6589,-2.6367,-2.6101,-2.5917,-2.5717,-2.5454,-2.5185,-2.5029,-2.495,-2.4806,-2.4482,-2.4276,-2.4024,-2.3711,-2.3392,-2.3038,-2.2632,-2.231,-2.1983,-2.1677,-2.1377,-2.1104,-2.0481,-1.9763,-1.8548,-1.7447,-1.7177,-1.6799,-1.659,-1.6312,-1.6164,-1.5901,-1.5719,-1.4913,-1.3906,-1.313,-1.2774,-1.2089,-1.1299,-1.0179,-0.8885,-0.6797,-0.4653,-0.1745,0.1144,0.4645,-4.118,-4.1341,-4.2115,-4.1936,-4.1093,-4.0207,-3.9342,-3.8601,-3.8465,-3.8415,-3.8364,-3.8382,-3.8382,-3.8382,-3.8465,-3.8578,-3.8621,-3.8621,-3.859,-3.859,-3.8546,-3.8496,-3.8446,-3.8401,-3.8382,-3.8287,-3.8101,-3.789,-3.7757,-3.7079,-3.6254,-3.5632,-3.5212,-3.4697,-3.3942,-3.3193,-3.2428,-3.1657,-3.0916,-3.03,-3.0098,-3.0142,-3.0768,-3.1806,-3.2668,-3.3534,-3.4443,-3.4697,-3.5067,-3.509,-3.4944,-3.4672,-3.4431,-3.4171,-3.3704,-3.2834,-3.2192,-3.1294,-3.0173,-2.9321,-2.8892,-2.8254,-2.7979,-2.7806,-2.7659,-2.7557,-2.7421,-2.7264,-2.7055,-2.6825,-2.6691,-2.6383,-2.6154,-2.5954,-2.5717,-2.5492,-2.5262,-2.5201,-2.4926,-2.462,-2.44,-2.4193,-2.3925,-2.3668,-2.3407,-2.3127,-2.2814,-2.254,-2.2263,-2.2039,-2.1801,-2.1204,-2.0505,-1.9451,-1.8303,-1.776,-1.7336,-1.706,-1.6827,-1.6666,-1.6578,-1.6322,-1.6146,-1.5626,-1.4959,-1.4057,-1.3704,-1.3,-1.1713,-1.0392,-0.8447,-0.6151,-0.2715,0.0644,0.4383,-4.0568,-4.0656,-4.1407,-4.1298,-4.0498,-3.9708,-3.8914,-3.8246,-3.8052,-3.8,-3.8,-3.8,-3.8,-3.8018,-3.8104,-3.8204,-3.8285,-3.8285,-3.8219,-3.8204,-3.8171,-3.8138,-3.8052,-3.8,-3.8018,-3.8,-3.7962,-3.7889,-3.7808,-3.7419,-3.6731,-3.5906,-3.5488,-3.4964,-3.4189,-3.3297,-3.2754,-3.2147,-3.1238,-3.0434,-2.9921,-2.9915,-3.0338,-3.1291,-3.1635,-3.2514,-3.3374,-3.4095,-3.4357,-3.4566,-3.4604,-3.4545,-3.4316,-3.4197,-3.3802,-3.3148,-3.2852,-3.1744,-3.0695,-2.9867,-2.9276,-2.8443,-2.8182,-2.7996,-2.7836,-2.7689,-2.7544,-2.739,-2.7201,-2.7038,-2.6875,-2.6674,-2.6418,-2.6208,-2.5957,-2.5738,-2.553,-2.5394,-2.5217,-2.4926,-2.4614,-2.4309,-2.3989,-2.4051,-2.3839,-2.3625,-2.3348,-2.3127,-2.2844,-2.2663,-2.2383,-2.1906,-2.1191,-2.0302,-1.9344,-1.8495,-1.8005,-1.7532,-1.7173,-1.692,-1.6899,-1.6865,-1.6654,-1.6322,-1.5905,-1.5103,-1.4879,-1.4525,-1.3383,-1.1972,-1.0136,-0.7387,-0.3714,0.0667,0.4956,-3.9441,-3.9547,-4.0293,-4.0113,-3.9355,-3.9031,-3.8456,-3.7739,-3.7649,-3.7667,-3.7649,-3.7649,-3.7649,-3.7649,-3.7649,-3.7739,-3.7827,-3.7792,-3.781,-3.781,-3.7774,-3.7739,-3.7739,-3.7685,-3.7631,-3.7631,-3.7649,-3.7897,-3.7824,-3.7426,-3.6784,-3.6007,-3.5293,-3.4614,-3.3868,-3.3188,-3.2624,-3.2336,-3.1127,-3.003,-2.947,-2.942,-2.9678,-3.0145,-3.0794,-3.1307,-3.153,-3.228,-3.2987,-3.2959,-3.3636,-3.4004,-3.4124,-3.3998,-3.3928,-3.3582,-3.3025,-3.2114,-3.1005,-3.0358,-2.9564,-2.8801,-2.8327,-2.8154,-2.7996,-2.7748,-2.7557,-2.7421,-2.7247,-2.7135,-2.707,-2.6925,-2.6759,-2.6572,-2.633,-2.6118,-2.5901,-2.5652,-2.5481,-2.4813,-2.4365,-2.4225,-2.4032,-2.4178,-2.4276,-2.4051,-2.3824,-2.3593,-2.3436,-2.326,-2.2726,-2.2133,-2.1553,-2.0683,-1.9596,-1.8897,-1.829,-1.7786,-1.736,-1.7,-1.6901,-1.6802,-1.6758,-1.6451,-1.6077,-1.5777,-1.5375,-1.4979,-1.4662,-1.3371,-1.1391,-0.8138,-0.4426,0.0301,0.5658,-3.8437,-3.8922,-3.9244,-3.9153,-3.8776,-3.8235,-3.7731,-3.7408,-3.7299,-3.7317,-3.7297,-3.7241,-3.7241,-3.7279,-3.7241,-3.7299,-3.7337,-3.7337,-3.7299,-3.7374,-3.7337,-3.7317,-3.7299,-3.7279,-3.7241,-3.7279,-3.7279,-3.7317,-3.7452,-3.7431,-3.6967,-3.5869,-3.5374,-3.4624,-3.3626,-3.311,-3.2683,-3.1983,-3.0789,-2.9588,-2.9044,-2.8879,-2.8916,-2.8936,-2.9156,-2.9087,-2.9087,-2.8521,-2.8709,-2.8356,-2.8481,-2.8307,-2.8135,-2.7954,-2.7867,-2.7739,-2.7344,-2.8534,-3.1098,-3.0734,-2.9722,-2.9152,-2.8572,-2.83,-2.8136,-2.7773,-2.7555,-2.7569,-2.7417,-2.7243,-2.7105,-2.712,-2.699,-2.6825,-2.647,-2.64,-2.6208,-2.6021,-2.5675,-2.4898,-2.4021,-2.356,-2.3358,-2.3748,-2.3852,-2.3848,-2.3846,-2.388,-2.3769,-2.3754,-2.3059,-2.2237,-2.1625,-2.096,-1.975,-1.8769,-1.8142,-1.7602,-1.7026,-1.6739,-1.6644,-1.6554,-1.6323,-1.6192,-1.5847,-1.5653,-1.5567,-1.5282,-1.4775,-1.3717,-1.258,-0.8174,-0.3582,0.2021,0.7869,-3.7615,-3.8206,-3.8244,-3.8244,-3.8153,-3.7488,-3.7143,-3.7031,-3.6992,-3.697,-3.6948,-3.6948,-3.6948,-3.6908,-3.6948,-3.6948,-3.6948,-3.6926,-3.6908,-3.6908,-3.6908,-3.6948,-3.6948,-3.6948,-3.6908,-3.6851,-3.6891,-3.6891,-3.6952,-3.6953,-3.6612,-3.5627,-3.5273,-3.4488,-3.3505,-3.2862,-3.2416,-3.1643,-3.0438,-2.942,-2.8739,-2.8344,-2.8216,-2.7962,-2.7536,-2.7121,-2.6904,-2.6121,-2.5317,-2.3307,-2.4512,-2.4956,-2.4532,-2.465,-2.4464,-2.4334,-2.4131,-2.5454,-2.778,-2.8338,-2.836,-2.759,-2.699,-2.5524,-2.5783,-2.6225,-2.6182,-2.5393,-2.7171,-2.6688,-2.6172,-2.6177,-2.6602,-2.644,-2.6325,-2.64,-2.6218,-2.5426,-2.4825,-2.4135,-2.3137,-2.2014,-2.2095,-2.2882,-2.3264,-2.3532,-2.3739,-2.3909,-2.38,-2.36,-2.279,-2.1738,-2.1309,-2.065,-1.9699,-1.8693,-1.8054,-1.7293,-1.6708,-1.6225,-1.5936,-1.5688,-1.5421,-1.5335,-1.5196,-1.4695,-1.4132,-1.4505,-1.4763,-1.3514,-1.1568,-0.7028,-0.2148,0.3801,1.0335,-3.7105,-3.7136,-3.7196,-3.7253,-3.7232,-3.6965,-3.6869,-3.6811,-3.6748,-3.6725,-3.6725,-3.6725,-3.6725,-3.6725,-3.6725,-3.6725,-3.6742,-3.6725,-3.6684,-3.6684,-3.6702,-3.6684,-3.6684,-3.6626,-3.6626,-3.6544,-3.6527,-3.6485,-3.6385,-3.6509,-3.6133,-3.5609,-3.4986,-3.4104,-3.3246,-3.2529,-3.188,-3.1161,-3.0249,-2.9474,-2.8697,-2.8087,-2.7589,-2.7338,-2.7147,-2.7132,-2.7373,-2.5641,-2.3247,-2.0035,-2.1598,-2.261,-2.1941,-2.191,-2.1653,-2.145,-2.1442,-2.2236,-2.3115,-2.3779,-2.2486,-2.1471,-2.1371,-2.1897,-2.215,-2.3486,-2.316,-2.2263,-2.461,-2.4698,-2.4045,-2.4062,-2.4987,-2.48,-2.4561,-2.497,-2.465,-2.397,-2.3403,-2.3103,-2.2099,-2.0648,-1.9867,-2.0431,-2.1655,-2.1955,-2.2547,-2.274,-2.2722,-2.2497,-2.1797,-2.1074,-2.0729,-2.0157,-1.9408,-1.8512,-1.7492,-1.6651,-1.5999,-1.5437,-1.4916,-1.4684,-1.4332,-1.3996,-1.3705,-1.3233,-1.2732,-1.2782,-1.2781,-1.2705,-1.04,-0.5591,0.1475,0.8749,1.4816,-3.6869,-3.6806,-3.6829,-3.6851,-3.693,-3.6806,-3.6667,-3.6626,-3.6585,-3.6502,-3.6444,-3.6444,-3.6444,-3.6461,-3.6444,-3.6444,-3.6444,-3.6395,-3.6395,-3.6335,-3.6335,-3.6293,-3.6293,-3.6293,-3.6251,-3.6191,-3.6191,-3.6191,-3.6148,-3.6105,-3.6002,-3.5511,-3.4691,-3.3835,-3.2983,-3.2199,-3.1403,-3.0817,-3.023,-2.9523,-2.8338,-2.7894,-2.7283,-2.6506,-2.5409,-2.4648,-2.3733,-2.2146,-1.9886,-1.8451,-1.8591,-1.8618,-1.8478,-1.8143,-1.7836,-1.7614,-1.7629,-1.7468,-1.8239,-1.966,-2.1394,-2.0689,-2.0351,-1.9861,-1.9468,-2.1077,-2.1261,-2.135,-2.1975,-2.2129,-2.1698,-2.1964,-2.2492,-2.2174,-2.2441,-2.3127,-2.2982,-2.2294,-2.142,-2.0871,-1.9902,-1.8659,-1.8064,-1.7678,-1.9101,-2.0345,-2.102,-2.1518,-2.1456,-2.1308,-2.0623,-1.9939,-1.9556,-1.8958,-1.8192,-1.7455,-1.6754,-1.6044,-1.529,-1.462,-1.399,-1.3392,-1.3024,-1.2648,-1.2181,-1.1661,-1.1189,-1.0847,-1.0653,-1.0518,-0.7928,-0.383,0.416,1.2898,1.7937,-3.6766,-3.6702,-3.6643,-3.6684,-3.6748,-3.6684,-3.6602,-3.6502,-3.6461,-3.6402,-3.6284,-3.6284,-3.6301,-3.6276,-3.6259,-3.6216,-3.6233,-3.6165,-3.6165,-3.6122,-3.6079,-3.6036,-3.6036,-3.6019,-3.6019,-3.5932,-3.5932,-3.5932,-3.5888,-3.5844,-3.5783,-3.5324,-3.444,-3.3516,-3.2975,-3.1961,-3.1134,-3.0704,-3.0116,-2.9445,-2.8226,-2.7609,-2.6869,-2.5856,-2.4752,-2.3591,-2.2291,-2.0805,-1.897,-1.7308,-1.6364,-1.5252,-1.4532,-1.3799,-1.3404,-1.3165,-1.3053,-1.2891,-1.412,-1.6039,-1.8804,-1.7366,-1.7331,-1.7286,-1.7746,-1.8243,-1.8447,-1.7792,-1.893,-1.9846,-1.9264,-1.9638,-2.0185,-2.0127,-2.0982,-2.1593,-2.1119,-2.0487,-1.9439,-1.854,-1.756,-1.6704,-1.6642,-1.6386,-1.7603,-1.889,-1.9633,-2.0039,-2.0055,-1.9831,-1.945,-1.8748,-1.8138,-1.7489,-1.6762,-1.6436,-1.6059,-1.5279,-1.4553,-1.3779,-1.3109,-1.2452,-1.1719,-1.1258,-1.0738,-1.0128,-0.9423,-0.8703,-0.8436,-0.83,-0.4481,0.0046,0.6108,1.4176,1.8276,-3.6702,-3.6702,-3.6544,-3.6561,-3.6643,-3.6544,-3.6502,-3.6461,-3.6343,-3.6301,-3.6301,-3.6301,-3.6233,-3.6208,-3.6208,-3.6105,-3.6019,-3.5975,-3.5975,-3.5932,-3.5905,-3.5949,-3.5932,-3.5888,-3.5861,-3.5817,-3.5817,-3.5756,-3.5622,-3.5611,-3.5537,-3.5026,-3.4017,-3.3051,-3.3094,-3.1715,-3.0929,-3.0778,-3.0039,-2.9276,-2.8489,-2.7597,-2.658,-2.5511,-2.4446,-2.3347,-2.2072,-2.0654,-1.904,-1.7588,-1.6606,-1.5683,-1.4805,-1.4338,-1.381,-1.3211,-1.3346,-1.3215,-1.2969,-1.315,-1.3582,-1.3733,-1.4233,-1.3744,-1.3158,-1.4039,-1.552,-1.4926,-1.677,-1.7079,-1.6983,-1.7075,-1.763,-1.8099,-1.8876,-1.9177,-1.8632,-1.8399,-1.7336,-1.6744,-1.5723,-1.4839,-1.4994,-1.5319,-1.6392,-1.741,-1.8199,-1.8539,-1.8575,-1.8352,-1.7988,-1.7652,-1.6994,-1.6577,-1.6023,-1.5783,-1.5288,-1.4544,-1.383,-1.3067,-1.2269,-1.1481,-1.0777,-1.0008,-0.9259,-0.8561,-0.7499,-0.6377,-0.5507,-0.4091,0.0262,0.4968,1.0437,1.4697,1.8376,-3.6502,-3.6444,-3.6335,-3.6353,-3.6335,-3.6377,-3.636,-3.636,-3.6318,-3.6259,-3.6251,-3.6251,-3.6165,-3.6122,-3.6036,-3.5975,-3.5844,-3.5739,-3.5694,-3.5605,-3.5577,-3.5611,-3.5594,-3.5639,-3.5639,-3.5667,-3.5667,-3.5594,-3.5537,-3.54,-3.5308,-3.4877,-3.3578,-3.239,-3.1734,-3.0907,-3.0651,-3.0535,-3.0087,-2.9526,-2.8731,-2.7753,-2.6663,-2.5557,-2.4418,-2.329,-2.2217,-2.0855,-1.9505,-1.8174,-1.7191,-1.6197,-1.5352,-1.481,-1.4189,-1.3614,-1.3623,-1.3328,-1.32,-1.3327,-1.3086,-1.2567,-1.2182,-1.2062,-1.2035,-1.2422,-1.2647,-1.2746,-1.4297,-1.4389,-1.4082,-1.446,-1.487,-1.4933,-1.5378,-1.5715,-1.5532,-1.5587,-1.5223,-1.5114,-1.4473,-1.446,-1.4529,-1.4538,-1.5404,-1.5766,-1.6467,-1.6832,-1.6927,-1.6738,-1.6484,-1.6406,-1.5995,-1.5672,-1.5313,-1.501,-1.4579,-1.3847,-1.3141,-1.2472,-1.1574,-1.0647,-0.9756,-0.8982,-0.7985,-0.6934,-0.5558,-0.4014,-0.1697,0.0815,0.3909,0.6786,1.074,1.4297,1.7472,-3.6335,-3.6191,-3.6122,-3.6036,-3.6036,-3.6148,-3.6174,-3.6174,-3.6199,-3.6174,-3.6122,-3.607,-3.5966,-3.5861,-3.58,-3.5711,-3.5549,-3.5441,-3.535,-3.5258,-3.5165,-3.5228,-3.5245,-3.5291,-3.5321,-3.5396,-3.5441,-3.5412,-3.5354,-3.5182,-3.4582,-3.3736,-3.305,-3.1867,-3.0952,-3.0307,-3.0258,-3.0113,-2.9751,-2.9345,-2.848,-2.7578,-2.6598,-2.5428,-2.426,-2.2995,-2.2021,-2.0904,-1.9773,-1.8608,-1.7589,-1.6606,-1.5816,-1.5166,-1.4487,-1.4013,-1.3387,-1.3107,-1.3157,-1.3182,-1.288,-1.257,-1.2314,-1.2065,-1.1892,-1.1958,-1.2104,-1.2205,-1.2375,-1.2613,-1.2842,-1.3058,-1.3224,-1.3364,-1.3545,-1.392,-1.4136,-1.4271,-1.4289,-1.4109,-1.4043,-1.4103,-1.4103,-1.4172,-1.4456,-1.4559,-1.4702,-1.5059,-1.5468,-1.5478,-1.543,-1.542,-1.5294,-1.5001,-1.4647,-1.4172,-1.3692,-1.3139,-1.2474,-1.1661,-1.0797,-0.9818,-0.8862,-0.7863,-0.6783,-0.5469,-0.355,-0.1656,0.044,0.2728,0.5292,0.8222,1.1173,1.4038,1.7009,-3.6122,-3.5975,-3.5861,-3.5711,-3.5622,-3.5783,-3.5871,-3.5958,-3.595,-3.5968,-3.5932,-3.5841,-3.5718,-3.5577,-3.5487,-3.5304,-3.5135,-3.5088,-3.4994,-3.4899,-3.4851,-3.4851,-3.4851,-3.4899,-3.4947,-3.5041,-3.5041,-3.5024,-3.5041,-3.4691,-3.3681,-3.2579,-3.2433,-3.1273,-3.0309,-2.9714,-2.971,-2.9633,-2.9406,-2.8955,-2.8207,-2.7232,-2.6269,-2.5166,-2.3955,-2.2793,-2.1793,-2.072,-1.9709,-1.8727,-1.7831,-1.6955,-1.6218,-1.5517,-1.4706,-1.3857,-1.2948,-1.2795,-1.2676,-1.2735,-1.2774,-1.2582,-1.2465,-1.2195,-1.2,-1.1772,-1.1859,-1.2026,-1.2189,-1.2436,-1.2683,-1.2805,-1.292,-1.3094,-1.3208,-1.3408,-1.358,-1.3648,-1.3708,-1.3631,-1.3571,-1.3571,-1.3511,-1.3571,-1.3761,-1.3769,-1.395,-1.4189,-1.4597,-1.4942,-1.4893,-1.4902,-1.4775,-1.4469,-1.3992,-1.345,-1.2704,-1.2143,-1.1516,-1.0808,-0.9839,-0.8888,-0.7985,-0.6909,-0.5556,-0.3938,-0.1873,0.0279,0.2373,0.4656,0.668,0.8813,1.1522,1.3947,1.6686,-3.5844,-3.5711,-3.5503,-3.5304,-3.5038,-3.4961,-3.5148,-3.5391,-3.552,-3.5537,-3.5503,-3.5526,-3.5379,-3.5228,-3.5182,-3.5041,-3.4835,-3.4691,-3.4594,-3.4497,-3.4349,-3.4399,-3.4448,-3.4448,-3.4546,-3.4594,-3.4643,-3.4594,-3.4448,-3.4101,-3.3278,-3.2209,-3.1668,-3.0602,-2.9703,-2.8982,-2.9014,-2.9028,-2.8826,-2.8435,-2.7827,-2.6976,-2.5995,-2.4902,-2.371,-2.2558,-2.1353,-2.027,-1.9307,-1.8363,-1.7401,-1.6513,-1.6046,-1.5225,-1.4419,-1.3388,-1.2853,-1.263,-1.2343,-1.2347,-1.2419,-1.2524,-1.2459,-1.2224,-1.2051,-1.1891,-1.1865,-1.1944,-1.1956,-1.212,-1.2305,-1.2428,-1.2552,-1.2666,-1.285,-1.3094,-1.3216,-1.3338,-1.3338,-1.3338,-1.3277,-1.3094,-1.3094,-1.3155,-1.3285,-1.3241,-1.3302,-1.3424,-1.3649,-1.3923,-1.4222,-1.4231,-1.3932,-1.3563,-1.3191,-1.2642,-1.1834,-1.1149,-1.0514,-0.9742,-0.8816,-0.787,-0.7005,-0.5674,-0.4005,-0.2071,0.0058,0.2052,0.3805,0.5707,0.767,0.97,1.1828,1.4181,1.6334,-3.5487,-3.5304,-3.5024,-3.4675,-3.4317,-3.4134,-3.4284,-3.448,-3.4875,-3.5031,-3.4977,-3.4961,-3.4913,-3.4787,-3.4691,-3.4546,-3.43,-3.4201,-3.405,-3.3899,-3.3848,-3.3848,-3.3899,-3.3899,-3.3949,-3.405,-3.4101,-3.405,-3.3832,-3.3339,-3.2619,-3.1548,-3.0886,-2.995,-2.8997,-2.8167,-2.7834,-2.7966,-2.8046,-2.7864,-2.7325,-2.6624,-2.5614,-2.4575,-2.3385,-2.2133,-2.0851,-1.9759,-1.8833,-1.7984,-1.7067,-1.6275,-1.5633,-1.4756,-1.3863,-1.2891,-1.2445,-1.2071,-1.1768,-1.1751,-1.2069,-1.2296,-1.2331,-1.2261,-1.214,-1.202,-1.1869,-1.1816,-1.1725,-1.1677,-1.1872,-1.1996,-1.212,-1.2243,-1.2552,-1.2797,-1.292,-1.3042,-1.3103,-1.3033,-1.2972,-1.2797,-1.2736,-1.2805,-1.2744,-1.2621,-1.256,-1.2621,-1.2728,-1.2879,-1.3183,-1.3312,-1.2956,-1.2589,-1.2158,-1.1648,-1.0892,-1.0072,-0.9302,-0.8533,-0.7683,-0.6651,-0.5645,-0.4006,-0.2178,-0.0304,0.1422,0.3173,0.4983,0.6781,0.8515,1.0428,1.2252,1.4133,1.6216,-3.5058,-3.4804,-3.4399,-3.3949,-3.3487,-3.3503,-3.3414,-3.333,-3.4038,-3.4398,-3.4399,-3.4314,-3.4264,-3.4233,-3.4151,-3.3933,-3.3729,-3.3642,-3.3487,-3.324,-3.324,-3.3224,-3.3224,-3.324,-3.333,-3.3382,-3.3382,-3.333,-3.3171,-3.2734,-3.1965,-3.09,-3.0286,-2.9469,-2.853,-2.7402,-2.6997,-2.6938,-2.7041,-2.6975,-2.6547,-2.5839,-2.4915,-2.384,-2.2814,-2.1701,-2.0502,-1.946,-1.8555,-1.7754,-1.6933,-1.6036,-1.505,-1.4222,-1.3268,-1.2605,-1.2111,-1.1626,-1.1305,-1.1224,-1.1348,-1.1642,-1.1922,-1.206,-1.2033,-1.1992,-1.1897,-1.1646,-1.1553,-1.1464,-1.156,-1.1622,-1.1747,-1.1864,-1.1988,-1.2236,-1.2421,-1.2613,-1.2674,-1.2674,-1.2482,-1.2359,-1.2305,-1.2367,-1.2305,-1.1996,-1.1864,-1.1872,-1.1802,-1.1896,-1.2074,-1.2266,-1.2027,-1.16,-1.108,-1.0577,-0.9824,-0.9064,-0.8221,-0.7432,-0.658,-0.5436,-0.423,-0.2528,-0.0764,0.0867,0.2598,0.4318,0.5945,0.7509,0.9299,1.1091,1.2831,1.4536,1.6262,-3.4448,-3.425,-3.3745,-3.3398,-3.3219,-3.3112,-3.3005,-3.3005,-3.3165,-3.3503,-3.3706,-3.381,-3.3773,-3.3674,-3.3642,-3.3419,-3.3208,-3.3102,-3.2926,-3.278,-3.2672,-3.2687,-3.2617,-3.2687,-3.2672,-3.2656,-3.2617,-3.2633,-3.2413,-3.1977,-3.1519,-3.0877,-2.9962,-2.884,-2.8245,-2.7057,-2.6322,-2.615,-2.6068,-2.6094,-2.5835,-2.5438,-2.4696,-2.3594,-2.2535,-2.1506,-2.0316,-1.9114,-1.8305,-1.7512,-1.6673,-1.5633,-1.4529,-1.3812,-1.3147,-1.2544,-1.1926,-1.1498,-1.108,-1.0853,-1.0913,-1.1096,-1.1376,-1.1693,-1.1859,-1.1929,-1.1833,-1.1579,-1.1375,-1.1298,-1.1185,-1.1247,-1.131,-1.1365,-1.149,-1.174,-1.1996,-1.212,-1.2313,-1.2182,-1.205,-1.1988,-1.1934,-1.1872,-1.174,-1.1553,-1.1288,-1.1101,-1.0919,-1.0899,-1.0961,-1.1087,-1.1038,-1.0598,-1.0078,-0.943,-0.8667,-0.7892,-0.7111,-0.626,-0.547,-0.413,-0.2727,-0.1122,0.052,0.2029,0.3599,0.531,0.6958,0.8392,0.9967,1.1757,1.3422,1.5082,1.6655,-3.3848,-3.3694,-3.3171,-3.292,-3.2812,-3.2703,-3.2718,-3.2664,-3.2695,-3.2734,-3.2935,-3.3192,-3.3246,-3.3134,-3.3102,-3.2942,-3.2656,-3.2547,-3.2453,-3.2358,-3.2287,-3.2247,-3.2247,-3.2247,-3.2247,-3.2191,-3.212,-3.1966,-3.1682,-3.1394,-3.0984,-3.0573,-2.942,-2.8382,-2.794,-2.6819,-2.5879,-2.5619,-2.5314,-2.5203,-2.516,-2.4811,-2.423,-2.318,-2.2398,-2.135,-2.019,-1.905,-1.8246,-1.7244,-1.6218,-1.5245,-1.424,-1.358,-1.3033,-1.249,-1.1934,-1.1428,-1.1059,-1.0785,-1.0631,-1.0817,-1.0902,-1.122,-1.1563,-1.1585,-1.1425,-1.1195,-1.1204,-1.1067,-1.0869,-1.0807,-1.0807,-1.087,-1.1178,-1.1428,-1.1622,-1.1747,-1.1872,-1.1872,-1.174,-1.1615,-1.1553,-1.1498,-1.1373,-1.1059,-1.08,-1.0604,-1.0351,-1.0028,-1.0028,-0.9964,-0.9907,-0.9524,-0.9005,-0.8215,-0.7437,-0.6719,-0.5997,-0.4803,-0.3808,-0.2613,-0.1272,0.0199,0.1581,0.2986,0.4586,0.6269,0.7757,0.9219,1.0762,1.2387,1.3981,1.5592,1.7203,-3.3361,-3.3134,-3.2812,-3.2523,-3.2398,-3.2398,-3.2342,-3.2342,-3.2358,-3.2287,-3.2262,-3.2616,-3.264,-3.2578,-3.2492,-3.2342,-3.2247,-3.2191,-3.2109,-3.1996,-3.1925,-3.1925,-3.1925,-3.194,-3.1925,-3.1811,-3.1682,-3.1437,-3.1219,-3.0925,-3.06,-3.0158,-2.9142,-2.7923,-2.7397,-2.6426,-2.5508,-2.5272,-2.4991,-2.4708,-2.4478,-2.4234,-2.367,-2.3052,-2.2317,-2.1403,-2.0189,-1.9153,-1.8318,-1.7194,-1.5989,-1.5069,-1.4249,-1.358,-1.2972,-1.249,-1.1934,-1.149,-1.1052,-1.0814,-1.0766,-1.0725,-1.0673,-1.0814,-1.1158,-1.1233,-1.1018,-1.1002,-1.0949,-1.0797,-1.054,-1.0371,-1.0371,-1.0434,-1.0807,-1.1122,-1.1247,-1.1373,-1.1435,-1.1498,-1.1373,-1.124,-1.1115,-1.1059,-1.087,-1.0561,-1.0364,-1.0174,-0.9913,-0.9594,-0.9396,-0.9075,-0.8818,-0.8366,-0.7917,-0.7186,-0.6461,-0.5668,-0.4878,-0.3478,-0.2211,-0.1342,-0.0201,0.1205,0.2588,0.3939,0.5456,0.7114,0.8546,0.9966,1.1462,1.3004,1.4556,1.6125,1.7762,-3.2881,-3.2703,-3.2633,-3.2468,-3.2247,-3.2247,-3.2191,-3.2094,-3.2094,-3.2038,-3.2053,-3.2109,-3.2165,-3.2109,-3.215,-3.2038,-3.1925,-3.1883,-3.1769,-3.164,-3.164,-3.1655,-3.1597,-3.164,-3.1524,-3.1409,-3.1219,-3.0925,-3.0807,-3.0553,-3.0237,-2.9907,-2.8647,-2.7762,-2.7349,-2.6325,-2.5298,-2.5032,-2.4778,-2.4505,-2.4229,-2.3923,-2.3556,-2.2921,-2.2253,-2.1302,-2.0284,-1.9332,-1.8363,-1.7229,-1.6046,-1.5059,-1.4359,-1.37,-1.3155,-1.2613,-1.212,-1.1677,-1.1303,-1.0996,-1.0866,-1.0688,-1.0665,-1.0646,-1.0824,-1.094,-1.0827,-1.083,-1.0706,-1.0438,-1.0162,-1.0123,-1.0117,-1.0244,-1.0498,-1.0807,-1.0996,-1.0996,-1.1066,-1.0996,-1.087,-1.0681,-1.0485,-1.0428,-1.0301,-1.0047,-0.9849,-0.9652,-0.9524,-0.9145,-0.8765,-0.8371,-0.7917,-0.7461,-0.7003,-0.6338,-0.5543,-0.4752,-0.3751,-0.2546,-0.1341,-0.0403,0.0805,0.2079,0.3476,0.4841,0.6375,0.7879,0.929,1.0713,1.2125,1.3586,1.5127,1.6572,1.8091]},{"header":{"parameterUnit":"m.s-1","parameterCategory":1,"la1":31.0,"la2":29.5877,"lo1":-88.7671,"lo2":-86.6584,"dy":0.0162,"dx":0.0185,"nx":115,"ny":88,"refTime":"2024-04-20T06:00:00:Z","depth":0,"parameterNumber":3,"parameterNumberName":"V-component_of_WINDS"},"data":[0.0,0.0,0.0,0.0,0.0,0.0,0.0,0.0,0.0,0.0,0.0,0.0,0.0,0.0,0.0,0.0,0.0,0.0,0.0,0.0,0.0,0.0,0.0,0.0,0.0,0.0,0.0,0.0,0.0,0.0,0.0,0.0,0.0,0.0,0.0,0.0,0.0,0.0,0.0,0.0,0.0,0.0,0.0,0.0,0.0,0.0,0.0,0.0,0.0,0.0,0.0,0.0,0.0,0.0,0.0,0.0,0.0,0.0,0.0,0.0,0.0,0.0,0.0,0.0,0.0,0.0,0.0,0.0,0.0,0.0,0.0,0.0,0.0,0.0,0.0,0.0,0.0,0.0,0.0,0.0,0.0,0.0,0.0,0.0,0.0,0.0,0.0,0.0,0.0,0.0,0.0,0.0,0.0,0.0,0.0,0.0,0.0,0.0,0.0,0.0,0.0,0.0,0.0,0.0,0.0,0.0,0.0,0.0,0.0,0.0,0.0,0.0,0.0,0.0,0.0,0.0,0.0,0.0,0.0,0.0,0.0,0.0,0.0,0.0,0.0,0.0,0.0,0.0,0.0,0.0,0.0,0.0,0.0,0.0,0.0,0.0,0.0,0.0,0.0,0.0,0.0,0.0,0.0,0.0,0.0,0.0,0.0,0.0,0.0,0.0,0.0,0.0,0.0,0.0,0.0,0.0,0.0,0.0,0.0,0.0,0.0,0.0,0.0,0.0,0.0,0.0,0.0,0.0,0.0,0.0,0.0,0.0,0.0,0.0,0.0,0.0,0.0,0.0,0.0,0.0,0.0,0.0,0.0,0.0,0.0,0.0,0.0,0.0,0.0,0.0,0.0,0.0,0.0,0.0,0.0,0.0,0.0,0.0,0.0,0.0,0.0,0.0,0.0,0.0,0.0,0.0,0.0,0.0,0.0,0.0,0.0,0.0,0.0,0.0,0.0,0.0,0.0,0.0,0.0,0.0,0.0,0.0,0.0,0.0,0.0,0.0,0.0,0.0,0.0,0.0,0.0,0.0,0.0,0.0,0.0,0.0,0.0,0.0,0.0,0.0,0.0,0.0,0.0,0.0,0.0,0.0,0.0,0.0,0.0,0.0,0.0,0.0,0.0,0.0,0.0,0.0,0.0,0.0,0.0,0.0,0.0,0.0,0.0,0.0,0.0,0.0,0.0,0.0,0.0,0.0,0.0,0.0,0.0,0.0,0.0,0.0,0.0,0.0,0.0,0.0,0.0,0.0,0.0,0.0,0.0,0.0,0.0,0.0,0.0,0.0,0.0,0.0,0.0,0.0,0.0,0.0,0.0,0.0,0.0,0.0,0.0,0.0,0.0,0.0,0.0,0.0,0.0,0.0,0.0,0.0,0.0,0.0,0.0,0.0,0.0,0.0,0.0,0.0,0.0,0.0,0.0,0.0,0.0,0.0,0.0,0.0,0.0,0.0,0.0,0.0,0.0,0.0,0.0,0.0,0.0,0.0,0.0,0.0,0.0,0.0,0.0,0.0,0.0,0.0,0.0,0.0,0.0,0.0,0.0,0.0,0.0,0.0,0.0,0.0,0.0,0.0,0.0,0.0,0.0,0.0,0.0,0.0,0.0,0.0,0.0,0.0,0.0,0.0,0.0,0.0,0.0,0.0,0.0,0.0,0.0,0.0,0.0,0.0,0.0,0.0,0.0,0.0,0.0,0.0,0.0,0.0,0.0,0.0,0.0,0.0,0.0,0.0,0.0,0.0,0.0,0.0,0.0,0.0,0.0,0.0,0.0,0.0,0.0,0.0,0.0,0.0,0.0,0.0,0.0,0.0,0.0,0.0,0.0,0.0,0.0,0.0,0.0,0.0,0.0,0.0,0.0,0.0,0.0,0.0,0.0,0.0,0.0,0.0,0.0,0.0,0.0,0.0,0.0,0.0,0.0,0.0,0.0,0.0,0.0,0.0,0.0,0.0,0.0,0.0,0.0,0.0,0.0,0.0,0.0,0.0,0.0,0.0,0.0,0.0,0.0,0.0,0.0,0.0,0.0,0.0,0.0,0.0,0.0,0.0,0.0,0.0,0.0,0.0,0.0,0.0,0.0,0.0,0.0,0.0,0.0,0.0,0.0,0.0,0.0,0.0,0.0,0.0,0.0,0.0,0.0,0.0,0.0,0.0,0.0,0.0,0.0,0.0,0.0,0.0,0.0,0.0,0.0,0.0,0.0,0.0,0.0,0.0,0.0,0.0,0.0,0.0,0.0,0.0,0.0,0.0,0.0,0.0,0.0,0.0,0.0,0.0,0.0,0.0,0.0,0.0,0.0,0.0,0.0,0.0,0.0,0.0,0.0,0.0,0.0,0.0,0.0,0.0,0.0,0.0,0.0,0.0,0.0,0.0,0.0,0.0,0.0,0.0,0.0,0.0,0.0,0.0,0.0,0.0,0.0,0.0,0.0,0.0,0.0,0.0,0.0,0.0,0.0,0.0,0.0,0.0,0.0,0.0,0.0,0.0,0.0,0.0,0.0,0.0,0.0,0.0,0.0,0.0,0.0,0.0,0.0,0.0,0.0,0.0,0.0,0.0,0.0,0.0,0.0,0.0,0.0,0.0,0.0,0.0,0.0,0.0,0.0,0.0,0.0,0.0,0.0,0.0,0.0,0.0,0.0,0.0,0.0,0.0,0.0,0.0,0.0,0.0,0.0,0.0,0.0,0.0,0.0,0.0,0.0,0.0,0.0,0.0,0.0,0.0,0.0,0.0,0.0,0.0,0.0,0.0,0.0,0.0,0.0,0.0,0.0,0.0,0.0,0.0,0.0,0.0,0.0,0.0,0.0,0.0,0.0,0.0,0.0,0.0,0.0,0.0,0.0,0.0,0.0,0.0,0.0,0.0,0.0,0.0,0.0,0.0,0.0,0.0,0.0,0.0,0.0,0.0,0.0,0.0,0.0,0.0,0.0,0.0,0.0,0.0,0.0,0.0,0.0,0.0,0.0,0.0,0.0,0.0,0.0,0.0,0.0,0.0,0.0,0.0,0.0,0.0,0.0,0.0,0.0,0.0,0.0,0.0,0.0,0.0,0.0,0.0,0.0,0.0,0.0,0.0,0.0,0.0,0.0,0.0,0.0,0.0,0.0,0.0,0.0,0.0,0.0,0.0,0.0,0.0,0.0,0.0,0.0,0.0,0.0,0.0,0.0,0.0,0.0,0.0,0.0,0.0,0.0,0.0,0.0,0.0,0.0,0.0,0.0,0.0,0.0,0.0,0.0,0.0,0.0,0.0,0.0,0.0,0.0,0.0,0.0,0.0,0.0,0.0,0.0,0.0,0.0,0.0,0.0,0.0,0.0,0.0,0.0,0.0,0.0,0.0,0.0,0.0,0.0,0.0,0.0,0.0,0.0,0.0,0.0,0.0,0.0,0.0,0.0,0.0,0.0,0.0,0.0,0.0,0.0,0.0,0.0,0.0,0.0,0.0,0.0,0.0,0.0,0.0,0.0,0.0,0.0,0.0,0.0,0.0,0.0,0.0,0.0,0.0,0.0,0.0,0.0,0.0,0.0,0.0,0.0,0.0,0.0,0.0,0.0,0.0,0.0,0.0,0.0,0.0,0.0,0.0,0.0,0.0,0.0,0.0,0.0,0.0,0.0,0.0,0.0,0.0,0.0,0.0,0.0,0.0,0.0,0.0,0.0,0.0,0.0,0.0,0.0,0.0,0.0,0.0,0.0,0.0,0.0,0.0,0.0,0.0,0.0,0.0,0.0,0.0,0.0,0.0,0.0,0.0,0.0,0.0,0.0,0.0,0.0,0.0,0.0,0.0,0.0,0.0,0.0,0.0,0.0,0.0,0.0,0.0,0.0,0.0,0.0,0.0,0.0,0.0,0.0,0.0,0.0,0.0,0.0,0.0,0.0,0.0,0.0,0.0,0.0,0.0,0.0,0.0,0.0,0.0,0.0,0.0,0.0,0.0,0.0,0.0,0.0,0.0,0.0,0.0,0.0,0.0,0.0,0.0,0.0,0.0,0.0,0.0,0.0,0.0,0.0,0.0,0.0,0.0,0.0,0.0,0.0,0.0,0.0,0.0,0.0,0.0,0.0,0.0,0.0,0.0,0.0,0.0,0.0,0.0,0.0,0.0,0.0,0.0,0.0,0.0,0.0,0.0,0.0,0.0,0.0,0.0,0.0,0.0,0.0,0.0,0.0,0.0,0.0,0.0,0.0,0.0,0.0,0.0,0.0,0.0,0.0,0.0,0.0,0.0,0.0,0.0,0.0,0.0,0.0,0.0,-1.1601,0.0,0.0,0.0,0.0,0.0,0.0,0.0,0.0,0.0,0.0,0.0,0.0,0.0,0.0,0.0,0.0,0.0,0.0,0.0,0.0,0.0,0.0,0.0,0.0,0.0,0.0,0.0,0.0,0.0,0.0,0.0,0.0,0.0,0.0,0.0,0.0,0.0,0.0,0.0,0.0,0.0,0.0,0.0,0.0,0.0,0.0,0.0,0.0,0.0,0.0,0.0,0.0,0.0,0.0,0.0,0.0,0.0,0.0,0.0,0.0,0.0,0.0,0.0,0.0,0.0,0.0,0.0,0.0,0.0,0.0,0.0,0.0,0.0,0.0,0.0,0.0,0.0,0.0,0.0,0.0,0.0,0.0,0.0,0.0,0.0,0.0,0.0,0.0,0.0,0.0,0.0,0.0,0.0,0.0,0.0,0.0,0.0,0.0,0.0,0.0,0.0,0.0,0.0,0.0,0.0,0.0,0.0,0.0,0.0,0.0,-1.2545,-1.1411,-1.1376,-1.1444,-1.1541,0.0,0.0,0.0,0.0,0.0,0.0,0.0,0.0,0.0,0.0,0.0,0.0,0.0,0.0,0.0,0.0,0.0,0.0,0.0,0.0,0.0,0.0,0.0,0.0,0.0,0.0,0.0,0.0,0.0,0.0,0.0,0.0,0.0,0.0,0.0,0.0,0.0,0.0,0.0,0.0,0.0,0.0,0.0,0.0,0.0,0.0,0.0,0.0,0.0,0.0,0.0,0.0,0.0,0.0,0.0,0.0,0.0,0.0,0.0,0.0,0.0,0.0,0.0,0.0,0.0,0.0,0.0,0.0,0.0,0.0,0.0,0.0,0.0,0.0,0.0,0.0,0.0,0.0,0.0,0.0,0.0,0.0,0.0,0.0,0.0,0.0,0.0,0.0,0.0,0.0,0.0,0.0,0.0,0.0,0.0,0.0,0.0,0.0,0.0,0.0,0.0,0.0,0.0,0.0,0.0,0.0,0.0,0.0,0.0,0.0,0.0,0.0,-1.1307,-1.1376,-1.1489,0.0,0.0,0.0,0.0,0.0,0.0,0.0,0.0,0.0,0.0,0.0,0.0,0.0,0.0,0.0,0.0,0.0,0.0,0.0,0.0,0.0,0.0,0.0,0.0,0.0,0.0,0.0,0.0,0.0,0.0,0.0,0.0,0.0,0.0,0.0,0.0,0.0,0.0,0.0,0.0,0.0,0.0,0.0,0.0,0.0,0.0,0.0,0.0,0.0,0.0,0.0,0.0,0.0,0.0,0.0,0.0,0.0,0.0,0.0,0.0,0.0,0.0,0.0,0.0,0.0,0.0,0.0,0.0,0.0,0.0,0.0,0.0,0.0,0.0,0.0,0.0,0.0,0.0,0.0,0.0,0.0,0.0,0.0,0.0,0.0,0.0,0.0,0.0,0.0,0.0,0.0,0.0,0.0,0.0,0.0,0.0,0.0,0.0,0.0,0.0,0.0,0.0,0.0,0.0,0.0,0.0,0.0,0.0,0.0,0.0,-1.1635,-1.1043,-1.1085,0.0,-1.1504,0.0,0.0,0.0,0.0,0.0,0.0,0.0,0.0,0.0,0.0,0.0,0.0,0.0,0.0,0.0,0.0,0.0,0.0,0.0,0.0,0.0,0.0,0.0,0.0,0.0,0.0,0.0,0.0,0.0,0.0,0.0,0.0,0.0,0.0,0.0,0.0,0.0,0.0,0.0,0.0,0.0,0.0,0.0,0.0,0.0,0.0,0.0,0.0,0.0,0.0,0.0,0.0,0.0,0.0,0.0,0.0,0.0,0.0,0.0,0.0,0.0,0.0,0.0,0.0,0.0,0.0,0.0,0.0,0.0,0.0,0.0,0.0,0.0,0.0,0.0,0.0,0.0,0.0,0.0,0.0,0.0,0.0,0.0,0.0,0.0,0.0,0.0,0.0,0.0,0.0,0.0,0.0,0.0,0.0,0.0,0.0,0.0,0.0,0.0,0.0,0.0,0.0,0.0,0.0,0.0,0.0,0.0,0.0,0.0,0.0,-1.1593,-1.1019,-1.1123,-1.1262,0.0,0.0,0.0,0.0,0.0,0.0,0.0,0.0,0.0,0.0,0.0,0.0,0.0,0.0,0.0,0.0,0.0,0.0,0.0,0.0,0.0,0.0,0.0,0.0,0.0,0.0,0.0,0.0,0.0,0.0,0.0,0.0,0.0,0.0,0.0,0.0,0.0,0.0,0.0,0.0,0.0,0.0,0.0,0.0,0.0,0.0,0.0,0.0,0.0,0.0,0.0,0.0,0.0,0.0,0.0,0.0,0.0,0.0,0.0,0.0,0.0,0.0,0.0,0.0,0.0,0.0,0.0,0.0,0.0,0.0,0.0,0.0,0.0,0.0,0.0,0.0,0.0,0.0,0.0,0.0,0.0,0.0,0.0,0.0,0.0,0.0,0.0,0.0,0.0,0.0,0.0,0.0,0.0,0.0,0.0,0.0,0.0,0.0,0.0,0.0,0.0,0.0,0.0,0.0,0.0,0.0,0.0,0.0,0.0,0.0,-1.1668,-1.1413,-1.1043,-1.1085,-1.1201,-1.1353,0.0,0.0,0.0,0.0,0.0,0.0,0.0,0.0,0.0,0.0,0.0,0.0,0.0,0.0,0.0,0.0,0.0,0.0,0.0,0.0,0.0,0.0,0.0,0.0,0.0,0.0,0.0,0.0,0.0,0.0,0.0,0.0,0.0,0.0,0.0,0.0,0.0,0.0,0.0,0.0,0.0,0.0,0.0,0.0,0.0,0.0,0.0,0.0,0.0,0.0,0.0,0.0,0.0,0.0,0.0,0.0,0.0,0.0,0.0,0.0,0.0,0.0,0.0,0.0,0.0,0.0,0.0,0.0,0.0,0.0,0.0,0.0,0.0,0.0,0.0,0.0,0.0,0.0,0.0,0.0,0.0,0.0,0.0,0.0,0.0,0.0,0.0,0.0,0.0,0.0,0.0,0.0,0.0,0.0,0.0,0.0,0.0,0.0,0.0,0.0,0.0,0.0,0.0,0.0,0.0,0.0,0.0,0.0,-1.178,-1.1242,-1.0948,-1.0991,-1.1005,-1.1062,0.0,0.0,0.0,0.0,0.0,0.0,0.0,0.0,0.0,0.0,0.0,0.0,0.0,0.0,0.0,0.0,0.0,0.0,0.0,0.0,0.0,0.0,0.0,0.0,0.0,0.0,0.0,0.0,0.0,0.0,0.0,0.0,0.0,0.0,0.0,0.0,0.0,0.0,0.0,0.0,0.0,0.0,0.0,0.0,0.0,0.0,0.0,0.0,0.0,0.0,0.0,0.0,0.0,0.0,0.0,0.0,0.0,0.0,0.0,0.0,0.0,0.0,0.0,0.0,0.0,0.0,0.0,0.0,0.0,0.0,0.0,0.0,0.0,0.0,0.0,0.0,0.0,0.0,0.0,0.0,0.0,0.0,0.0,0.0,0.0,0.0,0.0,0.0,0.0,0.0,0.0,0.0,0.0,0.0,0.0,0.0,0.0,0.0,0.0,0.0,0.0,0.0,0.0,0.0,0.0,0.0,0.0,0.0,0.0,-1.1214,-1.1045,-1.1005,-1.1062,-1.1062,-1.1123,0.0,0.0,0.0,0.0,0.0,0.0,0.0,0.0,0.0,0.0,0.0,0.0,0.0,0.0,0.0,0.0,0.0,0.0,0.0,0.0,0.0,0.0,0.0,0.0,0.0,0.0,0.0,0.0,0.0,0.0,0.0,0.0,0.0,0.0,0.0,0.0,0.0,0.0,0.0,0.0,0.0,0.0,0.0,0.0,0.0,0.0,0.0,0.0,0.0,0.0,0.0,0.0,0.0,0.0,0.0,0.0,0.0,0.0,0.0,0.0,0.0,0.0,0.0,0.0,0.0,0.0,0.0,0.0,0.0,0.0,0.0,0.0,0.0,0.0,0.0,0.0,0.0,0.0,0.0,0.0,0.0,0.0,0.0,0.0,0.0,0.0,0.0,0.0,0.0,0.0,0.0,0.0,0.0,0.0,0.0,0.0,0.0,0.0,0.0,0.0,0.0,0.0,0.0,0.0,0.0,0.0,0.0,0.0,0.0,-1.0968,0.0,-1.1038,-1.1099,-1.1099,-1.1146,0.0,0.0,0.0,0.0,0.0,0.0,0.0,0.0,0.0,0.0,0.0,0.0,0.0,0.0,0.0,0.0,0.0,0.0,0.0,0.0,0.0,0.0,0.0,0.0,0.0,0.0,0.0,0.0,0.0,0.0,0.0,0.0,0.0,0.0,0.0,0.0,0.0,0.0,0.0,0.0,0.0,0.0,0.0,0.0,0.0,0.0,0.0,0.0,0.0,0.0,0.0,0.0,0.0,0.0,0.0,0.0,0.0,0.0,0.0,0.0,0.0,0.0,0.0,0.0,0.0,0.0,0.0,0.0,0.0,0.0,0.0,0.0,0.0,0.0,0.0,0.0,0.0,0.0,0.0,0.0,0.0,0.0,0.0,0.0,0.0,0.0,0.0,0.0,0.0,0.0,0.0,0.0,0.0,0.0,0.0,0.0,0.0,0.0,0.0,0.0,0.0,0.0,0.0,0.0,0.0,0.0,0.0,0.0,-1.1099,-1.1099,-1.1151,-1.1183,-1.1127,-1.1141,-1.116,0.0,0.0,0.0,0.0,0.0,0.0,0.0,0.0,0.0,0.0,0.0,0.0,0.0,0.0,0.0,0.0,0.0,0.0,0.0,0.0,0.0,0.0,0.0,0.0,0.0,0.0,0.0,0.0,0.0,0.0,0.0,0.0,0.0,0.0,0.0,0.0,0.0,0.0,0.0,0.0,0.0,0.0,0.0,0.0,0.0,0.0,0.0,0.0,0.0,0.0,0.0,0.0,0.0,0.0,0.0,0.0,0.0,0.0,0.0,0.0,0.0,0.0,0.0,0.0,0.0,0.0,0.0,0.0,0.0,0.0,0.0,0.0,0.0,0.0,0.0,0.0,0.0,0.0,0.0,0.0,0.0,0.0,0.0,0.0,0.0,0.0,0.0,0.0,0.0,0.0,0.0,0.0,0.0,0.0,0.0,0.0,0.0,0.0,0.0,0.0,0.0,0.0,0.0,0.0,0.0,0.0,0.0,0.0,0.0,-1.1731,-1.2193,-1.2404,-1.2404,-1.1956,-1.1755,0.0,0.0,0.0,0.0,0.0,0.0,0.0,0.0,0.0,0.0,0.0,0.0,0.0,0.0,0.0,0.0,0.0,0.0,0.0,0.0,0.0,0.0,0.0,0.0,0.0,0.0,0.0,0.0,0.0,0.0,0.0,0.0,0.0,0.0,0.0,0.0,0.0,0.0,0.0,0.0,0.0,0.0,0.0,0.0,0.0,0.0,0.0,0.0,0.0,0.0,0.0,0.0,0.0,0.0,0.0,0.0,0.0,0.0,0.0,0.0,0.0,0.0,0.0,0.0,0.0,0.0,0.0,0.0,0.0,0.0,0.0,0.0,0.0,0.0,0.0,0.0,0.0,0.0,0.0,0.0,0.0,0.0,0.0,0.0,0.0,0.0,0.0,0.0,0.0,0.0,0.0,0.0,0.0,0.0,0.0,0.0,0.0,0.0,0.0,0.0,0.0,0.0,0.0,0.0,0.0,0.0,0.0,0.0,0.0,-1.2941,-1.2996,-1.3009,-1.3009,-1.2601,-1.2334,-1.2187,0.0,0.0,0.0,0.0,0.0,0.0,0.0,0.0,0.0,0.0,0.0,0.0,0.0,0.0,0.0,0.0,0.0,0.0,0.0,0.0,0.0,0.0,0.0,0.0,0.0,0.0,0.0,0.0,0.0,0.0,0.0,0.0,0.0,0.0,0.0,0.0,0.0,0.0,0.0,0.0,0.0,0.0,0.0,0.0,0.0,0.0,0.0,0.0,0.0,0.0,0.0,0.0,0.0,0.0,0.0,0.0,0.0,0.0,0.0,0.0,0.0,0.0,0.0,0.0,0.0,0.0,0.0,0.0,0.0,0.0,0.0,0.0,0.0,0.0,0.0,0.0,0.0,0.0,0.0,0.0,0.0,0.0,0.0,0.0,0.0,0.0,0.0,0.0,0.0,0.0,0.0,0.0,0.0,0.0,0.0,0.0,0.0,0.0,0.0,0.0,0.0,0.0,0.0,0.0,0.0,0.0,0.0,0.0,-1.4648,-1.3726,-1.322,-1.3192,-1.315,-1.2837,0.0,0.0,0.0,0.0,0.0,0.0,0.0,0.0,0.0,0.0,0.0,0.0,0.0,0.0,0.0,0.0,0.0,0.0,0.0,0.0,0.0,0.0,0.0,0.0,0.0,0.0,0.0,0.0,0.0,0.0,0.0,0.0,0.0,0.0,0.0,0.0,0.0,0.0,0.0,0.0,0.0,0.0,0.0,0.0,0.0,0.0,0.0,0.0,0.0,0.0,0.0,0.0,0.0,0.0,0.0,0.0,0.0,0.0,0.0,0.0,0.0,0.0,0.0,0.0,0.0,0.0,0.0,0.0,0.0,0.0,0.0,0.0,0.0,0.0,0.0,0.0,0.0,0.0,0.0,0.0,0.0,0.0,0.0,0.0,0.0,0.0,0.0,0.0,0.0,0.0,0.0,0.0,0.0,0.0,0.0,0.0,0.0,0.0,0.0,0.0,0.0,0.0,0.0,0.0,0.0,0.0,0.0,0.0,0.0,-1.5282,-1.559,-1.545,-1.4956,-1.4539,-1.3826,0.0,0.0,0.0,0.0,0.0,0.0,0.0,0.0,0.0,0.0,0.0,0.0,0.0,0.0,0.0,0.0,0.0,0.0,0.0,0.0,0.0,0.0,0.0,0.0,0.0,0.0,0.0,0.0,0.0,0.0,0.0,0.0,0.0,0.0,0.0,0.0,0.0,0.0,0.0,0.0,0.0,0.0,0.0,0.0,0.0,0.0,0.0,0.0,0.0,0.0,0.0,0.0,0.0,0.0,0.0,0.0,0.0,0.0,0.0,0.0,0.0,0.0,0.0,0.0,0.0,0.0,0.0,0.0,0.0,0.0,0.0,0.0,0.0,0.0,0.0,0.0,0.0,0.0,0.0,0.0,0.0,0.0,0.0,0.0,0.0,0.0,0.0,0.0,0.0,0.0,0.0,0.0,0.0,0.0,0.0,0.0,0.0,0.0,0.0,0.0,0.0,0.0,0.0,0.0,0.0,0.0,0.0,0.0,-1.4816,-1.5868,-1.6627,-1.6731,-1.6228,-1.5552,-1.4598,0.0,0.0,0.0,0.0,0.0,0.0,0.0,0.0,0.0,0.0,0.0,0.0,0.0,0.0,0.0,0.0,0.0,0.0,0.0,0.0,0.0,0.0,0.0,0.0,0.0,0.0,0.0,0.0,0.0,0.0,0.0,0.0,0.0,0.0,0.0,0.0,0.0,0.0,0.0,0.0,0.0,0.0,0.0,0.0,0.0,0.0,0.0,0.0,0.0,0.0,0.0,0.0,0.0,0.0,0.0,0.0,0.0,0.0,0.0,0.0,0.0,0.0,0.0,0.0,0.0,0.0,0.0,0.0,0.0,0.0,0.0,0.0,0.0,0.0,0.0,0.0,0.0,0.0,0.0,0.0,0.0,0.0,0.0,0.0,0.0,0.0,0.0,0.0,0.0,0.0,0.0,0.0,0.0,0.0,0.0,0.0,0.0,0.0,0.0,0.0,0.0,0.0,0.0,0.0,0.0,0.0,0.0,0.0,-1.537,-1.6289,-1.7075,-1.7398,-1.7156,-1.627,-1.5212,0.0,0.0,0.0,0.0,0.0,0.0,0.0,0.0,0.0,0.0,0.0,0.0,0.0,0.0,0.0,0.0,0.0,0.0,0.0,0.0,0.0,0.0,0.0,0.0,0.0,0.0,0.0,0.0,0.0,0.0,0.0,0.0,0.0,0.0,0.0,0.0,0.0,0.0,0.0,0.0,0.0,0.0,0.0,0.0,0.0,0.0,0.0,0.0,0.0,0.0,0.0,0.0,0.0,0.0,0.0,0.0,0.0,0.0,0.0,0.0,0.0,0.0,0.0,0.0,0.0,0.0,0.0,0.0,0.0,0.0,0.0,0.0,0.0,0.0,0.0,0.0,0.0,0.0,0.0,0.0,0.0,0.0,0.0,0.0,0.0,0.0,0.0,0.0,0.0,0.0,0.0,0.0,0.0,0.0,0.0,0.0,0.0,0.0,0.0,0.0,0.0,0.0,0.0,0.0,0.0,0.0,0.0,0.0,-1.5789,-1.6302,-1.7477,-1.8007,-1.781,-1.6771,-1.5654,0.0,0.0,0.0,0.0,0.0,0.0,0.0,0.0,0.0,0.0,0.0,0.0,0.0,0.0,0.0,0.0,0.0,0.0,0.0,0.0,0.0,0.0,0.0,0.0,0.0,0.0,0.0,0.0,0.0,0.0,0.0,0.0,0.0,0.0,0.0,0.0,0.0,0.0,0.0,0.0,0.0,0.0,0.0,0.0,0.0,0.0,0.0,0.0,-1.3474,0.0,0.0,0.0,0.0,0.0,0.0,0.0,0.0,0.0,0.0,0.0,0.0,0.0,0.0,0.0,0.0,0.0,0.0,0.0,0.0,0.0,0.0,0.0,0.0,0.0,0.0,0.0,0.0,0.0,0.0,0.0,0.0,0.0,0.0,0.0,0.0,0.0,0.0,0.0,0.0,0.0,0.0,0.0,0.0,0.0,0.0,0.0,0.0,0.0,0.0,0.0,0.0,0.0,0.0,0.0,0.0,0.0,0.0,0.0,-1.6278,-1.6757,-1.7744,-1.8135,-1.7935,-1.6879,-1.5825,0.0,0.0,0.0,0.0,0.0,0.0,0.0,0.0,0.0,0.0,0.0,0.0,0.0,0.0,0.0,0.0,0.0,0.0,0.0,0.0,0.0,0.0,0.0,0.0,0.0,0.0,0.0,0.0,0.0,0.0,0.0,0.0,0.0,0.0,0.0,0.0,0.0,0.0,0.0,0.0,0.0,0.0,0.0,0.0,0.0,0.0,0.0,0.0,0.0,0.0,0.0,0.0,0.0,0.0,0.0,0.0,0.0,0.0,0.0,0.0,0.0,0.0,0.0,0.0,0.0,0.0,0.0,0.0,0.0,0.0,0.0,0.0,0.0,0.0,0.0,0.0,0.0,0.0,0.0,0.0,0.0,0.0,0.0,0.0,0.0,0.0,0.0,0.0,0.0,0.0,0.0,0.0,0.0,0.0,0.0,0.0,0.0,0.0,0.0,0.0,0.0,0.0,0.0,0.0,0.0,0.0,0.0,-1.5616,-1.6764,-1.7239,-1.7885,-1.8083,-1.7909,-1.6729,-1.5855,-1.5285,0.0,0.0,0.0,0.0,0.0,0.0,0.0,0.0,0.0,0.0,0.0,0.0,0.0,0.0,0.0,0.0,0.0,0.0,0.0,0.0,0.0,0.0,0.0,0.0,0.0,0.0,0.0,0.0,0.0,0.0,0.0,0.0,0.0,0.0,0.0,0.0,0.0,0.0,-1.1177,-1.1861,0.0,0.0,0.0,0.0,0.0,0.0,0.0,0.0,-1.5136,0.0,0.0,0.0,0.0,0.0,0.0,0.0,0.0,0.0,0.0,0.0,0.0,0.0,0.0,0.0,0.0,0.0,0.0,0.0,0.0,0.0,0.0,0.0,0.0,0.0,0.0,0.0,0.0,0.0,0.0,0.0,0.0,0.0,0.0,0.0,0.0,0.0,0.0,0.0,0.0,0.0,0.0,0.0,0.0,0.0,0.0,0.0,0.0,0.0,0.0,0.0,0.0,0.0,0.0,0.0,0.0,-1.4265,-1.5757,-1.6692,-1.7139,-1.7846,-1.8083,-1.7895,-1.6742,-1.5855,-1.5291,0.0,0.0,0.0,0.0,0.0,0.0,0.0,0.0,0.0,0.0,0.0,0.0,0.0,0.0,0.0,0.0,0.0,0.0,0.0,0.0,0.0,0.0,0.0,0.0,0.0,0.0,0.0,0.0,0.0,0.0,0.0,0.0,0.0,0.0,0.0,0.0,0.0,0.0,0.0,-1.3678,-1.3986,0.0,0.0,0.0,0.0,0.0,0.0,0.0,0.0,-1.5661,0.0,0.0,0.0,0.0,0.0,0.0,0.0,0.0,0.0,0.0,0.0,0.0,0.0,0.0,0.0,0.0,0.0,0.0,0.0,0.0,0.0,0.0,0.0,0.0,0.0,0.0,0.0,0.0,0.0,0.0,0.0,0.0,0.0,0.0,0.0,0.0,0.0,0.0,0.0,0.0,0.0,0.0,0.0,0.0,0.0,0.0,0.0,0.0,0.0,0.0,0.0,0.0,0.0,0.0,0.0,-1.4801,-1.6129,-1.705,-1.7564,-1.7997,-1.8123,-1.7909,-1.6729,-1.5855,0.0,0.0,0.0,0.0,0.0,0.0,0.0,0.0,0.0,0.0,0.0,0.0,0.0,0.0,0.0,0.0,0.0,0.0,0.0,0.0,0.0,0.0,0.0,0.0,0.0,0.0,0.0,0.0,0.0,0.0,0.0,0.0,0.0,0.0,0.0,0.0,0.0,0.0,0.0,0.0,-1.445,-1.5022,-1.5819,0.0,0.0,0.0,0.0,0.0,0.0,-1.768,-1.7328,0.0,0.0,0.0,0.0,0.0,0.0,0.0,0.0,0.0,0.0,0.0,0.0,0.0,0.0,0.0,0.0,0.0,0.0,0.0,0.0,0.0,0.0,0.0,0.0,0.0,0.0,0.0,0.0,0.0,0.0,0.0,0.0,0.0,0.0,0.0,0.0,0.0,0.0,0.0,0.0,0.0,0.0,0.0,0.0,0.0,0.0,0.0,0.0,0.0,0.0,0.0,0.0,0.0,0.0,0.0,-1.5486,-1.6668,-1.7607,-1.829,-1.848,-1.8371,-1.8086,-1.6919,-1.5923,0.0,0.0,0.0,0.0,0.0,0.0,0.0,0.0,0.0,0.0,0.0,0.0,0.0,0.0,0.0,0.0,0.0,0.0,0.0,0.0,0.0,0.0,0.0,0.0,0.0,0.0,0.0,0.0,0.0,0.0,0.0,0.0,0.0,0.0,0.0,0.0,0.0,0.0,0.0,0.0,0.0,-1.6153,-1.712,-1.7183,0.0,0.0,0.0,0.0,-1.937,-1.9304,0.0,0.0,0.0,0.0,0.0,0.0,0.0,0.0,0.0,0.0,0.0,0.0,0.0,0.0,0.0,0.0,0.0,0.0,0.0,0.0,0.0,0.0,0.0,0.0,0.0,0.0,0.0,0.0,0.0,0.0,0.0,0.0,0.0,0.0,0.0,0.0,0.0,0.0,0.0,0.0,0.0,0.0,0.0,0.0,0.0,0.0,0.0,0.0,0.0,0.0,0.0,0.0,0.0,0.0,0.0,0.0,-1.6474,-1.7381,-1.8371,-1.9459,-1.9587,-1.9328,-1.8711,-1.7516,-1.6177,0.0,0.0,0.0,0.0,0.0,0.0,0.0,0.0,0.0,0.0,0.0,0.0,0.0,0.0,0.0,0.0,0.0,0.0,0.0,0.0,0.0,0.0,0.0,0.0,0.0,0.0,0.0,0.0,0.0,0.0,0.0,0.0,0.0,0.0,0.0,0.0,0.0,0.0,0.0,0.0,0.0,-1.8071,-1.9578,-1.9279,-1.9125,0.0,0.0,-1.9536,-2.0234,-2.0242,0.0,0.0,0.0,0.0,0.0,0.0,0.0,0.0,0.0,0.0,0.0,0.0,0.0,0.0,0.0,0.0,0.0,0.0,0.0,0.0,0.0,0.0,0.0,0.0,0.0,0.0,0.0,0.0,0.0,0.0,0.0,0.0,0.0,0.0,0.0,0.0,0.0,0.0,0.0,0.0,0.0,0.0,0.0,0.0,0.0,0.0,0.0,0.0,0.0,0.0,0.0,0.0,0.0,0.0,0.0,-1.5326,-1.7196,-1.8031,-1.8847,-1.9659,-1.9762,-1.9505,-1.882,-1.795,-1.6736,0.0,0.0,0.0,0.0,0.0,0.0,0.0,0.0,0.0,0.0,0.0,0.0,0.0,0.0,0.0,0.0,0.0,0.0,0.0,0.0,0.0,0.0,0.0,0.0,0.0,0.0,0.0,0.0,0.0,0.0,0.0,0.0,0.0,0.0,0.0,0.0,0.0,0.0,0.0,0.0,0.0,0.0,-2.0149,-2.0556,0.0,0.0,0.0,-2.1625,-2.2025,0.0,0.0,0.0,0.0,0.0,0.0,0.0,0.0,0.0,0.0,0.0,0.0,0.0,0.0,0.0,0.0,0.0,0.0,0.0,0.0,0.0,0.0,0.0,0.0,0.0,0.0,0.0,0.0,0.0,0.0,0.0,0.0,0.0,0.0,0.0,0.0,0.0,0.0,0.0,0.0,0.0,0.0,0.0,0.0,0.0,0.0,0.0,0.0,0.0,0.0,0.0,0.0,0.0,0.0,0.0,0.0,0.0,-1.7868,-1.864,-1.9317,-2.0062,-2.0152,-1.9809,-1.9182,-1.8451,0.0,0.0,0.0,0.0,0.0,0.0,0.0,0.0,0.0,0.0,0.0,0.0,0.0,0.0,0.0,0.0,0.0,0.0,0.0,0.0,0.0,0.0,0.0,0.0,0.0,0.0,0.0,-1.3003,0.0,0.0,0.0,0.0,0.0,0.0,0.0,0.0,0.0,0.0,0.0,0.0,0.0,0.0,-1.9298,-2.0704,-2.1723,-2.2306,0.0,0.0,-2.3319,-2.335,-2.3066,-2.2395,0.0,0.0,0.0,0.0,0.0,0.0,0.0,0.0,0.0,0.0,0.0,0.0,0.0,0.0,0.0,0.0,0.0,0.0,0.0,0.0,0.0,0.0,0.0,0.0,0.0,0.0,0.0,0.0,0.0,0.0,0.0,0.0,0.0,0.0,0.0,0.0,0.0,0.0,0.0,0.0,0.0,0.0,0.0,0.0,0.0,0.0,0.0,0.0,0.0,0.0,0.0,0.0,0.0,0.0,0.0,-1.8401,-1.9118,-1.9965,-2.1054,-2.1121,-2.0791,-2.0094,-1.9101,-1.7747,0.0,0.0,0.0,0.0,0.0,0.0,0.0,0.0,0.0,0.0,0.0,0.0,0.0,0.0,0.0,0.0,0.0,0.0,0.0,0.0,0.0,0.0,0.0,0.0,0.0,0.0,0.0,0.0,0.0,0.0,0.0,0.0,0.0,0.0,0.0,0.0,0.0,0.0,0.0,0.0,0.0,-2.1003,-2.188,-2.2809,-2.3364,0.0,0.0,-2.354,-2.3502,-2.2738,-2.2103,-2.1848,0.0,0.0,0.0,0.0,0.0,0.0,0.0,0.0,0.0,0.0,0.0,0.0,0.0,0.0,0.0,0.0,0.0,0.0,0.0,0.0,0.0,0.0,0.0,0.0,0.0,0.0,0.0,0.0,0.0,0.0,0.0,0.0,0.0,0.0,0.0,0.0,0.0,0.0,0.0,0.0,0.0,0.0,0.0,0.0,0.0,0.0,0.0,0.0,0.0,0.0,0.0,0.0,0.0,-1.6639,-1.9061,-1.936,-2.0046,-2.1175,-2.118,-2.0898,-2.0227,-1.9892,-1.8906,0.0,0.0,0.0,0.0,0.0,0.0,0.0,0.0,0.0,0.0,0.0,0.0,0.0,0.0,0.0,0.0,0.0,0.0,0.0,0.0,0.0,0.0,0.0,0.0,0.0,0.0,0.0,0.0,-1.8338,-1.8508,-1.7969,0.0,0.0,0.0,0.0,0.0,0.0,0.0,0.0,0.0,0.0,-2.1611,-2.2956,-2.391,0.0,0.0,-2.4037,-2.3708,-2.3676,-2.2892,-2.2077,-2.1437,-1.9773,0.0,0.0,0.0,0.0,0.0,0.0,0.0,0.0,0.0,0.0,0.0,0.0,0.0,0.0,0.0,0.0,0.0,0.0,0.0,0.0,0.0,0.0,0.0,0.0,0.0,0.0,0.0,0.0,0.0,0.0,0.0,0.0,0.0,0.0,0.0,0.0,0.0,0.0,0.0,0.0,0.0,0.0,0.0,0.0,0.0,0.0,0.0,0.0,0.0,0.0,0.0,0.0,-1.6624,-1.9171,-1.9288,-1.9847,-2.1006,-2.1033,-2.0797,-2.0351,-2.0287,-1.9619,0.0,0.0,0.0,0.0,0.0,0.0,0.0,0.0,0.0,0.0,0.0,0.0,0.0,0.0,0.0,0.0,0.0,0.0,0.0,0.0,0.0,0.0,0.0,0.0,0.0,0.0,0.0,0.0,-1.9176,-1.8727,-1.7622,0.0,0.0,0.0,0.0,0.0,0.0,0.0,0.0,0.0,0.0,-2.178,-2.2968,-2.3866,-2.4411,-2.4394,-2.3892,-2.3495,-2.3473,-2.2704,-2.1862,-2.1173,0.0,0.0,0.0,0.0,0.0,0.0,0.0,0.0,0.0,0.0,0.0,0.0,0.0,0.0,0.0,0.0,0.0,0.0,0.0,0.0,0.0,0.0,0.0,0.0,0.0,0.0,0.0,0.0,0.0,0.0,0.2741,0.0,0.0,0.0,0.0,0.0,0.0,0.0,0.0,0.0,0.0,0.0,0.0,0.0,0.0,0.0,0.0,0.0,0.0,0.0,0.0,0.0,0.0,-1.6258,-1.8549,-1.8832,-1.9473,-2.057,-2.061,-2.061,-2.066,-2.0246,-1.9747,-1.9248,0.0,0.0,0.0,0.0,0.0,0.0,0.0,0.0,0.0,0.0,0.0,0.0,0.0,0.0,0.0,0.0,0.0,0.0,0.0,0.0,0.0,0.0,0.0,0.0,0.0,0.0,-1.9004,-1.91,-1.8449,0.0,0.0,0.0,0.0,0.0,0.0,0.0,0.0,0.0,0.0,-2.0476,-2.1524,-2.1594,-2.2304,-2.2896,-2.2812,-2.2802,-2.2784,-2.269,-2.1972,-2.1349,0.0,0.0,0.0,0.0,0.0,0.0,0.0,0.0,0.0,0.0,0.0,0.0,0.0,0.0,0.0,0.0,0.0,0.0,0.0,0.0,0.0,0.0,0.0,0.0,0.0,0.0,0.0,0.2864,0.2822,0.0,0.0,0.0,0.0,0.0,0.0,0.0,0.0,0.0,0.0,0.0,-0.9575,-1.0976,0.0,0.0,0.0,0.0,0.0,0.0,0.0,0.0,0.0,0.0,0.0,0.0,-1.6009,-1.7972,-1.8457,-1.9107,-2.0029,-2.0144,-2.022,-2.0233,-2.0354,-2.0035,-1.9314,0.0,0.0,0.0,0.0,0.0,0.0,0.0,0.0,0.0,0.0,0.0,0.0,0.0,0.0,0.0,0.0,0.0,0.0,0.0,0.0,0.0,0.0,0.0,0.0,0.0,-1.854,0.0,0.0,0.0,0.0,0.0,0.0,0.0,0.0,0.0,0.0,0.0,-1.9563,-2.0659,-2.1282,-2.1842,-2.2424,-2.2749,-2.2926,0.0,0.0,0.0,0.0,0.0,0.0,0.0,0.0,0.0,0.0,0.0,0.0,0.0,0.0,-1.6954,-1.5615,-1.5448,-1.5462,-1.5296,0.0,0.0,0.0,0.0,0.0,0.0,0.0,0.0,0.0,0.0,0.0,0.0,0.0,0.0,-0.0254,0.0,-0.032,0.0,0.0,0.0,0.0,0.0,0.0,0.0,0.0,-0.9771,-1.1209,-1.1575,-1.1843,-1.2196,0.0,-1.3121,-1.3362,0.0,0.0,0.0,0.0,0.0,0.0,0.0,0.0,-1.5421,-1.717,-1.7793,-1.8524,-1.9386,-1.9631,-1.9811,-1.9926,-2.0271,-2.0129,-1.9403,-1.8173,-1.689,0.0,0.0,0.0,0.0,0.0,0.0,0.0,0.0,0.0,0.0,0.0,0.0,0.0,0.0,0.0,0.0,0.0,0.0,0.0,0.0,0.0,0.0,0.0,-1.8897,0.0,0.0,0.0,0.0,0.0,0.0,0.0,0.0,0.0,-1.7889,-1.8892,-2.0016,-2.1133,-2.1287,-2.1473,-2.204,0.0,0.0,0.0,0.0,0.0,0.0,0.0,-2.0249,-1.9959,-2.0792,-2.1348,-2.0976,-2.0285,-1.9713,-1.9475,0.0,0.0,-1.7567,-1.7339,-1.7329,-1.7177,-1.6987,-1.6791,-1.664,-1.6434,-1.6353,0.0,0.0,0.0,0.0,0.0,0.0,0.0,0.0,-0.6471,-0.6639,0.0,-0.6625,0.0,0.0,0.0,0.0,0.0,-0.8608,0.0,0.0,-1.0432,-1.0832,-1.1285,-1.164,-1.2081,-1.2602,-1.3059,-1.3594,-1.4086,-1.3831,0.0,0.0,0.0,0.0,0.0,0.0,-1.464,-1.6177,-1.6911,-1.7693,-1.8584,-1.8951,-1.9331,-1.9747,-2.0016,-1.9976,-1.9561,-1.8918,-1.795,-1.6493,-1.5475,0.0,0.0,0.0,0.0,0.0,0.0,0.0,0.0,0.0,0.0,0.0,0.0,0.0,0.0,0.0,0.0,0.0,0.0,0.0,0.0,-1.9626,0.0,0.0,0.0,0.0,0.0,0.0,0.0,0.0,0.0,0.0,-1.7921,-1.9352,-2.0422,-2.0492,0.0,0.0,0.0,0.0,-2.0527,-2.0544,-2.0511,-2.0528,-2.0506,-2.048,-2.0709,-2.1442,0.0,0.0,-2.2537,-2.2509,-2.23,-2.2077,-2.1872,-2.1443,-2.018,-2.0234,-2.0488,-2.0304,-2.0021,-1.9993,-1.9805,-1.927,-1.9138,-0.4401,0.0,0.0,0.0,0.0,-0.496,-0.5032,-0.5136,-0.5457,-0.5633,-0.5672,-0.5835,0.0,0.0,0.0,0.0,0.0,0.0,-0.8857,-0.9621,-0.9831,-1.0279,-1.0758,-1.1207,-1.1752,-1.2389,-1.2983,-1.3313,-1.355,-1.3812,-1.3639,-1.3088,0.0,0.0,0.0,0.0,-1.4518,-1.5615,-1.6274,-1.6894,-1.749,-1.7929,-1.8417,-1.9056,-1.9239,-1.9334,-1.9329,-1.8995,-1.845,-1.7566,-1.6445,0.0,0.0,0.0,0.0,0.0,0.0,0.0,0.0,0.0,0.0,0.0,0.0,0.0,0.0,0.0,0.0,0.0,0.0,0.0,-1.9788,-2.016,-1.9439,0.0,0.0,0.0,0.0,0.0,0.0,0.0,0.0,0.0,-1.8468,-1.9557,-2.032,0.0,0.0,-2.0437,-2.0422,-2.046,-2.051,-2.0513,-2.0506,0.0,0.0,-2.1006,-2.1462,-2.1711,-2.2688,-2.3515,-2.3645,-2.3551,-2.3384,-2.3175,-2.2996,-2.2882,-2.2941,-2.1866,-2.099,-2.066,-2.0448,-2.0267,-2.0044,-1.9822,-1.9777,-0.353,-0.3943,-0.3892,-0.3901,-0.4009,-0.4012,-0.4064,-0.4229,-0.4458,-0.4591,-0.4706,-0.4997,-0.5311,-0.5592,-0.5923,0.0,0.0,0.0,-0.7963,-0.8483,-0.8833,-0.9217,-0.9627,-1.0218,-1.0787,-1.1337,-1.2012,-1.2453,-1.2721,-1.3201,-1.3185,-1.2764,0.0,0.0,-1.3198,-1.3552,-1.4082,-1.4867,-1.5528,-1.6083,-1.6549,-1.7224,-1.782,-1.8375,-1.8441,-1.8602,-1.8738,-1.8534,-1.828,-1.7971,-1.7157,-1.614,0.0,0.0,0.0,0.0,0.0,0.0,0.0,0.0,0.0,0.0,0.0,-1.3315,0.0,0.0,0.0,0.0,-1.8468,-1.9776,-1.9952,-2.0138,0.0,0.0,0.0,0.0,0.0,0.0,0.0,-1.8037,-1.8902,-1.9588,-2.0,-2.0646,-2.0976,-2.0758,-2.0817,-2.1003,-2.1351,0.0,-2.1437,-2.1446,-2.1474,-2.1496,-2.1489,-2.1947,-2.2422,-2.2784,-2.3874,-2.4705,-2.4671,-2.4559,-2.4434,-2.4262,-2.409,-2.4061,-2.4403,-2.3327,-2.2289,-2.1935,-2.1685,-2.1485,-2.1282,-2.1097,-2.0979,-0.2822,-0.2788,-0.2936,-0.3013,-0.3067,-0.3051,-0.3156,-0.3337,-0.3548,-0.3709,-0.3834,-0.4183,-0.4421,-0.4482,-0.5022,0.0,-0.58,-0.6401,-0.6724,-0.6857,-0.7511,-0.7872,-0.8076,-0.8807,-0.9332,-0.9709,-1.0451,-1.1149,-1.1677,-1.2182,-1.2332,-1.2142,-1.2613,-1.3011,-1.3305,-1.3305,-1.3516,-1.4042,-1.4753,-1.5342,-1.5816,-1.6765,-1.7313,-1.7545,-1.7545,-1.7655,-1.7929,-1.7765,-1.7671,-1.7791,-1.7563,-1.6866,-1.5782,0.0,0.0,0.0,0.0,0.0,0.0,0.0,0.0,0.0,0.0,0.0,0.0,0.0,0.0,0.0,-2.0086,0.0,-1.9847,-1.9909,0.0,0.0,0.0,-1.6953,-1.6947,-1.7705,-1.8577,-1.9464,0.0,0.0,-2.1943,-2.2121,-2.2035,-2.1626,-2.1641,-2.1965,-2.2759,-2.2835,-2.2888,-2.2772,-2.2918,-2.2989,-2.2995,-2.3224,-2.3608,-2.4316,-2.5117,-2.5512,-2.5469,-2.5428,-2.5335,-2.5168,-2.5115,-2.4936,-2.4764,-2.4465,-2.4265,-2.3689,-2.3424,-2.32,-2.293,-2.2678,-2.2398,-0.192,-0.1845,-0.1839,-0.2196,-0.2638,-0.2523,-0.2532,-0.2594,-0.2911,-0.3041,-0.3045,-0.3249,-0.3567,-0.3994,-0.4299,-0.4604,-0.4904,-0.5179,-0.538,-0.5513,-0.5982,-0.6447,-0.6908,-0.7431,-0.8091,-0.8807,-0.925,-0.9918,-1.0712,-1.1238,-1.1525,-1.1596,-1.2134,-1.2518,-1.2843,-1.2826,-1.3113,-1.3672,-1.4067,-1.4529,-1.5128,-1.5517,-1.5843,-1.612,-1.6255,-1.6436,-1.6549,-1.6832,-1.7058,-1.7214,-1.7322,-1.6982,-1.6121,-1.5371,0.0,0.0,0.0,0.0,0.0,0.0,0.0,0.0,0.0,-1.3526,-1.4253,0.0,-1.7436,0.0,-2.0026,-2.1139,-2.0941,-2.1077,0.0,0.0,-1.8949,-1.896,-1.9128,-1.9345,-1.9831,-2.0734,-2.1116,-2.1404,-2.1675,-2.1861,-2.22,-2.2736,-2.2574,-2.247,-2.2709,-2.2791,-2.2813,-2.2875,-2.2944,-2.3159,-2.3836,-2.4555,-2.5035,-2.5343,-2.5546,-2.565,-2.559,-2.5566,-2.5499,-2.5387,-2.5283,-2.516,-2.4975,-2.4814,-2.462,-2.4317,-2.3866,-2.3455,-2.3271,-2.3067,-2.2825,-0.1663,-0.1515,-0.141,-0.1536,-0.1807,-0.1907,-0.1988,-0.2053,-0.2242,-0.237,-0.2498,-0.2629,-0.2947,-0.3325,-0.3521,-0.3712,-0.39,-0.4215,-0.4405,-0.4475,-0.4993,-0.5387,-0.5723,-0.6273,-0.6899,-0.745,-0.812,-0.8721,-0.9451,-1.0067,-1.0411,-1.0625,-1.1162,-1.1523,-1.1742,-1.2261,-1.2715,-1.3086,-1.3511,-1.4001,-1.4419,-1.4706,-1.4932,-1.5089,-1.509,-1.5186,-1.5428,-1.5461,-1.5628,-1.6029,-1.6298,-1.6345,-1.6008,-1.5579,-1.4985,0.0,0.0,0.0,0.0,0.0,0.0,0.0,0.0,0.0,0.0,0.0,-1.8047,-1.9021,-2.0449,-2.1234,-2.1097,-2.1223,-2.0892,-1.9825,-1.9803,-1.9921,-2.0074,-2.0438,-2.0937,-2.153,-2.2037,-2.2393,-2.2532,-2.2703,-2.3031,-2.3614,-2.3551,-2.3505,-2.3702,-2.3781,-2.3823,-2.3871,-2.3916,-2.413,-2.4709,-2.5207,-2.558,-2.5645,-2.5654,-2.5644,-2.564,-2.5626,-2.5571,-2.5496,-2.5432,-2.5339,-2.5165,-2.5024,-2.4874,-2.4697,-2.4316,-2.3926,-2.3631,-2.3382,-2.3182,-0.1651,-0.1409,-0.12,-0.1031,-0.088,-0.1261,-0.1431,-0.1614,-0.1681,-0.1816,-0.2018,-0.2221,-0.2421,-0.2621,-0.2822,-0.2891,-0.2958,-0.3424,-0.3692,-0.3692,-0.4172,-0.4439,-0.4613,-0.5253,-0.5744,-0.6151,-0.6936,-0.7588,-0.8103,-0.874,-0.9227,-0.9508,-1.0009,-1.0293,-1.0438,-1.1489,-1.2149,-1.2429,-1.3079,-1.3517,-1.3718,-1.4132,-1.4345,-1.4332,-1.4123,-1.4089,-1.4378,-1.396,-1.4051,-1.4721,-1.5089,-1.5332,-1.5578,-1.5636,-1.541,0.0,-1.4835,0.0,0.0,0.0,0.0,0.0,0.0,0.0,0.0,-1.6684,-1.8338,-2.006,-2.1014,-2.1341,-2.0903,-2.0994,-2.0854,-2.0364,-2.0391,-2.0457,-2.0573,-2.1263,-2.1833,-2.2025,-2.2806,-2.3399,-2.3508,-2.3795,-2.3978,-2.4042,-2.421,-2.4375,-2.4814,-2.4886,-2.4946,-2.5164,-2.5241,-2.5149,-2.536,-2.5459,-2.5492,-2.558,-2.56,-2.5627,-2.5662,-2.564,-2.5595,-2.5593,-2.5556,-2.5466,-2.5346,-2.5214,-2.5075,-2.4942,-2.4708,-2.4403,-2.4022,-2.3735,-2.3473,-0.0786,-0.0785,-0.07,-0.0697,-0.0697,-0.0767,-0.0801,-0.0941,-0.121,-0.1412,-0.1614,-0.1681,-0.1883,-0.222,-0.222,-0.2423,-0.2693,-0.276,-0.2891,-0.3023,-0.3162,-0.355,-0.399,-0.4217,-0.4773,-0.5516,-0.5734,-0.6444,-0.7604,-0.781,-0.817,-0.8762,-0.9192,-0.9433,-0.9419,0.0,0.0,0.0,-1.2729,-1.3129,-1.3179,-1.3416,-1.3526,-1.3519,-1.3336,0.0,-1.3429,-1.3414,-1.3577,-1.393,-1.4533,0.0,0.0,0.0,0.0,0.0,0.0,0.0,0.0,0.0,0.0,0.0,-1.6736,-1.6602,-1.6213,-1.7789,-1.9372,-2.0607,-2.1039,-2.1197,-2.1224,-2.136,-2.146,-2.1416,-2.1494,-2.1636,-2.1813,-2.197,-2.218,-2.2382,-2.2755,-2.301,-2.3133,-2.3394,-2.3642,-2.3756,-2.3959,-2.4173,-2.4392,-2.4666,-2.4883,-2.5038,-2.5126,-2.5253,-2.5407,-2.5421,-2.5449,-2.5518,-2.5571,-2.5593,-2.5634,-2.566,-2.5681,-2.567,-2.5639,-2.5556,-2.5473,-2.5357,-2.5224,-2.5103,-2.4936,-2.4693,-2.4318,-2.402,-2.3753,-0.0471,0.0,-0.0314,-0.0157,0.0,0.0,-0.0076,-0.0218,-0.0718,-0.0992,-0.1121,-0.1191,-0.1401,-0.1751,-0.1751,-0.1891,-0.2173,-0.2384,-0.2524,-0.2594,-0.2839,-0.3092,-0.3423,-0.3614,-0.4031,-0.4755,-0.4983,-0.5535,-0.6507,-0.673,-0.7112,-0.7647,-0.8089,-0.836,-0.8308,-0.9021,-1.0096,-1.1464,-1.202,-1.2364,-1.2527,-1.2767,-1.2925,-1.2978,0.0,0.0,0.0,0.0,0.0,0.0,0.0,0.0,0.0,0.0,0.0,-1.5695,-1.6034,-1.648,-1.7104,-1.7531,-1.7816,-1.8055,-1.844,-1.8303,-1.7441,-1.8465,-1.9518,-2.0552,-2.0778,-2.0974,-2.1071,-2.1198,-2.1309,-2.145,-2.1495,-2.1631,-2.1777,-2.1853,-2.1986,-2.2158,-2.2381,-2.2571,-2.2773,-2.3045,-2.3271,-2.3422,-2.362,-2.3813,-2.4057,-2.4407,-2.4727,-2.4929,-2.5031,-2.5157,-2.5262,-2.5332,-2.5376,-2.5441,-2.5499,-2.5561,-2.5601,-2.5632,-2.5675,-2.5703,-2.565,-2.5593,-2.5556,-2.5459,-2.5359,-2.5234,-2.5096,-2.4923,-2.4648,-2.4318,-2.3999,-0.0158,0.0079,0.0157,0.0314,0.0629,0.0629,0.055,0.0314,0.0,0.0,0.0,-0.0739,-0.096,-0.133,-0.133,-0.1478,-0.1701,-0.1997,-0.2219,-0.222,-0.2586,-0.2762,-0.2892,-0.3047,-0.3463,-0.3997,-0.4309,-0.4851,-0.547,-0.5777,-0.6089,-0.6405,-0.6942,-0.7179,-0.7269,-0.8069,-0.9073,-1.0307,-1.1001,-1.153,-1.1895,-1.2202,-1.2372,-1.2573,-1.2281,-1.2303,-1.2746,-1.2176,-1.2068,-1.2565,-1.2967,-1.3397,-1.3911,-1.4821,-1.5639,-1.6339,-1.6959,-1.7581,-1.8234,-1.8601,-1.8949,-1.9284,-1.9789,-1.9641,-1.8724,-1.9031,-1.9524,-2.0277,-2.0509,-2.0628,-2.0763,-2.0795,-2.0877,-2.1071,-2.1103,-2.1167,-2.1293,-2.145,-2.1603,-2.1751,-2.194,-2.2141,-2.2426,-2.2668,-2.2876,-2.3095,-2.3271,-2.3486,-2.3774,-2.4192,-2.457,-2.4785,-2.4915,-2.5025,-2.5122,-2.522,-2.5284,-2.5378,-2.5434,-2.5493,-2.5561,-2.5609,-2.5619,-2.5673,-2.5644,-2.5631,-2.5616,-2.554,-2.5468,-2.5329,-2.5215,-2.5072,-2.4923,-2.4639,-2.4302,0.0567,0.0566,0.0554,0.055,0.0629,0.0629,0.055,0.0471,-0.0078,-0.0468,-0.0622,-0.0622,-0.0778,-0.0934,-0.0934,-0.1244,-0.1634,-0.1712,-0.1789,0.0,-0.2023,-0.2259,-0.2577,-0.2577,-0.2891,-0.3446,-0.3604,-0.4073,-0.4776,-0.4693,-0.5004,-0.5699,-0.5854,-0.6073,-0.6364,-0.6663,-0.7106,-0.7769,-0.9633,-1.0797,-1.1087,-1.1468,-1.1818,-1.2155,-1.1865,-1.1889,-1.2242,-1.2126,-1.2248,-1.2604,-1.3086,-1.3563,-1.4043,-1.4536,-1.5091,-1.5753,-1.621,-1.7008,-1.8099,-1.8586,-1.9077,-1.9656,-1.9809,-1.9823,-1.9778,-1.9976,-2.0087,-2.0081,-2.0177,-2.0254,-2.0357,-2.0441,-2.0512,-2.0595,-2.0726,-2.0794,-2.0974,-2.1087,-2.1199,-2.1325,-2.1573,-2.1827,-2.1969,-2.2181,-2.2446,-2.2721,-2.2927,-2.3133,-2.35,-2.4042,-2.4441,-2.4604,-2.4746,-2.4879,-2.4981,-2.5075,-2.5157,-2.5302,-2.536,-2.5437,-2.5505,-2.5554,-2.5585,-2.5619,-2.565,-2.5664,-2.5613,-2.559,-2.5535,-2.541,-2.5321,-2.5222,-2.5043,-2.4832,-2.4588,0.0746,0.0828,0.082,0.0891,0.0961,0.0948,0.1022,0.11,0.0707,0.0393,0.0079,0.0079,-0.0079,-0.0236,-0.0393,-0.0629,-0.0864,-0.11,-0.1258,-0.1336,-0.1651,-0.1807,-0.1963,-0.212,-0.2354,-0.2744,-0.2901,-0.329,-0.3759,-0.3837,-0.4151,-0.4616,-0.4849,-0.5082,-0.5392,-0.5705,-0.6012,-0.6391,-0.8295,-0.9536,-0.9876,-1.0484,-1.1003,-1.13,-1.1491,-1.1776,-1.1992,-1.214,-1.2314,-1.2649,-1.3085,-1.3477,-1.3987,-1.4707,-1.5336,-1.581,-1.6418,-1.716,-1.7972,-1.877,-1.9447,-1.9948,-2.0223,-2.0324,-2.0283,-2.0468,-2.0651,-2.0706,-2.0512,-2.0397,-2.0419,-2.0223,-2.01,-2.022,-2.0323,-2.046,-2.061,-2.0712,-2.0827,-2.0958,-2.1214,-2.1417,-2.1601,-2.1794,-2.2027,-2.2337,-2.2598,-2.2902,-2.314,-2.3526,-2.3926,-2.4265,-2.451,-2.4689,-2.4804,-2.4915,-2.5044,-2.5184,-2.5252,-2.5322,-2.5412,-2.5471,-2.5499,-2.5542,-2.559,-2.5625,-2.5605,-2.5611,-2.5578,-2.5517,-2.5426,-2.5313,-2.5179,-2.4942,-2.4642,0.1103,0.1272,0.1265,0.1334,0.1556,0.1528,0.1671,0.1822,0.1664,0.1342,0.1021,0.0864,0.0629,0.0393,0.0236,0.0079,-0.0157,-0.055,-0.0707,-0.0786,-0.1179,-0.1415,-0.1415,-0.1573,-0.1806,-0.1961,-0.2198,-0.251,-0.282,-0.3056,-0.3292,-0.3606,-0.3919,-0.4151,-0.4309,-0.4781,-0.5015,-0.5312,-0.685,-0.7995,-0.8666,-0.9416,-0.9991,-1.0411,-1.0955,-1.1403,-1.1769,-1.1988,-1.2274,-1.2693,-1.3058,-1.3415,-1.3914,-1.4704,-1.541,-1.5874,-1.6503,-1.7179,-1.7843,-1.8815,-1.9552,-1.9965,-2.0359,-2.0611,-2.057,-2.0796,-2.1026,-2.1085,-2.0843,-2.0733,-2.0688,-2.0393,-2.0167,-2.0156,-2.0131,-2.0228,-2.0266,-2.0323,-2.046,-2.0677,-2.086,-2.1039,-2.1261,-2.1464,-2.1691,-2.1998,-2.2337,-2.2615,-2.2799,-2.3025,-2.3392,-2.3801,-2.4174,-2.4442,-2.4591,-2.4746,-2.4907,-2.5051,-2.513,-2.5212,-2.5322,-2.5369,-2.541,-2.5467,-2.5551,-2.5586,-2.5603,-2.5605,-2.5598,-2.558,-2.5512,-2.5401,-2.5273,-2.4981,-2.4642,0.1994,0.1987,0.1953,0.21,0.2263,0.2257,0.2393,0.2516,0.2512,0.2402,0.2283,0.1571,0.1101,0.0864,0.0864,0.0629,0.0236,0.0,-0.0157,-0.0314,-0.055,-0.0786,-0.0943,-0.1022,-0.1099,-0.1335,-0.1572,-0.1805,-0.2038,-0.2196,-0.251,-0.2824,-0.2902,-0.3059,-0.3295,-0.3686,-0.3997,-0.3997,-0.5007,-0.6237,-0.7536,-0.8058,-0.8732,-0.9637,-1.0008,-1.0593,-1.1442,-1.1632,-1.1963,-1.2631,-1.3079,-1.352,-1.3948,-1.4341,-1.4893,-1.5672,-1.5941,-1.6492,-1.7611,-1.8464,-1.8999,-1.9291,-1.9786,-2.0232,-2.0505,-2.0908,-2.0992,-2.0812,-2.0891,-2.0997,-2.1079,-2.1057,-2.0868,-2.0457,-2.0436,-2.0303,-2.0059,-1.9955,-2.0131,-2.0339,-2.0525,-2.0662,-2.0909,-2.1103,-2.1371,-2.1735,-2.2015,-2.2271,-2.2525,-2.2773,-2.301,-2.3324,-2.3735,-2.4174,-2.4372,-2.4594,-2.4749,-2.4865,-2.4974,-2.5075,-2.5198,-2.5273,-2.5331,-2.5398,-2.5506,-2.5576,-2.5603,-2.56,-2.5602,-2.56,-2.5551,-2.5498,-2.5264,-2.5031,-2.4746,0.2566,0.2564,0.2543,0.2774,0.2998,0.3043,0.3258,0.3727,0.3727,0.3706,0.3678,0.335,0.2658,0.1885,0.1569,0.1412,0.1256,0.0942,0.0629,0.0393,0.0236,0.0,-0.0157,-0.0314,-0.0471,-0.055,-0.0707,-0.0942,-0.1177,-0.157,-0.1962,-0.212,-0.2433,-0.2668,-0.2746,-0.3297,-0.3686,-0.3841,-0.4311,-0.5085,-0.6005,-0.7084,-0.7778,-0.838,-0.9135,-0.9832,-1.0425,-1.1051,-1.1601,-1.205,-1.2536,-1.3054,-1.358,-1.4001,-1.4488,-1.5079,-1.5778,-1.6446,-1.7224,-1.7897,-1.8398,-1.8655,-1.9226,-1.9643,-2.0016,-2.0422,-2.0731,-2.0718,-2.0882,-2.1096,-2.1241,-2.1067,-2.0804,-2.0709,-2.0775,-2.0764,-2.0709,-2.0362,-2.0288,-2.0552,-2.0395,-2.0357,-2.0613,-2.0877,-2.1183,-2.1495,-2.1708,-2.1991,-2.2276,-2.2515,-2.2729,-2.2952,-2.333,-2.3756,-2.408,-2.4318,-2.4508,-2.4685,-2.4804,-2.4934,-2.5057,-2.513,-2.522,-2.5313,-2.5429,-2.5525,-2.5595,-2.5632,-2.5661,-2.5627,-2.5551,-2.5468,-2.5293,-2.5111,-2.4842,0.3492,0.3492,0.3492,0.373,0.4023,0.3961,0.4259,0.4744,0.4826,0.4893,0.4868,0.4866,0.4369,0.3363,0.2698,0.2288,0.2118,0.1805,0.1492,0.1256,0.102,0.0785,0.0628,0.0471,0.0393,0.0314,0.0157,-0.0157,-0.0393,-0.0786,-0.1179,-0.1336,-0.1805,-0.2119,-0.2353,-0.2904,-0.3376,-0.3608,-0.3845,-0.4309,-0.4927,-0.6005,-0.678,-0.7249,-0.8237,-0.8995,-0.9516,-1.0388,-1.1058,-1.1389,-1.1935,-1.2513,-1.2997,-1.3519,-1.4061,-1.4706,-1.5642,-1.6343,-1.6729,-1.729,-1.7744,-1.8061,-1.8536,-1.8975,-1.9356,-1.9811,-2.0207,-2.0531,-2.0703,-2.0899,-2.1363,-2.1133,-2.0924,-2.0898,-2.0955,-2.1025,-2.0973,-2.0593,-2.0504,-2.0771,-2.0519,-2.0264,-2.0404,-2.0728,-2.1087,-2.1262,-2.1497,-2.1741,-2.2049,-2.2265,-2.2477,-2.2642,-2.2952,-2.3307,-2.378,-2.4079,-2.4265,-2.4458,-2.4607,-2.4749,-2.4898,-2.4993,-2.5125,-2.5233,-2.5332,-2.5426,-2.5535,-2.5621,-2.5691,-2.567,-2.5605,-2.5483,-2.536,-2.5141,-2.4962,0.4919,0.4919,0.4921,0.5006,0.5272,0.526,0.5378,0.5626,0.5798,0.5817,0.5805,0.5794,0.5693,0.5496,0.4172,0.3285,0.2833,0.2595,0.2358,0.2121,0.1803,0.1568,0.1568,0.1335,0.1257,0.1257,0.1021,0.0707,0.0314,0.0236,-0.0079,-0.0629,-0.0864,-0.1335,-0.1882,-0.2353,-0.2746,-0.3139,-0.3608,-0.3997,-0.4384,-0.4927,-0.5625,-0.656,-0.7253,-0.8084,-0.8954,-0.9674,-1.0301,-1.0792,-1.1535,-1.2025,-1.2352,-1.2972,-1.3812,-1.4647,-1.5468,-1.5989,-1.6171,-1.6637,-1.7088,-1.7468,-1.7788,-1.8224,-1.8786,-1.9081,-1.9488,-1.9991,-2.0143,-2.0555,-2.1287,-2.1464,-2.1398,-2.1074,-2.1004,-2.0873,-2.0557,-2.0642,-2.0752,-2.0954,-2.0779,-2.0512,-2.0373,-2.0595,-2.0907,-2.1119,-2.1389,-2.1636,-2.1814,-2.2065,-2.2237,-2.2405,-2.2615,-2.2935,-2.3477,-2.3819,-2.4039,-2.4248,-2.4391,-2.4543,-2.4704,-2.4851,-2.5013,-2.5176,-2.5283,-2.5385,-2.5473,-2.5559,-2.5636,-2.5657,-2.5621,-2.5525,-2.539,-2.5235,-2.503,0.5897,0.5897,0.5722,0.5899,0.6251,0.6077,0.6316,0.6799,0.6883,0.694,0.6897,0.6887,0.6751,0.6574,0.602,0.5261,0.4256,0.3873,0.3525,0.3356,0.2918,0.2663,0.2585,0.2507,0.243,0.243,0.2198,0.1883,0.1491,0.1098,0.0706,0.0314,-0.0236,-0.0785,-0.1256,-0.1961,-0.2431,-0.2746,-0.3292,-0.3761,-0.3997,-0.4384,-0.5007,-0.5786,-0.6633,-0.7557,-0.8403,-0.9155,-0.9753,-1.0296,-1.093,-1.1514,-1.1931,-1.2964,-1.3881,-1.4529,-1.5128,-1.5546,-1.5836,-1.6171,-1.657,-1.7032,-1.7301,-1.7678,-1.8127,-1.8483,-1.8804,-1.9291,-1.9565,-1.9914,-2.0308,-2.0871,-2.1232,-2.1152,-2.1179,-2.1178,-2.1116,-2.0948,-2.092,-2.1183,-2.1199,-2.1028,-2.081,-2.0885,-2.1011,-2.0955,-2.1055,-2.1309,-2.1603,-2.1844,-2.1991,-2.2147,-2.2371,-2.2685,-2.301,-2.345,-2.3756,-2.3979,-2.4154,-2.4301,-2.4474,-2.4639,-2.4804,-2.5025,-2.5168,-2.5321,-2.542,-2.5574,-2.5636,-2.5681,-2.5642,-2.5551,-2.5425,-2.5274,-2.5088,0.7136,0.7139,0.6962,0.7051,0.7221,0.7048,0.7224,0.758,0.7665,0.7753,0.7841,0.7841,0.7778,0.7606,0.7505,0.7104,0.6138,0.5317,0.4752,0.4577,0.4079,0.3801,0.3795,0.3614,0.3522,0.3599,0.3446,0.3134,0.2821,0.2271,0.1802,0.1412,0.0628,-0.0078,-0.0628,-0.1412,-0.196,-0.2353,-0.2901,-0.3292,-0.3604,-0.3992,-0.4462,-0.5162,-0.6012,-0.6865,-0.7795,-0.8556,-0.9215,-0.9645,-1.039,-1.1103,-1.1717,-1.2835,-1.3692,-1.424,-1.4725,-1.5137,-1.5546,-1.5768,-1.6114,-1.6591,-1.6864,-1.719,-1.7634,-1.7963,-1.829,-1.8655,-1.8881,-1.9093,-1.9408,-1.9965,-2.0485,-2.0785,-2.0983,-2.1118,-2.1299,-2.1138,-2.1176,-2.1348,-2.1541,-2.1454,-2.1188,-2.1151,-2.1121,-2.1004,-2.0968,-2.1071,-2.1356,-2.1573,-2.1708,-2.1886,-2.2118,-2.2343,-2.2624,-2.2958,-2.3427,-2.3689,-2.3899,-2.4079,-2.4247,-2.4424,-2.4623,-2.4847,-2.5049,-2.5226,-2.5386,-2.555,-2.5629,-2.5683,-2.5642,-2.5546,-2.5434,-2.5309,-2.5122,0.8548,0.8548,0.8548,0.8372,0.8197,0.8113,0.8025,0.8028,0.8113,0.8376,0.8548,0.8548,0.8632,0.8715,0.8607,0.8524,0.8095,0.6831,0.6047,0.5767,0.5238,0.5017,0.5082,0.4676,0.4545,0.4691,0.446,0.4304,0.4068,0.36,0.3054,0.2504,0.1723,0.0941,0.0079,-0.0549,-0.1177,-0.1725,-0.2275,-0.2665,-0.3054,-0.3448,-0.3997,-0.4621,-0.5237,-0.6089,-0.718,-0.8021,-0.8614,-0.9023,-0.998,-1.1007,-1.1753,-1.2469,-1.3086,-1.37,-1.424,-1.4765,-1.5294,-1.541,-1.572,-1.6249,-1.6524,-1.6807,-1.7256,-1.7545,-1.7799,-1.8116,-1.8278,-1.8441,-1.8732,-1.8999,-1.9408,-2.0016,-2.022,-2.0422,-2.0709,-2.1019,-2.1254,-2.1422,-2.1714,-2.177,-2.1514,-2.1392,-2.1316,-2.1234,-2.1095,-2.0954,-2.1103,-2.1262,-2.142,-2.1573,-2.1797,-2.2061,-2.2271,-2.25,-2.2993,-2.3394,-2.3624,-2.3819,-2.402,-2.4211,-2.4424,-2.4666,-2.4975,-2.5156,-2.5368,-2.5542,-2.56,-2.5619,-2.5581,-2.5574,-2.5479,-2.5343,-2.5163,0.9082,0.9078,0.8907,0.8907,0.8903,0.8732,0.8732,0.8907,0.8907,0.8995,0.9078,0.9082,0.917,0.917,0.9082,0.9082,0.8986,0.8344,0.7726,0.7091,0.6443,0.6166,0.608,0.5946,0.5717,0.5559,0.5473,0.5315,0.5079,0.4691,0.4222,0.3754,0.2974,0.2116,0.1333,0.0549,-0.0157,-0.0785,-0.1411,-0.1802,-0.2116,-0.2586,-0.3214,-0.3759,-0.446,-0.5312,-0.6479,-0.7633,-0.8447,-0.8965,-0.9789,-1.0682,-1.1452,-1.1966,-1.2536,-1.3086,-1.3692,-1.424,-1.4715,-1.501,-1.5371,-1.5951,-1.6171,-1.6513,-1.7011,-1.719,-1.7412,-1.7744,-1.7963,-1.8061,-1.8182,-1.8398,-1.8839,-1.9436,-1.9708,-1.9862,-2.0156,-2.061,-2.1086,-2.1478,-2.1875,-2.191,-2.1772,-2.1739,-2.1684,-2.1227,-2.1101,-2.107,-2.0935,-2.099,-2.1135,-2.1294,-2.1526,-2.1738,-2.1957,-2.2169,-2.2483,-2.2943,-2.3259,-2.3558,-2.3774,-2.3999,-2.4229,-2.454,-2.485,-2.5122,-2.5335,-2.5486,-2.5561,-2.5598,-2.5605,-2.5559,-2.5507,-2.536,-2.5175,0.9519,0.9519,0.9345,0.9345,0.9432,0.9257,0.9174,0.9262,0.9349,0.9345,0.9519,0.9519,0.9689,0.9781,0.9781,0.9781,0.9607,0.9432,0.9013,0.8365,0.7697,0.7311,0.7193,0.7079,0.6792,0.643,0.6328,0.6167,0.6086,0.5622,0.5237,0.4849,0.4146,0.3365,0.2581,0.1706,0.1005,0.0387,-0.0309,-0.0773,-0.1086,-0.1639,-0.2195,-0.2821,-0.3602,-0.4613,-0.5699,-0.6865,-0.794,-0.8893,-0.9759,-1.0649,-1.1236,-1.1654,-1.2117,-1.2621,-1.3147,-1.3709,-1.424,-1.4597,-1.5079,-1.5526,-1.5826,-1.6171,-1.6627,-1.6853,-1.7134,-1.749,-1.7689,-1.7788,-1.7909,-1.8084,-1.841,-1.8709,-1.9081,-1.9396,-1.9695,-2.0207,-2.0746,-2.1259,-2.167,-2.1867,-2.2024,-2.1989,-2.2049,-2.1515,-2.128,-2.1136,-2.0911,-2.0852,-2.0939,-2.1054,-2.1246,-2.1464,-2.1661,-2.1853,-2.2056,-2.2446,-2.2833,-2.3188,-2.3491,-2.3753,-2.3981,-2.4425,-2.479,-2.5024,-2.5245,-2.5422,-2.5529,-2.5574,-2.5598,-2.5574,-2.5537,-2.5398,-2.5216,1.0038,1.0038,1.0038,0.9777,0.9602,0.9602,0.9519,0.9437,0.9432,0.9694,0.9951,1.0038,1.0299,1.0641,1.0554,1.0467,1.0299,1.0125,0.9859,0.9447,0.8893,0.8526,0.8363,0.7983,0.7596,0.7312,0.703,0.6942,0.6942,0.6549,0.6167,0.586,0.514,0.4518,0.3795,0.2968,0.2183,0.1582,0.0979,0.0377,0.0,-0.0541,-0.1095,-0.1802,-0.2741,-0.3834,-0.4924,-0.6244,-0.748,-0.8751,-0.9979,-1.0728,-1.1149,-1.1469,-1.1867,-1.2274,-1.2744,-1.3285,-1.383,-1.424,-1.4647,-1.5118,-1.5488,-1.5846,-1.6306,-1.6581,-1.6864,-1.7211,-1.7357,-1.7567,-1.7799,-1.7909,-1.803,-1.8139,-1.8637,-1.9076,-1.9512,-1.9914,-2.0372,-2.0858,-2.1215,-2.1602,-2.2072,-2.1998,-2.2091,-2.2034,-2.1654,-2.1424,-2.1044,-2.0903,-2.0785,-2.0842,-2.0941,-2.1135,-2.1339,-2.1556,-2.1751,-2.2073,-2.2463,-2.2816,-2.3212,-2.3535,-2.3852,-2.4302,-2.4654,-2.4891,-2.5141,-2.5302,-2.5466,-2.5547,-2.5566,-2.5602,-2.5524,-2.5395,-2.5207,1.0038,1.0038,1.0038,0.9951,0.9951,1.0033,1.0033,1.0038,1.0212,1.0386,1.0472,1.0472,1.0559,1.0727,1.0733,1.0641,1.0554,1.0559,1.0467,1.0376,1.0159,0.9596,0.8906,0.8495,0.8207,0.8055,0.7867,0.7795,0.7791,0.7476,0.7169,0.6865,0.6218,0.5554,0.4922,0.4008,0.3302,0.279,0.213,0.1557,0.1206,0.0608,0.0,-0.0704,-0.1723,-0.2976,-0.4377,-0.6391,-0.8016,-0.9296,-1.0053,-1.0669,-1.1112,-1.143,-1.1732,-1.2024,-1.2436,-1.292,-1.3398,-1.3821,-1.4231,-1.4765,-1.5079,-1.5439,-1.5999,-1.6171,-1.6513,-1.6864,-1.7078,-1.7301,-1.7523,-1.7689,-1.7865,-1.8096,-1.8511,-1.8952,-1.9263,-1.9604,-1.9914,-2.0321,-2.061,-2.1055,-2.1452,-2.1862,-2.2038,-2.1975,-2.1904,-2.1764,-2.1379,-2.0987,-2.0848,-2.0565,-2.0577,-2.0794,-2.0974,-2.1183,-2.1433,-2.1738,-2.2073,-2.2419,-2.29,-2.3376,-2.3765,-2.4206,-2.4441,-2.47,-2.4943,-2.5175,-2.5324,-2.5486,-2.5551,-2.5564,-2.5503,-2.5383,-2.5168,1.0038,1.012,1.0125,1.0207,1.0299,1.0467,1.0467,1.0467,1.0641,1.0733,1.0824,1.0824,1.0824,1.0906,1.0911,1.0911,1.0824,1.0824,1.0733,1.0727,1.0636,1.0257,0.962,0.9196,0.8953,0.8779,0.859,0.8413,0.8268,0.8097,0.7863,0.7528,0.708,0.6544,0.6006,0.5153,0.4427,0.393,0.3289,0.2741,0.2268,0.1723,0.1065,0.0232,-0.0778,-0.2192,-0.4144,-0.6157,-0.7855,-0.913,-0.9999,-1.0689,-1.1128,-1.1397,-1.1701,-1.197,-1.2336,-1.2674,-1.3094,-1.3519,-1.3881,-1.4359,-1.4597,-1.5059,-1.5526,-1.5826,-1.6124,-1.6524,-1.6797,-1.7078,-1.7346,-1.7678,-1.7952,-1.8247,-1.8553,-1.8834,-1.8881,-1.9093,-1.9408,-1.9823,-2.0156,-2.056,-2.1055,-2.1636,-2.1955,-2.21,-2.2149,-2.1987,-2.1734,-2.1318,-2.0892,-2.0656,-2.0377,-2.0506,-2.0628,-2.0811,-2.1087,-2.1386,-2.1811,-2.2113,-2.2616,-2.317,-2.3594,-2.3953,-2.4229,-2.4482,-2.4738,-2.501,-2.5216,-2.5352,-2.5459,-2.5531,-2.549,-2.5383,-2.5159,1.0241,1.041,1.041,1.0502,1.0681,1.0743,1.0727,1.0814,1.0814,1.0997,1.1089,1.1094,1.1262,1.1348,1.1348,1.1262,1.1094,1.1181,1.1089,1.0997,1.0895,1.0716,1.0562,1.0036,0.9746,0.9487,0.9315,0.8999,0.8721,0.8588,0.8403,0.8129,0.7755,0.7352,0.6814,0.6146,0.552,0.4867,0.4309,0.3707,0.3119,0.2557,0.1943,0.1142,-0.0233,-0.1878,-0.3908,-0.5616,-0.7076,-0.877,-0.983,-1.0654,-1.1215,-1.1507,-1.1836,-1.2123,-1.2287,-1.2569,-1.2928,-1.3277,-1.358,-1.3941,-1.43,-1.4647,-1.5118,-1.543,-1.5788,-1.6181,-1.6524,-1.6797,-1.7179,-1.7699,-1.8038,-1.8236,-1.8536,-1.859,-1.8506,-1.8637,-1.8958,-1.9316,-1.9759,-2.0232,-2.0782,-2.1382,-2.186,-2.2066,-2.2175,-2.2177,-2.196,-2.166,-2.1203,-2.0782,-2.0512,-2.0238,-2.0335,-2.041,-2.0745,-2.1071,-2.154,-2.194,-2.2429,-2.295,-2.3353,-2.3714,-2.3926,-2.4228,-2.4538,-2.4785,-2.5008,-2.5253,-2.5383,-2.5486,-2.5545,-2.5396,-2.5204,1.082,1.0825,1.0825,1.0914,1.0972,1.0907,1.1084,1.1154,1.1429,1.1607,1.178,1.1785,1.178,1.1871,1.1871,1.1785,1.1785,1.1699,1.178,1.1785,1.1693,1.1677,1.139,1.0757,1.0267,1.0085,0.9717,0.9551,0.9393,0.9182,0.8937,0.8599,0.8282,0.7883,0.7368,0.6752,0.6131,0.5635,0.5007,0.4453,0.3899,0.3325,0.2693,0.1884,0.0232,-0.1563,-0.3209,-0.4763,-0.6237,-0.7778,-0.9296,-1.0473,-1.1141,-1.1655,-1.1923,-1.205,-1.2315,-1.2522,-1.2685,-1.2981,-1.3346,-1.3761,-1.401,-1.43,-1.4775,-1.5029,-1.5381,-1.572,-1.5999,-1.6332,-1.6955,-1.7468,-1.7843,-1.8018,-1.8182,-1.8344,-1.8422,-1.8732,-1.8999,-1.921,-1.9512,-1.9862,-2.0321,-2.0871,-2.141,-2.1874,-2.2172,-2.2277,-2.2163,-2.1951,-2.1514,-2.1048,-2.0543,-2.0279,-2.0131,-2.0222,-2.0429,-2.0697,-2.115,-2.154,-2.2051,-2.2502,-2.2848,-2.3253,-2.3631,-2.3925,-2.4211,-2.4505,-2.4724,-2.5004,-2.5274,-2.5414,-2.5449,-2.534,-2.5109,1.1436,1.1536,1.1637,1.1711,1.1688,1.1833,1.1793,1.1866,1.2026,1.2203,1.2289,1.2283,1.2289,1.2289,1.2203,1.2203,1.2123,1.2043,1.2037,1.2123,1.2203,1.2203,1.2277,1.1725,1.1354,1.0966,1.0751,1.0439,1.0058,0.9844,0.9499,0.8998,0.8802,0.8436,0.7906,0.7386,0.6856,0.6281,0.5719,0.5132,0.458,0.403,0.3224,0.217,0.0613,-0.0928,-0.2499,-0.3986,-0.5541,-0.7088,-0.8694,-1.0013,-1.0894,-1.1422,-1.1693,-1.1956,-1.1956,-1.2217,-1.2406,-1.2674,-1.2989,-1.3528,-1.383,-1.413,-1.4419,-1.4666,-1.5029,-1.5332,-1.5546,-1.5884,-1.6606,-1.7179,-1.7523,-1.7909,-1.8084,-1.8313,-1.853,-1.8679,-1.8774,-1.9011,-1.9316,-1.9656,-2.0105,-2.0586,-2.1131,-2.1684,-2.2077,-2.2207,-2.2304,-2.2106,-2.1799,-2.1325,-2.07,-2.0315,-2.0102,-2.0089,-2.017,-2.0413,-2.073,-2.1055,-2.1385,-2.1845,-2.2307,-2.272,-2.3136,-2.3486,-2.3774,-2.4099,-2.4435,-2.475,-2.5014,-2.5251,-2.5366,-2.5286,-2.4975,1.2109,1.231,1.2558,1.2694,1.2655,1.2774,1.2778,1.2637,1.279,1.2875,1.2875,1.2869,1.296,1.2869,1.2705,1.2619,1.254,1.246,1.2546,1.2631,1.2711,1.2796,1.2869,1.2747,1.2584,1.2052,1.1781,1.1294,1.08,1.0444,1.0076,0.9514,0.9155,0.8876,0.8461,0.8042,0.7532,0.6844,0.6422,0.5888,0.5312,0.473,0.3829,0.2498,0.1284,-0.0153,-0.1779,-0.3346,-0.4919,-0.6784,-0.8089,-0.9377,-1.0381,-1.1052,-1.1436,-1.1847,-1.178,-1.1884,-1.2185,-1.2414,-1.2736,-1.3241,-1.3657,-1.395,-1.4189,-1.4428,-1.4725,-1.497,-1.5254,-1.5594,-1.6197,-1.6786,-1.7245,-1.7634,-1.803,-1.8367,-1.8583,-1.8464,-1.8518,-1.8839,-1.9158,-1.9512,-1.9914,-2.0372,-2.0921,-2.141,-2.1793,-2.2095,-2.2186,-2.2198,-2.1828,-2.1456,-2.0777,-2.0036,-1.9765,-1.9708,-1.9818,-1.9823,-2.0165,-2.0002,-2.0379,-2.1054,-2.1513,-2.2194,-2.2659,-2.2958,-2.3271,-2.361,-2.395,-2.4404,-2.4789,-2.507,-2.5174,-2.5231,-2.4803,1.3345,1.329,1.3546,1.3585,1.3591,1.3465,1.3479,1.3508,1.3561,1.3639,1.3886,1.3906,1.3899,1.3808,1.3561,1.3392,1.3307,1.3307,1.3307,1.3307,1.3392,1.3561,1.3646,1.3815,1.3776,1.3516,1.2952,1.2258,1.1647,1.1209,1.0768,1.0175,0.9753,0.942,0.8983,0.8512,0.8161,0.7596,0.7074,0.6577,0.5966,0.5463,0.4742,0.3283,0.2134,0.0602,-0.1217,-0.2937,-0.4763,-0.678,-0.8237,-0.9301,-1.0276,-1.0971,-1.1465,-1.17,-1.1772,-1.1819,-1.2012,-1.221,-1.253,-1.2981,-1.3398,-1.37,-1.395,-1.4198,-1.4497,-1.4784,-1.5196,-1.5662,-1.5921,-1.6389,-1.6751,-1.7022,-1.7412,-1.7799,-1.8018,-1.8127,-1.8356,-1.8786,-1.9052,-1.9368,-1.972,-2.0067,-2.0472,-2.0921,-2.1264,-2.1602,-2.1771,-2.1848,-2.1759,-2.1302,-2.0826,-2.0065,-1.9377,-1.933,-1.9325,-1.9169,-1.9099,-1.827,-1.8783,-1.994,-2.0526,-1.796,-1.9837,-2.2237,-2.2616,-2.2912,-2.341,-2.3764,-2.4302,-2.4802,-2.4959,-2.4954,-2.4465,1.4482,1.4437,1.4707,1.4747,1.4552,1.4535,1.4514,1.4432,1.4573,1.465,1.4727,1.4734,1.4734,1.4734,1.4573,1.4328,1.4153,1.4153,1.4237,1.4237,1.4412,1.4489,1.4566,1.4741,1.4734,1.4601,1.4151,1.3417,1.2542,1.2227,1.1605,1.0979,1.0682,1.036,0.9813,0.9518,0.8993,0.8482,0.7996,0.7485,0.6811,0.6338,0.5356,0.4258,0.2858,0.1171,-0.0827,-0.2731,-0.4772,-0.69,-0.8389,-0.9453,-1.0363,-1.0938,-1.1359,-1.1546,-1.1717,-1.1778,-1.181,-1.1995,-1.2264,-1.2506,-1.2972,-1.3338,-1.364,-1.389,-1.4198,-1.4497,-1.4843,-1.5254,-1.5488,-1.5931,-1.6343,-1.6694,-1.7022,-1.7357,-1.7689,-1.781,-1.8193,-1.8637,-1.8893,-1.9158,-1.946,-1.9772,-2.008,-2.0372,-2.0723,-2.1019,-2.1313,-2.1376,-2.1424,-2.1112,-2.0595,-1.988,-1.8707,-1.776,-1.7412,-1.7437,-1.5691,-1.4941,-1.3849,-1.3455,-1.157,-0.9067,-1.2889,-1.8485,-2.1305,-2.1423,-2.2263,-2.2673,-2.3052,-2.3364,-2.4302,-2.4581,-2.3938,1.5471,1.5403,1.5791,1.5749,1.5546,1.5742,1.5624,1.5452,1.5567,1.5643,1.5643,1.5643,1.5643,1.565,1.5492,1.5242,1.4985,1.4985,1.5151,1.5242,1.5325,1.5409,1.5567,1.5643,1.565,1.5643,1.553,1.4925,1.3761,1.3343,1.2648,1.2101,1.1874,1.153,1.0944,1.0658,1.017,0.9752,0.9179,0.8655,0.8017,0.7251,0.6448,0.5307,0.3744,0.1704,-0.0583,-0.3133,-0.5442,-0.7505,-0.8949,-0.9906,-1.0738,-1.1111,-1.131,-1.1414,-1.1553,-1.1632,-1.1706,-1.184,-1.2052,-1.222,-1.2621,-1.2981,-1.3277,-1.358,-1.3959,-1.4258,-1.4616,-1.4834,-1.5128,-1.5478,-1.5874,-1.6218,-1.6616,-1.6955,-1.7301,-1.7534,-1.7822,-1.8193,-1.8548,-1.8401,-1.8242,-1.9303,-1.9565,-1.9823,-2.0118,-2.0372,-2.066,-2.0858,-2.0873,-2.0697,-2.0286,-1.9605,-1.8118,-1.5727,-1.4974,-1.4134,-1.0627,-0.7711,-0.6276,-0.4956,-0.3275,-0.2695,-0.6916,-1.223,-1.5955,-1.7387,-1.4994,-1.4984,-1.9164,-2.1005,-2.0288,-2.1845,-2.2827,1.5935,1.5778,1.6279,1.6411,1.6402,1.6568,1.6622,1.6507,1.6566,1.6574,1.6566,1.6566,1.6566,1.6566,1.6566,1.6312,1.6057,1.6139,1.6147,1.6147,1.6229,1.6312,1.6312,1.6484,1.6558,1.6558,1.6566,1.5891,1.509,1.4554,1.3936,1.3284,1.2846,1.2428,1.2077,1.1834,1.1553,1.1134,1.0566,0.9903,0.9221,0.8715,0.8091,0.6959,0.5084,0.2946,0.0894,-0.1692,-0.4563,-0.7081,-0.917,-1.0558,-1.1335,-1.1706,-1.1848,-1.1892,-1.1939,-1.1927,-1.1824,-1.2035,-1.202,-1.2077,-1.239,-1.2683,-1.2981,-1.3459,-1.389,-1.4198,-1.4488,-1.4656,-1.4775,-1.5079,-1.5371,-1.5652,-1.6056,-1.64,-1.674,-1.6978,-1.7268,-1.5429,-1.5077,-1.5807,-1.6134,-1.7728,-1.9052,-1.9303,-1.9552,-1.9709,-2.0016,-2.022,-1.824,-1.7448,-1.6315,-1.5586,-1.2424,-1.0746,-1.0191,-0.9607,-0.5142,-0.0631,0.0664,0.1766,0.1614,0.1042,-0.2081,-0.2393,-0.3093,-0.37,-0.4135,-0.726,-1.1341,-1.3544,-1.4822,-1.7224,-1.957,1.6813,1.6823,1.7064,1.7126,1.7062,1.7123,1.7195,1.7245,1.7294,1.7302,1.7392,1.7465,1.7465,1.7383,1.7465,1.7294,1.7212,1.7212,1.7294,1.7131,1.7212,1.7302,1.7294,1.7383,1.7465,1.7383,1.7383,1.7302,1.6577,1.5889,1.5124,1.4401,1.4113,1.3726,1.333,1.3042,1.2792,1.2438,1.1896,1.121,1.0715,1.0368,1.0027,0.9542,0.8292,0.6849,0.5325,0.4581,0.2828,0.1548,0.0932,0.0865,0.0737,0.0915,0.1156,0.0908,0.1015,-0.2999,-1.0405,-1.1491,-1.1187,-1.1631,-1.1762,-1.2305,-1.2674,-1.2951,-1.3365,-1.3821,-1.4121,-1.4031,-1.396,-1.4725,-1.4961,-1.5177,-1.5129,-1.5941,-1.6218,-1.626,-1.5966,-1.3659,-1.1201,-1.0613,-1.1141,-1.3711,-1.505,-1.6162,-1.7087,-1.8159,-1.8906,-1.9668,-1.6676,-1.2774,-1.1498,-1.0223,-0.5944,-0.2721,-0.255,-0.1385,0.2621,0.6259,0.7323,0.7985,0.8362,1.0316,1.1045,1.0708,1.0061,0.5524,0.0936,-0.1411,-0.3459,-0.5308,-0.7184,-0.9714,-1.1889,1.754,1.7613,1.753,1.753,1.7589,1.7581,1.7716,1.7861,1.7942,1.8031,1.8121,1.8121,1.8121,1.8201,1.8121,1.8121,1.8121,1.821,1.8201,1.8201,1.8201,1.8121,1.8121,1.8121,1.8201,1.8273,1.8193,1.8193,1.8023,1.7527,1.6685,1.5584,1.5613,1.5265,1.483,1.4545,1.4348,1.3923,1.3314,1.2716,1.2273,1.2104,1.1905,1.1654,1.1406,1.1027,1.0463,0.9378,0.8841,0.8139,0.767,0.6921,0.7267,0.7419,0.7949,0.7906,0.7899,0.4775,-0.1699,-0.4488,-0.6352,-0.656,-0.6792,-0.5135,-0.6548,-0.8902,-0.9207,-0.7102,-1.267,-1.1604,-1.0508,-1.1111,-1.3046,-1.3327,-1.385,-1.4936,-1.5137,-1.3166,-1.151,-0.9446,-0.6092,-0.1829,-0.345,-0.7935,-1.0602,-1.2447,-1.4264,-1.5825,-1.6129,-1.6144,-1.1927,-0.6854,-0.5116,-0.3688,-0.0559,0.2961,0.3837,0.6337,1.0339,1.2733,1.355,1.5216,1.6465,1.9022,2.0536,1.9325,1.5974,1.0539,0.5741,0.6555,0.6445,0.3038,0.0506,-0.2206,-0.5097,1.7797,1.7912,1.7742,1.7669,1.7759,1.8129,1.8282,1.8353,1.8523,1.8612,1.8612,1.8612,1.8612,1.8612,1.8612,1.8612,1.862,1.8612,1.8692,1.8692,1.87,1.8692,1.8692,1.8763,1.8763,1.8922,1.8913,1.8993,1.9143,1.8904,1.8311,1.7657,1.7064,1.6911,1.6486,1.5953,1.5635,1.5283,1.4835,1.4375,1.3919,1.3699,1.3606,1.3408,1.2443,1.1308,1.0713,1.0621,1.0594,1.0153,1.0827,1.1028,1.2225,1.2714,1.3334,1.3731,1.3924,1.2136,0.9575,0.6706,0.7524,0.7709,0.6178,0.3812,0.2622,-0.1179,-0.0455,0.1899,-0.5119,-0.5362,-0.3755,-0.4243,-0.752,-0.7464,-0.7509,-0.9398,-0.8911,-0.71,-0.5511,-0.4386,-0.0675,0.4767,0.8178,0.4576,-0.1657,-0.3822,-0.6679,-0.8277,-0.8383,-0.7911,-0.404,-0.0138,0.1722,0.3328,0.4749,0.7621,1.1578,1.3484,1.6069,1.8074,1.9352,2.1167,2.1148,2.1348,2.1513,2.1807,2.1832,1.7195,1.4768,1.6936,1.6092,1.1463,0.7015,0.3579,0.0485,1.8282,1.8451,1.8362,1.8273,1.8112,1.8451,1.8683,1.8763,1.8843,1.9002,1.9073,1.9073,1.9073,1.9082,1.9073,1.9073,1.9073,1.925,1.925,1.932,1.932,1.9399,1.9399,1.9399,1.9478,1.9548,1.9548,1.9548,1.9627,1.9706,1.965,1.9081,1.8252,1.7613,1.7261,1.7031,1.6697,1.6386,1.6158,1.5947,1.5386,1.5303,1.5358,1.5458,1.6422,1.6547,1.7243,1.7933,1.8222,1.8451,1.8836,1.8946,1.9218,2.0327,2.1162,2.1751,2.2064,2.2662,2.1074,1.6497,1.0492,0.9703,0.8691,0.8739,0.9495,0.5158,0.4713,0.4392,0.2601,0.2082,0.334,0.2357,0.0589,0.1211,-0.0098,-0.284,-0.2568,-0.0681,0.2299,0.4199,0.8448,1.3494,1.6336,1.8226,1.1251,0.5026,0.1978,-0.047,-0.0609,0.0093,0.3729,0.7405,0.9538,1.2548,1.4213,1.7153,2.0055,2.0628,2.1337,2.1778,2.228,2.1961,2.2,2.2241,2.2434,2.2642,2.2814,2.287,2.2335,2.1446,2.0388,1.8414,1.4045,0.9328,0.5915,1.8531,1.87,1.8772,1.8692,1.8523,1.8692,1.8851,1.9002,1.9082,1.9152,1.9292,1.9292,1.9301,1.939,1.9381,1.946,1.9469,1.9636,1.9636,1.9715,1.9794,1.9872,1.9872,1.9863,1.9863,2.002,2.002,2.002,2.0098,2.0177,2.0245,1.9985,1.9287,1.8578,1.8184,1.7716,1.7436,1.7283,1.7212,1.7086,1.6461,1.6507,1.6708,1.6952,1.7901,1.9189,2.0426,2.1451,2.3115,2.4264,2.5563,2.7096,2.8216,2.9425,3.0463,3.1204,3.1906,3.2518,2.977,2.4935,1.6857,1.7983,1.6664,1.577,1.399,1.2421,1.1865,1.4152,1.104,0.8629,1.0405,0.9367,0.7748,0.7626,0.4796,0.2508,0.4153,0.6069,0.9904,1.3225,1.7408,2.0628,2.1301,2.2762,1.7835,1.1861,0.9103,0.7244,0.7201,0.8367,1.0837,1.4516,1.7824,2.1121,2.4503,2.3803,2.3042,2.3193,2.3632,2.3392,2.3528,2.3175,2.2876,2.2954,2.3159,2.3432,2.3619,2.3749,2.3824,2.3768,2.2527,2.1172,1.8387,1.369,1.0765,1.87,1.87,1.8922,1.8931,1.8772,1.8922,1.9002,1.9082,1.9222,1.9301,1.9301,1.9301,1.9469,1.9557,1.9557,1.9706,1.9863,1.9942,1.9942,2.002,2.0108,2.0029,2.002,2.0098,2.0186,2.0264,2.0264,2.0333,2.0566,2.0664,2.0829,2.0735,2.0138,1.9469,1.9397,1.8775,1.8492,1.8402,1.8228,1.794,1.7543,1.7496,1.7593,1.7946,1.8673,1.994,2.1315,2.2639,2.3937,2.5118,2.5941,2.6758,2.741,2.8293,2.9117,2.9672,3.1063,3.1903,3.1898,3.1358,2.9461,2.7395,2.4777,2.5052,2.5276,2.2687,1.9424,2.1617,1.6624,1.6278,1.6909,1.6927,1.5325,1.3951,1.1398,1.0685,1.2508,1.3552,1.7412,1.9346,2.3201,2.6633,2.6502,2.5749,2.2153,1.8347,1.589,1.4813,1.4643,1.5743,1.7754,1.9349,2.2655,2.3895,2.5893,2.6267,2.6084,2.6104,2.5738,2.5236,2.4742,2.4343,2.4064,2.3865,2.381,2.4008,2.434,2.4657,2.4586,2.4445,2.4022,2.2645,2.0373,1.7829,1.4422,1.9002,1.9073,1.932,1.9329,1.932,1.924,1.9231,1.9231,1.9311,1.9381,1.9478,1.9478,1.9636,1.9715,1.9872,1.9942,2.0177,2.0323,2.0401,2.0557,2.0644,2.0664,2.0654,2.0576,2.0576,2.0489,2.0489,2.0654,2.0829,2.1061,2.1215,2.106,2.0677,1.9849,1.9162,1.8755,1.8875,1.8988,1.9076,1.9083,1.8658,1.8544,1.8583,1.8654,1.925,2.0156,2.1361,2.256,2.3661,2.4673,2.5486,2.6175,2.6725,2.7562,2.815,2.8865,3.0066,3.0837,3.1867,3.2173,3.2187,3.1302,3.0341,2.9483,2.8012,2.6792,2.6816,2.7179,2.3217,2.3481,2.4638,2.4305,2.3341,2.344,2.2064,2.1729,2.2599,2.2893,2.4481,2.4663,2.7078,2.7195,2.7181,2.7198,2.4414,2.3596,2.1363,2.1351,2.1375,2.2212,2.3651,2.3871,2.5473,2.6083,2.6792,2.694,2.7132,2.7031,2.6795,2.6445,2.5997,2.5546,2.5251,2.5018,2.476,2.4588,2.4815,2.4992,2.506,2.4889,2.4336,2.3472,2.1424,1.9233,1.6799,1.932,1.9548,1.9715,1.9872,1.9872,1.9627,1.9539,1.9539,1.945,1.9539,1.9715,1.9891,2.0039,2.0186,2.0255,2.0411,2.0731,2.0876,2.1031,2.1185,2.1339,2.1272,2.1282,2.1205,2.1118,2.0954,2.0876,2.0964,2.1138,2.1349,2.1504,2.1492,2.1259,2.0498,1.9718,1.9494,1.9462,1.9649,1.9879,1.9887,1.9665,1.949,1.9414,1.9511,1.9821,2.0434,2.1452,2.2515,2.3565,2.4471,2.5237,2.5941,2.6453,2.6943,2.7535,2.8259,2.9207,3.0145,3.1376,3.2423,3.2081,3.1111,3.0477,2.9862,2.9068,2.8172,2.8004,2.8237,2.8291,2.8164,2.8017,2.8003,2.7882,2.7707,2.7467,2.6883,2.6726,2.6699,2.6733,2.7247,2.7413,2.7382,2.7382,2.7369,2.6487,2.6676,2.6798,2.6891,2.6657,2.6674,2.6725,2.6708,2.6758,2.6923,2.7117,2.7369,2.7612,2.7858,2.7691,2.7471,2.7235,2.6793,2.6486,2.6127,2.5763,2.5454,2.526,2.5258,2.5191,2.491,2.4373,2.3381,2.2167,2.0236,1.8081,1.9715,1.9942,2.0186,2.0411,2.0566,2.0245,2.0089,1.9932,1.9825,1.9835,2.002,2.0381,2.0518,2.0644,2.0799,2.1108,2.1425,2.1502,2.1655,2.1807,2.1883,2.1883,2.1883,2.1807,2.1731,2.1578,2.1578,2.1568,2.1578,2.2101,2.2187,2.1974,2.198,2.1393,2.0831,2.0422,2.0324,2.0366,2.059,2.0653,2.0588,2.0428,2.0339,2.0379,2.055,2.0977,2.1793,2.2711,2.3593,2.4405,2.5114,2.5738,2.6208,2.6607,2.7085,2.7792,2.8913,2.996,3.0794,3.1719,3.2018,3.1338,3.1048,3.0567,2.9888,2.9137,2.8807,2.8504,2.8371,2.8264,2.8154,2.8099,2.8025,2.7922,2.7847,2.7643,2.7537,2.7525,2.7495,2.7642,2.7672,2.7672,2.7701,2.7672,2.76,2.7617,2.7526,2.7404,2.7166,2.6956,2.7006,2.7023,2.707,2.7213,2.7461,2.773,2.8037,2.8264,2.8504,2.8341,2.8175,2.7977,2.7619,2.7203,2.6713,2.6348,2.5968,2.5565,2.5221,2.4821,2.4294,2.3416,2.2252,2.0677,1.8695,2.0177,2.0411,2.0809,2.1108,2.1471,2.1634,2.1328,2.0847,2.0508,2.0518,2.0809,2.0615,2.0944,2.1272,2.1349,2.1578,2.1873,2.2101,2.2252,2.2402,2.2628,2.2553,2.2478,2.2478,2.2327,2.2252,2.2176,2.2252,2.2478,2.3001,2.3301,2.3187,2.2903,2.2541,2.218,2.1741,2.1371,2.1187,2.1428,2.1623,2.174,2.1651,2.1524,2.1457,2.1537,2.1879,2.2306,2.3113,2.3948,2.4704,2.5438,2.6046,2.6314,2.6774,2.7261,2.7912,2.8869,2.9755,3.017,3.0948,3.1529,3.1592,3.1429,3.064,3.0015,2.9616,2.9184,2.8835,2.8513,2.838,2.83,2.8246,2.8191,2.8119,2.8035,2.7922,2.7864,2.7806,2.7806,2.7806,2.7836,2.7922,2.7922,2.7893,2.7853,2.7917,2.7888,2.783,2.7677,2.7474,2.7321,2.7338,2.7491,2.7654,2.7811,2.8065,2.8394,2.867,2.8888,2.9116,2.9063,2.8868,2.8628,2.8204,2.7621,2.7069,2.6543,2.6072,2.5459,2.4721,2.4143,2.3274,2.2246,2.0731,1.9209,2.0799,2.1108,2.1568,2.209,2.2606,2.2916,2.2692,2.2285,2.1476,2.1257,2.1645,2.1634,2.1711,2.1949,2.2101,2.2327,2.2703,2.2852,2.3075,2.3298,2.3372,2.3372,2.3298,2.3298,2.3224,2.3075,2.3001,2.3075,2.3361,2.3891,2.4247,2.4208,2.3915,2.3717,2.3376,2.2911,2.264,2.2445,2.2408,2.2665,2.2827,2.284,2.2661,2.2617,2.2682,2.272,2.2855,2.3653,2.4323,2.4981,2.5663,2.6173,2.6539,2.7036,2.7504,2.8124,2.8622,2.9142,2.9497,3.0217,3.1037,3.1619,3.171,3.1528,3.082,3.0321,2.9751,2.9246,2.884,2.8543,2.8484,2.8432,2.838,2.8327,2.8191,2.8081,2.8025,2.7968,2.794,2.795,2.7979,2.8081,2.8109,2.8099,2.8126,2.8182,2.8209,2.8182,2.8091,2.7936,2.7794,2.7754,2.7943,2.811,2.8299,2.8471,2.8748,2.9045,2.928,2.9514,2.9706,2.9694,2.9384,2.8962,2.8471,2.783,2.7131,2.6313,2.5633,2.4873,2.4045,2.315,2.2217,2.0953,1.9411,2.1589,2.1959,2.2553,2.3224,2.3886,2.3897,2.4055,2.4105,2.2744,2.2232,2.2553,2.2928,2.3003,2.2874,2.2927,2.3213,2.3508,2.3666,2.3886,2.4261,2.4261,2.425,2.425,2.4261,2.4105,2.4032,2.4032,2.4105,2.4322,2.4779,2.5199,2.5246,2.4855,2.4618,2.4367,2.3821,2.3572,2.3728,2.361,2.3657,2.3903,2.3781,2.3541,2.353,2.342,2.3374,2.3481,2.3925,2.4511,2.5121,2.5705,2.6297,2.6873,2.7321,2.7818,2.8146,2.8532,2.8775,2.9071,2.9625,3.035,3.1137,3.1887,3.2044,3.1553,3.0836,3.0202,2.9566,2.9141,2.8735,2.8612,2.8587,2.8536,2.8466,2.8414,2.8309,2.8228,2.8164,2.8136,2.8136,2.8201,2.8255,2.83,2.8273,2.83,2.8432,2.8466,2.8484,2.8492,2.8368,2.8272,2.821,2.8334,2.8533,2.8676,2.8865,2.9151,2.9416,2.9643,2.981,2.999,3.0059,3.0095,2.9638,2.917,2.8366,2.7612,2.6882,2.6009,2.4949,2.4067,2.3122,2.2113,2.115,1.9904,2.2478,2.2777,2.3519,2.4043,2.4357,2.4502,2.4646,2.4646,2.4429,2.3897,2.3711,2.4005,2.409,2.3689,2.3666,2.3948,2.4238,2.4383,2.4587,2.4814,2.4957,2.4969,2.5028,2.4969,2.4957,2.4945,2.5028,2.504,2.5324,2.5779,2.6214,2.6371,2.5817,2.5292,2.5432,2.4794,2.4439,2.4708,2.4738,2.4654,2.484,2.5108,2.5131,2.4972,2.4809,2.4523,2.4536,2.4575,2.4965,2.5362,2.5921,2.6539,2.7181,2.7552,2.7876,2.8174,2.844,2.8637,2.8864,2.9222,2.9782,3.0485,3.1256,3.1909,3.1931,3.1279,3.0626,2.997,2.9441,2.9052,2.8761,2.8737,2.8712,2.8669,2.8619,2.8518,2.8432,2.838,2.8318,2.8353,2.8388,2.8414,2.8458,2.8484,2.8518,2.8594,2.8658,2.8731,2.8821,2.8766,2.8742,2.8694,2.8755,2.892,2.9064,2.924,2.9495,2.9712,2.9908,3.0098,3.0251,3.0345,3.0405,3.0233,2.98,2.9011,2.8288,2.7639,2.6666,2.5449,2.4516,2.371,2.2786,2.1842,2.0567,2.3372,2.3593,2.4322,2.4694,2.4838,2.4981,2.4992,2.5064,2.5088,2.5004,2.4706,2.4786,2.4714,2.4406,2.4383,2.4599,2.4945,2.5087,2.5241,2.5394,2.5453,2.5535,2.5535,2.5535,2.5535,2.5606,2.5664,2.5886,2.6233,2.6577,2.6934,2.7048,2.6374,2.6008,2.6169,2.545,2.4991,2.5286,2.5536,2.5646,2.5715,2.5918,2.5983,2.5857,2.5766,2.5556,2.5268,2.5165,2.5346,2.5686,2.6208,2.6808,2.7355,2.7689,2.795,2.8219,2.8458,2.8644,2.881,2.9038,2.9407,3.0129,3.0575,3.125,3.2206,3.1616,3.0968,3.0345,2.9966,2.96,2.907,2.8905,2.8905,2.8881,2.8743,2.8644,2.8587,2.8536,2.8484,2.8484,2.8518,2.8569,2.8594,2.8637,2.8687,2.881,2.8887,2.8938,2.903,2.9123,2.9123,2.9144,2.9185,2.9312,2.9455,2.9624,2.9829,2.9999,3.0151,3.0325,3.0466,3.0631,3.0677,3.0468,3.0173,2.9655,2.8955,2.8278,2.7278,2.6033,2.5201,2.4443,2.3499,2.2581,2.153,2.4127,2.4406,2.4838,2.5182,2.5312,2.5312,2.5382,2.5382,2.5394,2.5453,2.5548,2.5254,2.5159,2.5111,2.5158,2.5382,2.5535,2.5606,2.577,2.591,2.5968,2.5968,2.5968,2.598,2.5968,2.6107,2.6233,2.6496,2.6782,2.7121,2.7311,2.7394,2.7057,2.6614,2.6457,2.5969,2.5397,2.5605,2.5879,2.615,2.6365,2.6563,2.652,2.6518,2.6479,2.6196,2.5841,2.5649,2.5799,2.5977,2.6349,2.6908,2.7373,2.7689,2.7979,2.8219,2.8458,2.8619,2.8791,2.8923,2.9379,2.9871,3.0139,3.0751,3.1728,3.1722,3.1114,3.0643,3.0289,2.9866,2.9357,2.9085,2.9085,2.9062,2.8905,2.8785,2.8737,2.8687,2.8662,2.8637,2.8687,2.8718,2.8767,2.881,2.8881,2.9017,2.9067,2.9134,2.9203,2.931,2.9353,2.9454,2.9532,2.9663,2.9806,2.9931,3.0075,3.0215,3.0372,3.0525,3.0662,3.0732,3.0741,3.0679,3.0339,2.9918,2.944,2.8802,2.7737,2.6655,2.5897,2.5114,2.4225,2.3353,2.2632,2.4778,2.4981,2.504,2.5253,2.5535,2.5535,2.5606,2.5758,2.5758,2.5828,2.584,2.577,2.57,2.577,2.5688,2.5828,2.5968,2.605,2.6188,2.6314,2.6314,2.6327,2.6396,2.6314,2.6452,2.6589,2.6782,2.7121,2.7255,2.751,2.7829,2.8011,2.7185,2.6809,2.6758,2.621,2.5744,2.5921,2.6111,2.6394,2.6674,2.6922,2.7218,2.7195,2.7116,2.678,2.6435,2.6125,2.5863,2.5907,2.6314,2.6891,2.7293,2.763,2.7893,2.8164,2.838,2.8543,2.8694,2.8834,2.9258,2.9365,2.9706,3.0272,3.0996,3.1328,3.0788,3.0373,3.0023,2.9683,2.9304,2.9193,2.9175,2.913,2.904,2.8905,2.8834,2.8834,2.8828,2.8834,2.8881,2.8952,2.9003,2.9044,2.9089,2.9178,2.9225,2.927,2.9312,2.9453,2.9589,2.9682,2.9806,2.9924,3.0034,3.0142,3.0278,3.0432,3.0552,3.0637,3.0713,3.0759,3.0751,3.0691,3.0506,3.0141,2.9674,2.9149,2.8381,2.7373,2.6606,2.5824,2.4929,2.4112,2.3365]}]]